ftp/pub/palmer/observations_modified/2019/July/original_files/AR190727_BASE.txt
Download
Sample DateTime Unit Id WS Avg 2min WD Avg 2min WGS 10min WGD 10min Air Temp Rel Humidity Dew Point Pyranometer Quantum Air Pressure Snow Level Rainfall PW Current Visibility CBase 1 CBase 2 CBase 3 Vert Vis
2019/07/27 00:00:00 BASE 18.25 48 21.50 45 -1.0 66 -6.6 0 0 969.4 NA 0.0000 9999 3540 0 0 0
2019/07/27 00:01:00 BASE 18.24 48 21.50 45 -1.0 66 -6.5 0 0 969.5 NA 0.0000 9999 0 0 0 0
2019/07/27 00:02:00 BASE 17.98 47 21.50 45 -1.0 66 -6.5 0 0 969.4 NA 0.0000 9999 0 0 0 0
2019/07/27 00:03:00 BASE 17.60 47 21.50 45 -1.0 66 -6.5 0 0 969.5 NA 0.0000 9999 3310 0 0 0
2019/07/27 00:04:00 BASE 17.47 46 21.50 45 -0.9 66 -6.4 0 0 969.4 NA 0.0000 9999 3250 0 0 0
2019/07/27 00:05:00 BASE 17.93 46 21.50 45 -0.9 66 -6.4 0 0 969.4 NA 0.0000 9999 3540 0 0 0
2019/07/27 00:06:00 BASE 17.83 46 21.50 45 -0.8 67 -6.3 0 0 969.4 NA 0.0000 9999 3480 0 0 0
2019/07/27 00:07:00 BASE 17.48 45 21.50 45 -0.8 67 -6.2 0 0 969.3 NA 0.0000 9999 3410 0 0 0
2019/07/27 00:08:00 BASE 16.77 47 21.50 45 -0.8 67 -6.0 0 0 969.3 NA 0.0000 9999 0 0 0 0
2019/07/27 00:09:00 BASE 16.61 49 21.50 45 -0.7 68 -5.9 0 0 969.3 NA 0.0000 9999 0 0 0 0
2019/07/27 00:10:00 BASE 16.91 52 20.17 44 -0.7 68 -5.8 0 0 969.2 NA 0.0000 9999 3610 0 0 0
2019/07/27 00:11:00 BASE 17.38 54 21.09 54 -0.7 68 -5.8 0 0 969.1 NA 0.0000 9999 0 0 0 0
2019/07/27 00:12:00 BASE 18.01 56 21.09 54 -0.7 68 -5.8 0 0 969.0 NA 0.0000 9999 0 0 0 1540
2019/07/27 00:13:00 BASE 17.93 58 21.09 54 -0.7 69 -5.7 0 0 968.9 NA 0.0000 9999 0 0 0 0
2019/07/27 00:14:00 BASE 17.85 60 21.09 54 -0.7 69 -5.7 0 0 968.9 NA 0.0000 9999 0 0 0 0
2019/07/27 00:15:00 BASE 18.36 60 21.09 54 -0.7 69 -5.7 0 0 968.9 NA 0.0000 9999 0 0 0 0
2019/07/27 00:16:00 BASE 17.96 60 21.09 54 -0.7 69 -5.7 0 0 969.0 NA 0.0000 9999 0 0 0 0
2019/07/27 00:17:00 BASE 17.46 59 21.09 54 -0.7 69 -5.7 0 0 969.0 NA 0.0000 9999 0 0 0 0
2019/07/27 00:18:00 BASE 17.57 57 21.09 54 -0.6 68 -5.7 0 0 969.0 NA 0.0000 9999 0 0 0 0
2019/07/27 00:19:00 BASE 17.59 56 21.09 54 -0.6 68 -5.8 0 0 968.9 NA 0.0000 9999 0 0 0 0
2019/07/27 00:20:00 BASE 17.14 55 21.09 54 -0.6 68 -5.8 0 0 968.9 NA 0.0000 9999 0 0 0 0
2019/07/27 00:21:00 BASE 16.79 55 20.94 51 -0.6 68 -5.8 0 0 968.9 NA 0.0000 9999 0 0 0 0
2019/07/27 00:22:00 BASE 17.20 57 19.81 61 -0.6 68 -5.7 0 0 968.8 NA 0.0000 9999 0 0 0 0
2019/07/27 00:23:00 BASE 17.12 57 19.81 61 -0.6 68 -5.7 0 0 968.8 NA 0.0000 9999 0 0 0 0
2019/07/27 00:24:00 BASE 16.90 57 19.45 59 -0.7 69 -5.7 0 0 968.8 NA 0.0000 9999 0 0 0 0
2019/07/27 00:25:00 BASE 17.29 57 19.29 59 -0.7 69 -5.7 0 0 968.8 NA 0.0000 9999 0 0 0 0
2019/07/27 00:26:00 BASE 18.60 57 21.14 53 -0.8 70 -5.7 0 0 968.7 NA 0.0000 9999 0 0 0 0
2019/07/27 00:27:00 BASE 19.38 58 21.14 53 -0.8 70 -5.7 0 0 968.6 NA 0.0000 9999 0 0 0 0
2019/07/27 00:28:00 BASE 19.91 59 22.28 65 -0.9 70 -5.7 0 0 968.6 NA 0.0000 9999 0 0 0 0
2019/07/27 00:29:00 BASE 21.18 61 23.61 57 -0.9 70 -5.7 0 0 968.5 NA 0.0000 9999 0 0 0 0
2019/07/27 00:30:00 BASE 21.84 61 23.61 57 -0.9 70 -5.7 0 0 968.4 NA 0.0000 9999 0 0 0 0
2019/07/27 00:31:00 BASE 21.83 61 23.61 57 -0.8 70 -5.7 0 0 968.3 NA 0.0000 9999 0 0 0 0
2019/07/27 00:32:00 BASE 21.62 61 23.66 59 -0.8 69 -5.7 0 0 968.3 NA 0.0000 9999 0 0 0 0
2019/07/27 00:33:00 BASE 22.19 60 23.87 60 -0.8 69 -5.7 0 0 968.3 NA 0.0000 9999 0 0 0 0
2019/07/27 00:34:00 BASE 23.04 60 23.87 60 -0.8 69 -5.8 0 0 968.2 NA 0.0000 9999 0 0 0 0
2019/07/27 00:35:00 BASE 22.67 60 23.87 60 -0.8 69 -5.8 0 0 968.3 NA 0.0000 9999 0 0 0 0
2019/07/27 00:36:00 BASE 21.80 61 23.87 60 -0.8 69 -5.8 0 0 968.3 NA 0.0000 9999 0 0 0 0
2019/07/27 00:37:00 BASE 21.05 63 23.87 60 -0.8 69 -5.8 0 0 968.3 NA 0.0000 9999 0 0 0 0
2019/07/27 00:38:00 BASE 21.03 63 23.87 60 -0.9 69 -5.9 0 0 968.3 NA 0.0000 9999 0 0 0 0
2019/07/27 00:39:00 BASE 21.34 62 23.87 60 -0.9 69 -6.0 0 0 968.3 NA 0.0000 9999 0 0 0 0
2019/07/27 00:40:00 BASE 21.15 63 23.87 60 -1.0 68 -6.1 0 0 968.3 NA 0.0000 9999 0 0 0 0
2019/07/27 00:41:00 BASE 21.83 65 23.87 60 -1.1 68 -6.2 0 0 968.3 NA 0.0000 9999 0 0 0 0
2019/07/27 00:42:00 BASE 22.61 65 24.08 64 -1.1 68 -6.3 0 0 968.2 NA 0.0000 9999 0 0 0 0
2019/07/27 00:43:00 BASE 23.01 65 24.13 66 -1.1 68 -6.2 0 0 968.2 NA 0.0000 9999 0 0 0 0
2019/07/27 00:44:00 BASE 22.69 64 24.13 66 -1.0 68 -6.2 0 0 968.3 NA 0.0000 9999 0 0 0 0
2019/07/27 00:45:00 BASE 21.66 65 24.13 66 -0.9 68 -6.2 0 0 968.3 NA 0.0000 9999 0 0 0 0
2019/07/27 00:46:00 BASE 22.05 66 24.18 64 -0.9 67 -6.2 0 0 968.2 NA 0.0000 9999 0 0 0 0
2019/07/27 00:47:00 BASE 22.60 67 24.18 64 -0.9 67 -6.3 0 0 968.2 NA 0.0000 9999 0 0 0 0
2019/07/27 00:48:00 BASE 22.84 67 24.69 64 -0.8 66 -6.4 0 0 968.2 NA 0.0000 9999 0 0 0 0
2019/07/27 00:49:00 BASE 22.89 67 24.69 64 -0.9 66 -6.5 0 0 968.2 NA 0.0000 9999 0 0 0 0
2019/07/27 00:50:00 BASE 21.42 68 24.69 64 -0.9 65 -6.6 0 0 968.2 NA 0.0000 9999 0 0 0 0
2019/07/27 00:51:00 BASE 21.24 68 25.52 69 -0.9 65 -6.6 0 0 968.2 NA 0.0000 9999 0 0 0 0
2019/07/27 00:52:00 BASE 22.37 68 25.52 69 -1.0 65 -6.7 0 0 968.1 NA 0.0000 9999 0 0 0 0
2019/07/27 00:53:00 BASE 22.70 67 25.52 69 -1.0 65 -6.7 0 0 968.1 NA 0.0000 9999 0 0 0 0
2019/07/27 00:54:00 BASE 22.52 68 25.52 69 -1.0 65 -6.7 0 0 968.1 NA 0.0000 9999 0 0 0 0
2019/07/27 00:55:00 BASE 22.52 68 25.52 69 -0.9 65 -6.7 0 0 968.2 NA 0.0000 9999 0 0 0 0
2019/07/27 00:56:00 BASE 22.40 65 25.52 69 -0.9 65 -6.6 0 0 968.2 NA 0.0000 9000 0 0 0 0
2019/07/27 00:57:00 BASE 21.92 62 25.52 69 -0.8 65 -6.5 0 0 968.2 NA 0.0000 8000 0 0 0 0
2019/07/27 00:58:00 BASE 21.94 63 25.52 69 -0.7 65 -6.4 0 0 968.2 NA 0.0000 9000 0 0 0 0
2019/07/27 00:59:00 BASE 22.13 63 25.52 69 -0.6 65 -6.4 0 0 968.2 NA 0.0000 9999 0 0 0 0
2019/07/27 01:00:00 BASE 22.28 63 25.52 69 -0.5 65 -6.3 0 0 968.2 NA 0.0000 9999 0 0 0 0
2019/07/27 01:01:00 BASE 21.82 63 25.00 68 -0.6 65 -6.3 0 0 968.3 NA 0.0000 HZ 9000 0 0 0 0
2019/07/27 01:02:00 BASE 21.24 63 24.90 59 -0.6 65 -6.3 0 0 968.2 NA 0.0000 HZ 9999 0 0 0 0
2019/07/27 01:03:00 BASE 20.81 64 24.90 59 -0.7 66 -6.3 0 0 968.2 NA 0.0000 HZ 9999 19690 0 0 0
2019/07/27 01:04:00 BASE 21.34 65 24.90 59 -0.7 66 -6.3 0 0 968.1 NA 0.0000 HZ 8000 0 0 0 0
2019/07/27 01:05:00 BASE 22.05 63 24.90 59 -0.8 66 -6.3 0 0 968.1 NA 0.0000 HZ 8000 0 0 0 0
2019/07/27 01:06:00 BASE 23.09 63 26.13 59 -0.8 66 -6.3 0 0 968.0 NA 0.0000 HZ 7000 0 0 0 0
2019/07/27 01:07:00 BASE 23.78 66 26.13 68 -0.8 67 -6.2 0 0 968.0 NA 0.0000 HZ 6000 0 0 0 0
2019/07/27 01:08:00 BASE 23.95 68 26.44 68 -0.8 67 -6.2 0 0 968.0 NA 0.0000 UP 6000 0 0 0 0
2019/07/27 01:09:00 BASE 25.51 66 28.04 67 -0.7 67 -6.1 0 0 968.0 NA 0.0000 UP 6000 17450 0 0 0
2019/07/27 01:10:00 BASE 25.32 66 28.04 67 -0.6 67 -6.0 0 0 968.0 NA 0.0000 UP 5000 0 0 0 0
2019/07/27 01:11:00 BASE 24.72 69 28.04 67 -0.5 67 -6.0 0 0 968.0 NA 0.0000 UP 6000 0 0 0 0
2019/07/27 01:12:00 BASE 25.13 69 28.04 67 -0.4 67 -5.9 0 0 968.0 NA 0.0000 UP 6000 17360 0 0 0
2019/07/27 01:13:00 BASE 24.86 69 28.04 67 -0.3 66 -5.9 0 0 968.0 NA 0.0000 UP 5000 17360 0 0 0
2019/07/27 01:14:00 BASE 24.17 69 28.04 67 -0.2 66 -5.8 0 0 968.0 NA 0.0000 UP 5000 17360 0 0 0
2019/07/27 01:15:00 BASE 23.26 68 28.04 67 -0.1 65 -5.9 0 0 968.0 NA 0.0000 UP 5000 17290 0 0 0
2019/07/27 01:16:00 BASE 22.36 71 28.04 67 -0.1 65 -6.0 0 0 968.0 NA 0.0000 UP 6000 17320 0 0 0
2019/07/27 01:17:00 BASE 22.15 73 28.04 67 -0.1 64 -6.1 0 0 968.0 NA 0.0000 UP 9999 17290 0 0 0
2019/07/27 01:18:00 BASE 22.14 75 28.04 67 -0.1 64 -6.1 0 0 967.9 NA 0.0000 UP 9999 18180 0 0 0
2019/07/27 01:19:00 BASE 22.48 78 27.78 70 -0.1 63 -6.2 0 0 967.9 NA 0.0000 UP 9999 18410 0 0 0
2019/07/27 01:20:00 BASE 22.61 77 27.78 70 -0.1 63 -6.3 0 0 967.9 NA 0.0000 UP 9999 0 0 0 0
2019/07/27 01:21:00 BASE 21.00 77 26.91 71 -0.0 63 -6.3 0 0 967.9 NA 0.0000 UP 9999 0 0 0 0
2019/07/27 01:22:00 BASE 19.83 78 26.34 67 0.0 62 -6.4 0 0 967.9 NA 0.0000 HZ 9999 0 0 0 0
2019/07/27 01:23:00 BASE 20.32 76 24.74 66 0.0 62 -6.4 0 0 967.8 NA 0.0000 HZ 9999 18410 0 0 0
2019/07/27 01:24:00 BASE 20.03 77 24.64 79 0.1 61 -6.5 0 0 967.8 NA 0.0000 9999 18340 0 0 0
2019/07/27 01:25:00 BASE 19.05 78 24.64 79 0.0 61 -6.6 0 0 967.7 NA 0.0000 9999 18370 0 0 0
2019/07/27 01:26:00 BASE 19.03 77 24.64 79 -0.0 61 -6.6 0 0 967.6 NA 0.0000 9999 18280 0 0 0
2019/07/27 01:27:00 BASE 18.59 77 24.64 79 -0.1 62 -6.6 0 0 967.6 NA 0.0000 9999 16470 18080 0 0
2019/07/27 01:28:00 BASE 19.09 78 24.64 79 -0.2 62 -6.6 0 0 967.5 NA 0.0000 9999 0 0 0 0
2019/07/27 01:29:00 BASE 19.66 78 23.66 71 -0.3 63 -6.5 0 0 967.4 NA 0.0000 9999 16110 17520 0 0
2019/07/27 01:30:00 BASE 19.34 75 22.69 75 -0.3 63 -6.5 0 0 967.4 NA 0.0000 9999 17160 0 0 0
2019/07/27 01:31:00 BASE 20.28 76 24.13 74 -0.4 64 -6.4 0 0 967.3 NA 0.0000 9999 16210 0 0 0
2019/07/27 01:32:00 BASE 21.13 76 24.13 74 -0.4 64 -6.4 0 0 967.3 NA 0.0000 9999 16010 0 0 0
2019/07/27 01:33:00 BASE 20.93 75 24.13 74 -0.4 64 -6.3 0 0 967.2 NA 0.0000 9999 17360 0 0 0
2019/07/27 01:34:00 BASE 21.08 74 24.13 74 -0.4 64 -6.3 0 0 967.2 NA 0.0000 9999 16110 17320 0 0
2019/07/27 01:35:00 BASE 21.79 74 24.90 70 -0.4 65 -6.3 0 0 967.1 NA 0.0000 9999 16110 17190 0 0
2019/07/27 01:36:00 BASE 21.10 73 24.90 70 -0.4 65 -6.3 0 0 967.2 NA 0.0000 9999 16210 0 0 0
2019/07/27 01:37:00 BASE 20.39 73 24.90 70 -0.4 65 -6.3 0 0 967.2 NA 0.0000 9999 16140 0 0 0
2019/07/27 01:38:00 BASE 20.54 73 24.90 70 -0.4 65 -6.2 0 0 967.1 NA 0.0000 9999 16080 0 0 0
2019/07/27 01:39:00 BASE 20.31 75 24.90 70 -0.4 65 -6.2 0 0 967.1 NA 0.0000 9999 15850 0 0 0
2019/07/27 01:40:00 BASE 20.32 78 24.90 70 -0.4 65 -6.2 0 0 967.1 NA 0.0000 9999 15810 0 0 0
2019/07/27 01:41:00 BASE 19.82 76 24.90 70 -0.4 65 -6.2 0 0 967.1 NA 0.0000 9999 15910 0 0 0
2019/07/27 01:42:00 BASE 19.43 76 24.90 70 -0.5 65 -6.2 0 0 967.1 NA 0.0000 9999 15780 0 0 0
2019/07/27 01:43:00 BASE 18.94 78 24.90 70 -0.5 66 -6.1 0 0 967.1 NA 0.0000 9999 15520 0 0 0
2019/07/27 01:44:00 BASE 18.93 77 24.90 70 -0.5 66 -6.1 0 0 967.1 NA 0.0000 9999 15980 0 0 0
2019/07/27 01:45:00 BASE 19.33 75 23.66 70 -0.5 66 -6.0 0 0 967.1 NA 0.0000 9999 15880 0 0 0
2019/07/27 01:46:00 BASE 18.73 75 23.66 70 -0.5 66 -6.1 0 0 967.1 NA 0.0000 9999 8730 15850 0 0
2019/07/27 01:47:00 BASE 18.43 75 22.94 70 -0.5 66 -6.1 0 0 967.1 NA 0.0000 9999 8630 0 0 0
2019/07/27 01:48:00 BASE 18.31 73 22.84 79 -0.4 65 -6.1 0 0 967.1 NA 0.0000 9999 8600 0 0 0
2019/07/27 01:49:00 BASE 18.01 72 22.84 79 -0.4 65 -6.2 0 0 967.1 NA 0.0000 9999 8660 0 0 0
2019/07/27 01:50:00 BASE 17.30 73 22.74 76 -0.3 64 -6.2 0 0 967.1 NA 0.0000 9999 8460 0 0 0
2019/07/27 01:51:00 BASE 17.82 75 22.74 76 -0.3 64 -6.2 0 0 967.1 NA 0.0000 9999 8370 0 0 0
2019/07/27 01:52:00 BASE 18.02 75 22.74 76 -0.1 64 -6.2 0 0 967.1 NA 0.0000 9999 8430 0 0 0
2019/07/27 01:53:00 BASE 16.83 76 22.74 76 -0.0 63 -6.3 0 0 967.1 NA 0.0000 9999 8240 0 0 0
2019/07/27 01:54:00 BASE 15.80 75 21.61 72 0.1 62 -6.3 0 0 967.0 NA 0.0000 9999 8400 0 0 0
2019/07/27 01:55:00 BASE 15.40 72 21.61 72 0.1 61 -6.4 0 0 967.0 NA 0.0000 9999 8330 0 0 0
2019/07/27 01:56:00 BASE 16.03 75 21.61 72 0.2 61 -6.5 0 0 967.0 NA 0.0000 9999 8270 0 0 0
2019/07/27 01:57:00 BASE 15.43 86 21.61 72 0.2 60 -6.6 0 0 967.0 NA 0.0000 9999 8370 0 0 0
2019/07/27 01:58:00 BASE 13.42 93 21.61 72 0.1 60 -6.7 0 0 966.9 NA 0.0000 9999 7870 0 0 0
2019/07/27 01:59:00 BASE 11.18 91 21.61 72 0.1 61 -6.7 0 0 966.8 NA 0.0000 9999 7780 0 0 0
2019/07/27 02:00:00 BASE 11.07 90 21.61 72 -0.0 61 -6.6 0 0 966.8 NA 0.0000 9999 7610 0 0 0
2019/07/27 02:01:00 BASE 12.80 92 21.61 72 -0.1 62 -6.5 0 0 966.9 NA 0.0000 9999 7680 0 0 0
2019/07/27 02:02:00 BASE 13.36 93 19.55 74 -0.2 63 -6.4 0 0 966.9 NA 0.0000 9999 7220 0 0 0
2019/07/27 02:03:00 BASE 13.56 94 18.31 86 -0.2 63 -6.3 0 0 966.8 NA 0.0000 9999 6960 0 0 0
2019/07/27 02:04:00 BASE 13.69 97 18.31 86 -0.3 64 -6.2 0 0 966.8 NA 0.0000 9999 6820 0 0 0
2019/07/27 02:05:00 BASE 13.45 104 18.31 86 -0.3 65 -6.2 0 0 966.8 NA 0.0000 9999 4790 0 0 0
2019/07/27 02:06:00 BASE 13.22 104 15.95 94 -0.4 65 -6.1 0 0 966.9 NA 0.0000 9999 4890 0 0 0
2019/07/27 02:07:00 BASE 11.74 92 15.95 94 -0.4 66 -5.9 0 0 967.1 NA 0.0000 9999 4530 0 0 0
2019/07/27 02:08:00 BASE 11.24 83 15.95 94 -0.5 67 -5.8 0 0 967.1 NA 0.0000 9999 8630 0 0 0
2019/07/27 02:09:00 BASE 9.92 93 15.95 94 -0.5 68 -5.6 0 0 966.9 NA 0.0000 9999 0 0 0 3250
2019/07/27 02:10:00 BASE 8.58 98 15.95 94 -0.5 69 -5.5 0 0 966.7 NA 0.0000 9999 0 0 0 4270
2019/07/27 02:11:00 BASE 9.29 79 15.95 94 -0.3 69 -5.4 0 0 966.7 NA 0.0000 UP 9999 3510 0 0 0
2019/07/27 02:12:00 BASE 10.65 70 15.95 94 -0.2 68 -5.4 0 0 966.7 NA 0.0000 UP 9999 4560 0 0 0
2019/07/27 02:13:00 BASE 9.50 94 14.97 100 -0.1 67 -5.5 0 0 966.8 NA 0.0000 UP 9999 4400 0 0 0
2019/07/27 02:14:00 BASE 7.99 119 14.97 100 -0.0 66 -5.6 0 0 966.7 NA 0.0000 UP 9999 4660 0 0 0
2019/07/27 02:15:00 BASE 8.32 113 14.40 77 -0.0 66 -5.6 0 0 966.9 NA 0.0000 UP 9999 4430 0 0 0
2019/07/27 02:16:00 BASE 6.27 103 14.40 77 -0.2 67 -5.6 0 0 966.7 NA 0.0000 UP 9999 4070 0 0 0
2019/07/27 02:17:00 BASE 7.41 94 14.40 77 -0.3 68 -5.5 0 0 966.8 NA 0.0000 UP 9999 4530 0 0 0
2019/07/27 02:18:00 BASE 12.49 88 16.10 105 -0.4 70 -5.2 0 0 966.8 NA 0.0000 UP 9999 3870 0 0 0
2019/07/27 02:19:00 BASE 14.51 97 16.51 106 -0.5 71 -5.0 0 0 966.8 NA 0.0000 UP SQ 9999 3870 0 0 0
2019/07/27 02:20:00 BASE 12.35 104 16.51 106 -0.4 72 -4.9 0 0 966.7 NA 0.0000 9999 3310 0 0 0
2019/07/27 02:21:00 BASE 10.92 101 16.51 106 -0.4 72 -4.8 0 0 966.8 NA 0.0000 9999 6400 0 0 0
2019/07/27 02:22:00 BASE 10.53 102 16.51 106 -0.3 72 -4.7 0 0 966.7 NA 0.0000 9999 6460 0 0 0
2019/07/27 02:23:00 BASE 11.64 94 16.51 106 -0.3 73 -4.7 0 0 966.7 NA 0.0000 9999 0 0 0 3050
2019/07/27 02:24:00 BASE 12.10 89 16.51 106 -0.2 73 -4.6 0 0 966.7 NA 0.0000 9999 0 0 0 3180
2019/07/27 02:25:00 BASE 10.77 95 16.51 106 -0.2 72 -4.6 0 0 966.6 NA 0.0000 UP 9999 0 0 0 2460
2019/07/27 02:26:00 BASE 9.90 79 16.51 106 -0.1 72 -4.6 0 0 966.6 NA 0.0000 UP 9999 0 0 0 2990
2019/07/27 02:27:00 BASE 8.45 67 16.51 106 0.1 71 -4.7 0 0 966.6 NA 0.0000 UP 9999 0 0 0 2530
2019/07/27 02:28:00 BASE 9.74 81 16.51 106 0.1 70 -4.7 0 0 966.5 NA 0.0000 UP 9999 4460 0 0 0
2019/07/27 02:29:00 BASE 12.62 90 16.46 78 0.1 69 -4.9 0 0 966.5 NA 0.0000 UP 9999 0 0 0 5510
2019/07/27 02:30:00 BASE 12.87 95 16.46 78 0.1 69 -4.9 0 0 966.4 NA 0.0000 UP 9999 0 0 0 3900
2019/07/27 02:31:00 BASE 12.36 99 16.46 78 -0.0 70 -4.9 0 0 966.4 NA 0.0000 UP 9999 0 0 0 7250
2019/07/27 02:32:00 BASE 11.24 101 16.46 78 -0.1 71 -4.8 0 0 966.4 NA 0.0000 UP 9999 0 0 0 6400
2019/07/27 02:33:00 BASE 9.19 99 15.43 99 -0.2 71 -4.7 0 0 966.4 NA 0.0000 UP 9999 0 0 0 6140
2019/07/27 02:34:00 BASE 9.25 89 15.43 99 -0.2 72 -4.7 0 0 966.4 NA 0.0000 UP 9999 5320 0 0 0
2019/07/27 02:35:00 BASE 10.85 81 15.43 99 -0.3 73 -4.6 0 0 966.4 NA 0.0000 UP 9999 5280 0 0 0
2019/07/27 02:36:00 BASE 11.45 84 15.43 99 -0.4 74 -4.4 0 0 966.4 NA 0.0000 UP 9999 5380 0 0 0
2019/07/27 02:37:00 BASE 10.04 91 15.43 99 -0.4 75 -4.3 0 0 966.3 NA 0.0000 UP 9999 5050 0 0 0
2019/07/27 02:38:00 BASE 8.15 88 15.43 99 -0.4 76 -4.2 0 0 966.1 NA 0.0000 UP 9999 5350 0 0 0
2019/07/27 02:39:00 BASE 7.62 79 13.74 96 -0.4 76 -4.1 0 0 966.1 NA 0.0000 9999 4890 0 0 0
2019/07/27 02:40:00 BASE 7.53 72 13.74 96 -0.3 76 -4.0 0 0 965.9 NA 0.0000 9999 5580 0 0 0
2019/07/27 02:41:00 BASE 8.16 81 13.17 82 -0.2 76 -3.9 0 0 965.9 NA 0.0000 9999 5610 0 0 0
2019/07/27 02:42:00 BASE 9.41 105 13.17 82 -0.1 75 -4.0 0 0 965.9 NA 0.0000 9999 5580 0 0 0
2019/07/27 02:43:00 BASE 10.52 113 13.17 82 0.1 74 -4.1 0 0 965.8 NA 0.0000 9999 5740 0 0 0
2019/07/27 02:44:00 BASE 11.62 107 13.74 103 0.1 72 -4.3 0 0 965.8 NA 0.0000 9999 3900 0 0 0
2019/07/27 02:45:00 BASE 12.43 105 13.74 103 0.1 71 -4.5 0 0 965.8 NA 0.0000 9999 3840 0 0 0
2019/07/27 02:46:00 BASE 12.69 111 14.15 119 0.0 71 -4.6 0 0 965.7 NA 0.0000 9999 4230 0 0 0
2019/07/27 02:47:00 BASE 13.98 112 16.82 109 -0.1 72 -4.5 0 0 965.7 NA 0.0000 9999 5050 0 0 0
2019/07/27 02:48:00 BASE 14.94 108 16.82 109 -0.2 73 -4.5 0 0 965.6 NA 0.0000 9999 5250 0 0 0
2019/07/27 02:49:00 BASE 14.20 103 16.82 109 -0.2 74 -4.4 0 0 965.6 NA 0.0000 9999 4360 0 0 0
2019/07/27 02:50:00 BASE 15.55 100 19.45 101 -0.3 74 -4.3 0 0 965.4 NA 0.0000 9999 4560 0 0 0
2019/07/27 02:51:00 BASE 18.55 99 22.17 101 -0.3 75 -4.2 0 0 965.3 NA 0.0000 9999 4430 0 0 0
2019/07/27 02:52:00 BASE 18.72 99 22.17 101 -0.3 76 -4.1 0 0 965.4 NA 0.0000 9999 5870 0 0 0
2019/07/27 02:53:00 BASE 17.42 101 22.17 101 -0.3 76 -4.0 0 0 965.5 NA 0.0000 9999 5910 0 0 0
2019/07/27 02:54:00 BASE 16.08 101 22.17 101 -0.3 76 -4.0 0 0 965.5 NA 0.0000 9999 5970 0 0 0
2019/07/27 02:55:00 BASE 16.08 105 22.17 101 -0.3 77 -3.9 0 0 965.4 NA 0.0000 9999 6040 0 0 0
2019/07/27 02:56:00 BASE 16.87 107 22.17 101 -0.3 77 -3.9 0 0 965.4 NA 0.0000 9999 5970 0 0 0
2019/07/27 02:57:00 BASE 15.46 106 22.17 101 -0.4 77 -3.9 0 0 965.4 NA 0.0000 9999 5910 0 0 0
2019/07/27 02:58:00 BASE 15.81 107 22.17 101 -0.4 78 -3.8 0 0 965.3 NA 0.0000 9999 3670 0 0 0
2019/07/27 02:59:00 BASE 16.91 109 22.17 101 -0.5 78 -3.8 0 0 965.3 NA 0.0000 9999 3480 0 0 0
2019/07/27 03:00:00 BASE 16.32 105 22.17 101 -0.5 79 -3.8 0 0 965.3 NA 0.0000 9999 3870 0 0 0
2019/07/27 03:01:00 BASE 18.59 97 24.49 87 -0.6 79 -3.7 0 0 965.3 NA 0.0000 9999 5220 0 0 0
2019/07/27 03:02:00 BASE 20.87 93 24.49 87 -0.6 80 -3.6 0 0 965.2 NA 0.0000 9999 3870 0 0 0
2019/07/27 03:03:00 BASE 18.48 95 24.49 87 -0.6 80 -3.6 0 0 965.2 NA 0.0000 9999 3870 0 0 0
2019/07/27 03:04:00 BASE 16.44 102 24.49 87 -0.6 81 -3.5 0 0 965.1 NA 0.0000 9999 4070 0 0 0
2019/07/27 03:05:00 BASE 17.35 108 24.49 87 -0.6 81 -3.4 0 0 965.0 NA 0.0000 9999 3670 0 0 0
2019/07/27 03:06:00 BASE 19.92 108 24.49 87 -0.7 82 -3.4 0 0 964.9 NA 0.0000 9999 3670 0 0 0
2019/07/27 03:07:00 BASE 23.03 104 27.01 103 -0.7 82 -3.3 0 0 964.8 NA 0.0000 9999 4400 0 0 0
2019/07/27 03:08:00 BASE 23.52 105 27.01 103 -0.8 83 -3.3 0 0 964.8 NA 0.0000 9999 4230 0 0 0
2019/07/27 03:09:00 BASE 22.49 110 27.01 103 -0.8 84 -3.2 0 0 964.7 NA 0.0000 9999 3410 0 0 0
2019/07/27 03:10:00 BASE 24.11 109 29.12 108 -0.8 84 -3.1 0 0 964.6 NA 0.0000 8000 0 0 0 4690
2019/07/27 03:11:00 BASE 24.80 104 29.12 108 -0.8 85 -3.1 0 0 964.6 NA 0.0000 UP 6000 0 0 0 5870
2019/07/27 03:12:00 BASE 22.82 105 29.12 108 -0.8 85 -3.0 0 0 964.6 NA 0.0000 UP 8000 0 0 0 3380
2019/07/27 03:13:00 BASE 20.52 107 29.12 108 -0.8 85 -2.9 0 0 964.7 NA 0.0000 UP 9000 0 0 0 4690
2019/07/27 03:14:00 BASE 19.79 110 29.12 108 -0.8 86 -2.9 0 0 964.6 NA 0.0000 UP 9999 0 0 0 4790
2019/07/27 03:15:00 BASE 21.70 109 29.12 108 -0.8 86 -2.8 0 0 964.5 NA 0.0000 UP 9999 0 0 0 6200
2019/07/27 03:16:00 BASE 22.97 108 29.12 108 -0.8 87 -2.8 0 0 964.6 NA 0.0000 UP BR 6000 0 0 0 2950
2019/07/27 03:17:00 BASE 22.80 110 29.12 108 -0.8 87 -2.7 0 0 964.5 NA 0.0000 UP BR 6000 0 0 0 2400
2019/07/27 03:18:00 BASE 21.57 113 29.12 108 -0.8 87 -2.7 0 0 964.4 NA 0.0000 UP BR 9999 0 0 0 2030
2019/07/27 03:19:00 BASE 19.97 111 29.12 108 -0.8 87 -2.6 0 0 964.5 NA 0.0000 UP BR 9999 0 0 0 1540
2019/07/27 03:20:00 BASE 21.61 111 26.55 107 -0.8 88 -2.6 0 0 964.4 NA 0.0000 UP BR 9999 5610 0 0 0
2019/07/27 03:21:00 BASE 23.26 115 26.55 107 -0.8 88 -2.5 0 0 964.3 NA 0.0000 UP BR 9000 6560 0 0 0
2019/07/27 03:22:00 BASE 23.13 114 26.55 107 -0.8 88 -2.5 0 0 964.4 NA 0.0000 UP BR 8000 0 0 0 1080
2019/07/27 03:23:00 BASE 22.17 113 26.55 107 -0.8 88 -2.5 0 0 964.5 NA 0.0000 UP BR 9999 6400 0 0 0
2019/07/27 03:24:00 BASE 19.28 113 26.55 107 -0.8 88 -2.4 0 0 964.5 NA 0.0000 UP BR 9999 6200 0 0 0
2019/07/27 03:25:00 BASE 18.13 114 26.55 107 -0.8 89 -2.4 0 0 964.5 NA 0.0000 UP BR 9999 5580 0 0 0
2019/07/27 03:26:00 BASE 17.92 116 26.39 113 -0.8 89 -2.4 0 0 964.5 NA 0.0000 UP 9999 5480 0 0 0
2019/07/27 03:27:00 BASE 17.93 115 26.39 113 -0.8 89 -2.4 0 0 964.4 NA 0.0000 UP 9999 5680 0 0 0
2019/07/27 03:28:00 BASE 18.48 111 26.39 113 -0.7 89 -2.3 0 0 964.4 NA 0.0000 UP 9999 5350 0 0 0
2019/07/27 03:29:00 BASE 17.93 109 26.39 113 -0.7 89 -2.3 0 0 964.4 NA 0.0000 UP 9999 5380 0 0 0
2019/07/27 03:30:00 BASE 16.93 108 26.39 113 -0.7 89 -2.3 0 0 964.5 NA 0.0000 UP 9999 5050 0 0 0
2019/07/27 03:31:00 BASE 16.86 107 26.39 113 -0.7 89 -2.3 0 0 964.4 NA 0.0000 UP 9999 4560 0 0 0
2019/07/27 03:32:00 BASE 17.06 109 22.58 113 -0.7 89 -2.3 0 0 964.4 NA 0.0000 UP 9999 4720 0 0 0
2019/07/27 03:33:00 BASE 16.71 112 20.68 109 -0.7 89 -2.3 0 0 964.3 NA 0.0000 UP 9999 4270 0 0 0
2019/07/27 03:34:00 BASE 16.20 110 20.68 109 -0.7 89 -2.3 0 0 964.4 NA 0.0000 9999 3870 0 0 0
2019/07/27 03:35:00 BASE 15.98 112 20.68 109 -0.7 89 -2.3 0 0 964.3 NA 0.0000 9999 3940 0 0 0
2019/07/27 03:36:00 BASE 14.57 113 20.68 109 -0.7 90 -2.2 0 0 964.4 NA 0.0000 9999 4100 0 0 0
2019/07/27 03:37:00 BASE 12.60 106 20.58 112 -0.8 90 -2.2 0 0 964.5 NA 0.0000 9999 4100 0 0 0
2019/07/27 03:38:00 BASE 11.61 99 20.58 112 -0.8 90 -2.2 0 0 964.5 NA 0.0000 9999 3970 0 0 0
2019/07/27 03:39:00 BASE 11.76 98 19.60 112 -0.7 90 -2.2 0 0 964.4 NA 0.0000 9999 0 0 0 3810
2019/07/27 03:40:00 BASE 12.99 98 19.60 112 -0.7 90 -2.1 0 0 964.3 NA 0.0000 9999 0 0 0 3670
2019/07/27 03:41:00 BASE 13.39 93 19.60 112 -0.6 90 -2.1 0 0 964.3 NA 0.0000 9999 0 0 0 3970
2019/07/27 03:42:00 BASE 14.38 92 20.58 89 -0.4 89 -2.1 0 0 964.2 NA 0.0000 9999 0 0 0 4070
2019/07/27 03:43:00 BASE 17.96 93 22.17 88 -0.3 87 -2.1 0 0 964.1 NA 0.0000 9999 0 0 0 4070
2019/07/27 03:44:00 BASE 20.14 86 23.77 82 -0.1 86 -2.2 0 0 964.1 NA 0.0000 9999 0 0 0 3840
2019/07/27 03:45:00 BASE 20.39 77 23.77 82 0.0 84 -2.4 0 0 964.1 NA 0.0000 UP 9999 0 0 0 3580
2019/07/27 03:46:00 BASE 21.24 77 24.64 84 0.1 83 -2.5 0 0 964.1 NA 0.0000 UP 9999 0 0 0 3640
2019/07/27 03:47:00 BASE 22.60 80 28.14 83 0.2 82 -2.5 0 0 964.0 NA 0.0000 UP 9999 0 0 0 3510
2019/07/27 03:48:00 BASE 24.72 83 28.55 87 0.2 83 -2.4 0 0 963.9 NA 0.0000 UP 8000 0 0 0 3450
2019/07/27 03:49:00 BASE 22.70 81 28.55 87 0.2 83 -2.4 0 0 964.0 NA 0.0000 UP 7000 0 0 0 3540
2019/07/27 03:50:00 BASE 19.98 74 28.55 87 0.1 84 -2.3 0 0 964.0 NA 0.0000 UP 8000 0 0 0 3740
2019/07/27 03:51:00 BASE 23.29 69 30.04 60 0.1 85 -2.2 0 0 963.7 NA 0.0000 UP 8000 0 0 0 3220
2019/07/27 03:52:00 BASE 27.20 68 30.04 60 0.1 85 -2.1 0 0 963.6 NA 0.0000 UP BR 6000 0 0 0 3080
2019/07/27 03:53:00 BASE 27.68 66 30.04 65 0.0 86 -2.0 0 0 963.6 NA 0.0000 UP BR 4000 0 0 0 2890
2019/07/27 03:54:00 BASE 27.90 64 33.64 66 0.0 86 -2.0 0 0 963.5 NA 0.0000 UP BR 3900 0 0 0 2360
2019/07/27 03:55:00 BASE 29.46 62 33.64 66 0.0 87 -1.9 0 0 963.4 NA 0.0000 UP BR 2400 0 0 0 2400
2019/07/27 03:56:00 BASE 31.22 60 34.31 57 0.0 88 -1.8 0 0 963.2 NA 0.0000 UP BR 1500 360 0 0 0
2019/07/27 03:57:00 BASE 32.15 60 34.52 63 -0.0 88 -1.7 0 0 963.1 NA 0.0000 UP BR 1200 0 0 0 2530
2019/07/27 03:58:00 BASE 32.49 60 36.83 59 -0.0 89 -1.7 0 0 963.0 NA 0.0000 UP BR 1200 0 0 0 2460
2019/07/27 03:59:00 BASE 32.41 59 37.30 61 -0.0 89 -1.6 0 0 963.0 NA 0.0000 UP BR 0800 0 0 0 2720
2019/07/27 04:00:00 BASE 32.44 59 37.30 61 -0.1 90 -1.5 0 0 962.9 NA 0.0000 UP BR 0800 0 0 0 2820
2019/07/27 04:01:00 BASE 33.84 60 38.58 62 -0.1 91 -1.5 0 0 962.8 NA 0.0000 UP BR 1100 0 0 0 2760
2019/07/27 04:03:04 BASE 34.60 61 38.58 62 -0.1 91 -1.4 0 0 962.8 NA 0.0000 UP BR 1400 0 0 0 2170
2019/07/27 04:04:04 BASE 34.25 61 38.58 62 -0.1 92 -1.3 0 0 962.9 NA 0.0000 UP BR 1400 0 0 0 2530
2019/07/27 04:05:04 BASE 34.17 60 38.58 62 -0.1 92 -1.3 0 0 962.9 NA 0.0000 UP BR 1900 0 0 0 3640
2019/07/27 04:06:05 BASE 33.30 60 38.58 62 -0.1 92 -1.3 0 0 962.9 NA 0.0000 UP BR 2300 0 0 0 4760
2019/07/27 04:07:04 BASE 31.59 58 38.58 62 -0.1 92 -1.2 0 0 963.0 NA 0.0000 -SN BR 2500 0 0 0 3380
2019/07/27 04:08:04 BASE 30.12 56 38.58 62 -0.1 92 -1.2 0 0 963.1 NA 0.0000 -SN BR 3000 0 0 0 3540
2019/07/27 04:09:04 BASE 30.68 54 38.58 62 -0.0 92 -1.2 0 0 963.0 NA 0.0000 -SN BR 3200 360 0 0 0
2019/07/27 04:10:04 BASE 32.59 52 38.58 62 -0.0 92 -1.2 0 0 962.9 NA 0.0000 -SN BR 2000 0 0 0 3250
2019/07/27 04:11:04 BASE 33.61 52 38.58 62 0.0 92 -1.1 0 0 962.9 NA 0.0000 -SN BR 1800 0 0 0 2890
2019/07/27 04:12:04 BASE 31.90 50 37.40 45 0.0 92 -1.1 0 0 963.0 NA 0.0000 -SN BR 2400 300 0 0 0
2019/07/27 04:13:04 BASE 30.86 51 37.40 45 0.1 92 -1.1 0 0 962.9 NA 0.0000 -SN BR 2800 300 0 0 0
2019/07/27 04:14:05 BASE 31.81 54 37.40 45 0.1 92 -1.1 0 0 962.9 NA 0.0000 -SN BR 1800 0 0 0 2760
2019/07/27 04:15:05 BASE 31.23 53 37.40 45 0.1 92 -1.1 0 0 962.9 NA 0.0000 -SN BR 1500 0 0 0 2400
2019/07/27 04:16:01 BASE 31.43 53 37.40 45 0.1 92 -1.1 0 0 962.9 NA 0.0000 -SN BR 1800 0 0 0 2460
2019/07/27 04:17:04 BASE 32.28 52 37.40 45 0.0 92 -1.1 0 0 962.9 NA 0.0000 -SN BR 1300 0 0 0 2530
2019/07/27 04:18:04 BASE 31.73 52 37.40 45 0.0 92 -1.1 0 0 963.0 NA 0.0000 -SN BR 1300 0 0 0 3870
2019/07/27 04:19:04 BASE 33.23 50 40.18 47 -0.0 92 -1.1 0 0 962.8 NA 0.0000 -SN BR 1100 0 0 0 4000
2019/07/27 04:20:04 BASE 33.28 46 40.18 47 0.0 93 -1.0 0 0 963.0 NA 0.0000 -SN BR 1400 0 0 0 1970
2019/07/27 04:21:04 BASE 30.87 47 40.18 47 0.0 93 -1.0 0 0 963.1 NA 0.0000 -SN BR 1600 0 0 0 2560
2019/07/27 04:22:04 BASE 30.89 51 40.18 47 0.0 93 -1.0 0 0 963.1 NA 0.0000 -SN BR 1300 0 0 0 2820
2019/07/27 04:23:04 BASE 30.17 52 40.18 47 0.0 93 -1.0 0 0 963.2 NA 0.0000 -SN BR 1300 0 0 0 3770
2019/07/27 04:24:04 BASE 28.55 50 40.18 47 0.0 93 -1.0 0 0 963.3 NA 0.0000 -SN BR 1500 0 0 0 3540
2019/07/27 04:25:04 BASE 28.21 48 40.18 47 0.0 93 -0.9 0 0 963.4 NA 0.0000 -SN BR 2500 0 0 0 3480
2019/07/27 04:26:04 BASE 28.47 46 40.18 47 0.0 93 -0.9 0 0 963.4 NA 0.0000 -SN BR 2000 0 0 0 3180
2019/07/27 04:27:04 BASE 27.43 45 40.18 47 0.0 94 -0.9 0 0 963.5 NA 0.0000 -SN BR 2200 0 0 0 3280
2019/07/27 04:28:04 BASE 26.44 47 40.18 47 0.0 94 -0.9 0 0 963.5 NA 0.0000 -SN BR 2800 0 0 0 2890
2019/07/27 04:29:04 BASE 27.54 47 35.86 52 0.0 94 -0.9 0 0 963.5 NA 0.0000 -SN BR 2100 0 0 0 2620
2019/07/27 04:30:04 BASE 28.18 45 35.86 52 0.0 94 -0.9 0 0 963.6 NA 0.0000 -SN BR 2700 260 0 0 0
2019/07/27 04:31:04 BASE 28.13 42 34.47 47 0.0 94 -0.9 0 0 963.6 NA 0.0000 -SN BR 3900 0 0 0 2200
2019/07/27 04:32:05 BASE 26.26 40 32.87 53 0.0 94 -0.9 0 0 963.8 NA 0.0000 -SN BR 3000 0 0 0 1710
2019/07/27 04:33:04 BASE 24.04 40 32.20 43 0.0 94 -0.9 0 0 963.9 NA 0.0000 -SN BR 2800 0 0 0 1480
2019/07/27 04:34:04 BASE 23.25 42 32.20 43 -0.0 94 -0.9 0 0 964.0 NA 0.0000 -SN BR 1500 0 0 0 1150
2019/07/27 04:35:04 BASE 23.70 42 32.20 43 -0.0 94 -0.9 0 0 964.0 NA 0.0000 -SN BR 1200 0 0 0 1350
2019/07/27 04:36:04 BASE 23.92 41 31.12 42 -0.1 94 -0.9 0 0 964.0 NA 0.0000 -SN BR 1100 0 0 0 1350
2019/07/27 04:37:05 BASE 24.14 40 31.12 42 -0.1 94 -0.9 0 0 963.9 NA 0.0000 -SN BR 1400 0 0 0 1280
2019/07/27 04:38:05 BASE 25.31 39 31.12 42 -0.1 95 -0.9 0 0 963.9 NA 0.0000 -SN BR 1600 0 0 0 1180
2019/07/27 04:39:07 BASE 25.59 40 31.12 42 -0.2 95 -0.9 0 0 963.9 NA 0.0000 -SN BR 1400 0 0 0 1020
2019/07/27 04:40:04 BASE 25.98 41 31.12 42 -0.2 95 -0.8 0 0 963.9 NA 0.0000 -SN BR 1300 0 0 0 1020
2019/07/27 04:41:04 BASE 26.50 43 30.92 37 -0.2 96 -0.8 0 0 963.9 NA 0.0000 -SN BR 1100 0 0 0 1120
2019/07/27 04:42:04 BASE 27.32 44 31.74 31 -0.2 96 -0.8 0 0 963.8 NA 0.0000 -SN BR 1000 0 0 0 1020
2019/07/27 04:43:04 BASE 28.47 44 33.23 44 -0.2 96 -0.7 0 0 963.8 NA 0.0000 -SN BR 1300 0 0 0 1020
2019/07/27 04:44:05 BASE 27.64 42 33.23 44 -0.3 97 -0.7 0 0 963.8 NA 0.0000 -SN BR 1400 0 0 0 1150
2019/07/27 04:45:05 BASE 27.28 43 33.23 44 -0.3 97 -0.7 0 0 963.8 NA 0.0000 -SN BR 1300 0 0 0 1180
2019/07/27 04:46:05 BASE 26.40 44 33.23 44 -0.3 97 -0.7 0 0 963.9 NA 0.0000 -SN BR 1300 0 0 0 1250
2019/07/27 04:47:04 BASE 25.81 41 33.23 44 -0.3 97 -0.7 0 0 963.9 NA 0.0000 -SN BR 1300 0 0 0 1280
2019/07/27 04:48:04 BASE 25.62 42 33.23 44 -0.4 98 -0.7 0 0 964.0 NA 0.0000 -SN BR 1100 0 0 0 1350
2019/07/27 04:49:04 BASE 25.35 42 33.23 44 -0.4 98 -0.7 0 0 964.0 NA 0.0000 -SN BR 1100 0 0 0 1250
2019/07/27 04:50:04 BASE 26.45 42 33.23 44 -0.4 98 -0.7 0 0 964.0 NA 0.0000 -SN BR 1000 0 0 0 1210
2019/07/27 04:51:04 BASE 27.44 43 33.23 44 -0.4 98 -0.7 0 0 963.9 NA 0.0000 -SN BR 1100 0 0 0 1180
2019/07/27 04:52:04 BASE 27.53 41 33.23 44 -0.5 99 -0.7 0 0 964.0 NA 0.0000 -SN BR 1100 0 0 0 1150
2019/07/27 04:53:04 BASE 26.66 42 32.20 44 -0.5 99 -0.6 0 0 964.1 NA 0.2540 -SN BR 1100 0 0 0 1150
2019/07/27 04:54:04 BASE 27.14 41 32.20 44 -0.5 99 -0.6 0 0 964.0 NA 0.0000 -SN BR 0900 0 0 0 1020
2019/07/27 04:55:04 BASE 26.96 39 31.84 40 -0.5 99 -0.6 0 0 964.2 NA 0.0000 -SN BR 0800 0 0 0 950
2019/07/27 04:56:04 BASE 24.71 37 31.84 40 -0.5 99 -0.6 0 0 964.3 NA 0.0000 +SN BR 0800 0 0 0 920
2019/07/27 04:57:05 BASE 22.60 35 31.54 34 -0.5 100 -0.6 0 0 964.4 NA 0.0000 +SN BR 0900 0 0 0 850
2019/07/27 04:58:05 BASE 22.66 36 31.54 34 -0.6 100 -0.6 0 0 964.4 NA 0.0000 +SN BR 0900 0 0 0 820
2019/07/27 04:59:04 BASE 23.35 38 31.54 34 -0.6 100 -0.6 0 0 964.4 NA 0.0000 +SN BR 0900 0 0 0 890
2019/07/27 05:00:04 BASE 22.66 35 31.54 34 -0.6 100 -0.6 0 0 964.5 NA 0.0000 +SN BR 1000 0 0 0 820
2019/07/27 05:01:04 BASE 24.09 33 32.26 24 -0.7 100 -0.7 0 0 964.3 NA 0.0000 +SN BR 1200 0 0 0 890
2019/07/27 05:02:04 BASE 23.91 32 32.26 24 -0.7 100 -0.7 0 0 964.5 NA 0.0000 +SN BR 1200 0 0 0 920
2019/07/27 05:03:04 BASE 21.40 30 32.26 24 -0.7 100 -0.7 0 0 964.5 NA 0.0000 +SN BR 1200 0 0 0 980
2019/07/27 05:04:05 BASE 21.98 26 32.26 24 -0.7 100 -0.7 0 0 964.5 NA 0.0000 +SN BR 1700 0 0 0 980
2019/07/27 05:05:04 BASE 23.65 24 32.26 24 -0.7 100 -0.7 0 0 964.5 NA 0.0000 -SN BR 2000 0 0 0 980
2019/07/27 05:06:04 BASE 25.12 26 32.26 24 -0.7 100 -0.7 0 0 964.5 NA 0.2540 -SN BR 2100 0 0 0 1080
2019/07/27 05:07:04 BASE 26.64 26 32.26 24 -0.7 100 -0.7 0 0 964.4 NA 0.0000 -SN BR 2200 0 0 0 1120
2019/07/27 05:08:04 BASE 28.51 23 33.54 23 -0.7 100 -0.7 0 0 964.3 NA 0.0000 -SN BR 1600 0 0 0 950
2019/07/27 05:09:04 BASE 30.26 22 33.54 23 -0.7 100 -0.7 0 0 964.3 NA 0.0000 -SN BR 1500 0 0 0 950
2019/07/27 05:10:04 BASE 30.77 21 33.54 23 -0.7 100 -0.7 0 0 964.3 NA 0.0000 -SN BR 3100 0 0 0 980
2019/07/27 05:11:04 BASE 30.04 20 33.54 23 -0.7 100 -0.7 0 0 964.4 NA 0.0000 -SN BR 9000 0 0 0 790
2019/07/27 05:12:04 BASE 30.18 19 33.54 23 -0.7 100 -0.7 0 0 964.3 NA 0.0000 -SN BR 9999 0 0 0 890
2019/07/27 05:13:04 BASE 29.66 17 33.54 23 -0.7 100 -0.7 0 0 964.4 NA 0.0000 -SN BR 9000 0 0 0 850
2019/07/27 05:14:05 BASE 28.75 17 33.54 23 -0.7 100 -0.7 0 0 964.4 NA 0.0000 -SN BR 7000 0 0 0 920
2019/07/27 05:15:05 BASE 30.56 19 34.83 20 -0.7 100 -0.7 0 0 964.4 NA 0.0000 -SN BR 2200 0 0 0 1250
2019/07/27 05:16:01 BASE 32.45 20 36.01 12 -0.7 100 -0.7 0 0 964.3 NA 0.0000 -SN BR 3900 0 0 0 1210
2019/07/27 05:17:05 BASE 33.48 19 38.22 15 -0.7 100 -0.7 0 0 964.3 NA 0.2540 -SN BR 9999 0 0 0 1180
2019/07/27 05:18:04 BASE 33.38 17 38.22 15 -0.7 100 -0.7 0 0 964.4 NA 0.0000 -SN BR 9999 0 0 0 1120
2019/07/27 05:19:05 BASE 34.77 12 39.41 8 -0.7 100 -0.7 0 0 964.2 NA 0.0000 -SN BR 9000 0 0 0 920
2019/07/27 05:20:04 BASE 36.44 6 39.41 8 -0.7 100 -0.7 0 0 964.3 NA 0.0000 -SN BR 9000 0 0 0 750
2019/07/27 05:21:04 BASE 33.71 2 39.41 8 -0.7 100 -0.7 0 0 964.7 NA 0.0000 -SN BR 8000 0 0 0 590
2019/07/27 05:22:04 BASE 28.19 360 39.41 8 -0.7 100 -0.7 0 0 965.0 NA 0.0000 -SN BR 9000 0 0 0 690
2019/07/27 05:23:04 BASE 24.10 356 39.41 8 -0.8 100 -0.8 0 0 965.1 NA 0.0000 -SN BR 9999 0 0 0 1020
2019/07/27 05:24:04 BASE 22.73 354 39.41 8 -0.8 100 -0.8 0 0 965.1 NA 0.0000 -SN BR 9999 0 0 0 980
2019/07/27 05:25:04 BASE 23.48 352 39.41 8 -0.9 100 -0.9 0 0 965.1 NA 0.0000 -SN BR 9999 0 0 0 1380
2019/07/27 05:26:04 BASE 23.97 349 39.41 8 -1.0 100 -1.0 0 0 965.1 NA 0.0000 -SN 9999 0 0 0 1210
2019/07/27 05:27:04 BASE 23.32 347 39.41 8 -1.1 100 -1.1 0 0 965.2 NA 0.0000 -SN 9999 0 0 0 1380
2019/07/27 05:28:04 BASE 23.28 345 39.41 8 -1.2 100 -1.2 0 0 965.3 NA 0.0000 -SN 9999 0 0 0 1610
2019/07/27 05:29:04 BASE 23.09 342 38.69 5 -1.3 100 -1.3 0 0 965.3 NA 0.0000 -SN 9999 0 0 0 1670
2019/07/27 05:30:04 BASE 22.39 341 33.08 2 -1.3 100 -1.3 0 0 965.4 NA 0.0000 -SN 9999 0 0 0 1670
2019/07/27 05:31:04 BASE 21.21 340 28.45 2 -1.4 100 -1.4 0 0 965.6 NA 0.0000 -SN 9999 0 0 0 1800
2019/07/27 05:32:05 BASE 19.90 337 27.27 346 -1.4 100 -1.4 0 0 965.6 NA 0.0000 9999 0 0 0 1800
2019/07/27 05:33:04 BASE 18.52 336 27.27 346 -1.4 100 -1.4 0 0 965.7 NA 0.0000 9999 0 0 0 1770
2019/07/27 05:34:05 BASE 17.67 337 27.27 346 -1.4 100 -1.4 0 0 965.7 NA 0.0000 9999 0 0 0 1510
2019/07/27 05:35:04 BASE 18.41 339 26.03 348 -1.5 100 -1.5 0 0 965.7 NA 0.0000 9999 0 0 0 1940
2019/07/27 05:36:04 BASE 17.93 340 26.03 348 -1.5 100 -1.5 0 0 965.8 NA 0.0000 9999 0 0 0 2000
2019/07/27 05:37:04 BASE 17.38 343 25.67 339 -1.5 100 -1.5 0 0 965.7 NA 0.0000 9999 0 0 0 2170
2019/07/27 05:38:04 BASE 17.77 344 25.67 339 -1.6 100 -1.6 0 0 965.8 NA 0.0000 9999 0 0 0 2460
2019/07/27 05:39:04 BASE 17.40 344 23.87 348 -1.6 100 -1.6 0 0 965.8 NA 0.0000 9999 0 0 0 2590
2019/07/27 05:40:03 BASE 16.39 344 21.66 338 -1.7 100 -1.7 0 0 965.9 NA 0.0000 9999 0 0 0 2460
2019/07/27 05:41:04 BASE 15.62 345 20.53 339 -1.7 100 -1.7 0 0 965.9 NA 0.0000 9999 0 0 0 2400
2019/07/27 05:42:04 BASE 14.73 346 20.06 337 -1.7 100 -1.7 0 0 966.0 NA 0.0000 9999 0 0 0 2330
2019/07/27 05:43:04 BASE 14.12 344 20.06 337 -1.7 100 -1.7 0 0 966.0 NA 0.0000 9999 0 0 0 2230
2019/07/27 05:44:04 BASE 14.44 346 20.06 337 -1.7 100 -1.7 0 0 966.1 NA 0.0000 9999 0 0 0 2170
2019/07/27 05:45:04 BASE 14.44 349 19.19 347 -1.7 100 -1.7 0 0 966.1 NA 0.0000 9999 0 0 0 2360
2019/07/27 05:46:04 BASE 15.37 350 19.19 347 -1.7 100 -1.7 0 0 966.0 NA 0.0000 9999 0 0 0 2760
2019/07/27 05:47:04 BASE 16.02 349 18.52 346 -1.7 100 -1.7 0 0 966.1 NA 0.0000 9999 0 0 0 2490
2019/07/27 05:48:04 BASE 15.38 348 17.85 344 -1.7 100 -1.7 0 0 966.0 NA 0.0000 9999 0 0 0 2530
2019/07/27 05:49:04 BASE 15.36 348 17.75 349 -1.7 100 -1.7 0 0 966.1 NA 0.0000 9999 0 0 0 2200
2019/07/27 05:50:03 BASE 15.08 350 17.75 349 -1.7 100 -1.7 0 0 966.1 NA 0.0000 9999 0 0 0 2170
2019/07/27 05:51:04 BASE 14.61 350 17.75 349 -1.7 100 -1.7 0 0 966.1 NA 0.0000 9999 0 0 0 2530
2019/07/27 05:52:05 BASE 14.29 347 17.75 349 -1.7 100 -1.7 0 0 966.2 NA 0.0000 9999 0 0 0 3080
2019/07/27 05:53:04 BASE 14.13 351 17.75 349 -1.7 100 -1.7 0 0 966.1 NA 0.0000 9999 230 0 0 0
2019/07/27 05:54:04 BASE 13.49 354 17.75 349 -1.7 100 -1.7 0 0 966.2 NA 0.0000 9999 0 0 0 4000
2019/07/27 05:55:04 BASE 12.65 356 17.75 349 -1.7 100 -1.7 0 0 966.2 NA 0.0000 9999 0 0 0 4000
2019/07/27 05:56:04 BASE 12.80 353 16.72 353 -1.7 100 -1.7 0 0 966.2 NA 0.0000 9999 0 0 0 3810
2019/07/27 05:57:04 BASE 13.10 343 16.72 353 -1.7 100 -1.7 0 0 966.3 NA 0.0000 9999 0 0 0 4070
2019/07/27 05:58:04 BASE 13.13 348 16.67 348 -1.7 100 -1.7 0 0 966.3 NA 0.0000 9999 0 0 0 4000
2019/07/27 05:59:04 BASE 13.04 357 16.10 346 -1.7 100 -1.7 0 0 966.4 NA 0.0000 9999 0 0 0 4040
2019/07/27 06:00:04 BASE 12.84 357 15.74 352 -1.7 100 -1.7 0 0 966.4 NA 0.0000 9999 0 0 0 3900
2019/07/27 06:01:04 BASE 12.46 354 15.74 352 -1.7 100 -1.7 0 0 966.4 NA 0.0000 9999 0 0 0 3900
2019/07/27 06:02:04 BASE 12.35 355 15.74 352 -1.6 100 -1.6 0 0 966.4 NA 0.0000 9999 0 0 0 3940
2019/07/27 06:03:04 BASE 12.52 357 15.18 355 -1.6 100 -1.6 0 0 966.5 NA 0.0000 9999 0 0 0 4330
2019/07/27 06:04:04 BASE 12.35 354 15.18 355 -1.6 100 -1.6 0 0 966.5 NA 0.0000 9999 0 0 0 4170
2019/07/27 06:05:03 BASE 11.59 358 15.18 355 -1.6 100 -1.6 0 0 966.5 NA 0.0000 9999 0 0 0 4490
2019/07/27 06:06:05 BASE 11.75 0 15.18 355 -1.6 100 -1.6 0 0 966.5 NA 0.0000 9999 360 0 0 0
2019/07/27 06:07:05 BASE 12.90 356 15.12 360 -1.6 100 -1.6 0 0 966.4 NA 0.0000 9999 330 0 0 0
2019/07/27 06:08:04 BASE 13.15 353 15.12 360 -1.5 100 -1.5 0 0 966.5 NA 0.0000 9999 260 2460 0 0
2019/07/27 06:09:04 BASE 13.08 353 15.38 3 -1.5 100 -1.5 0 0 966.5 NA 0.0000 9999 260 0 0 0
2019/07/27 06:10:03 BASE 13.49 352 15.74 350 -1.5 100 -1.5 0 0 966.5 NA 0.0000 9999 330 0 0 0
2019/07/27 06:11:04 BASE 13.75 351 15.74 350 -1.5 100 -1.5 0 0 966.5 NA 0.0000 UP 9999 260 0 0 0
2019/07/27 06:12:04 BASE 13.70 354 16.93 353 -1.5 100 -1.5 0 0 966.5 NA 0.0000 UP 9999 330 0 0 0
2019/07/27 06:13:04 BASE 15.46 352 20.89 346 -1.5 100 -1.5 0 0 966.4 NA 0.2540 UP 9999 1800 0 0 0
2019/07/27 06:14:04 BASE 17.13 351 20.89 346 -1.5 100 -1.5 0 0 966.4 NA 0.0000 UP 9999 1840 0 0 0
2019/07/27 06:15:04 BASE 16.85 353 20.89 346 -1.4 100 -1.4 0 0 966.4 NA 0.0000 UP 9999 2850 0 0 0
2019/07/27 06:16:01 BASE 16.93 351 20.89 346 -1.4 100 -1.4 0 0 966.4 NA 0.0000 UP 9999 1570 3120 0 0
2019/07/27 06:17:04 BASE 16.84 349 20.99 349 -1.3 100 -1.3 0 0 966.4 NA 0.0000 UP 9999 1480 0 0 0
2019/07/27 06:18:04 BASE 17.65 351 20.99 349 -1.3 100 -1.3 0 0 966.4 NA 0.0000 UP 9999 1670 0 0 0
2019/07/27 06:19:04 BASE 18.06 354 20.99 349 -1.2 100 -1.2 0 0 966.4 NA 0.0000 UP 9999 1610 0 0 0
2019/07/27 06:20:03 BASE 17.45 354 20.99 349 -1.2 100 -1.2 0 0 966.4 NA 0.0000 UP 9999 1970 0 0 0
2019/07/27 06:21:04 BASE 18.50 352 21.40 350 -1.1 100 -1.1 0 0 966.3 NA 0.0000 UP 9999 1840 0 0 0
2019/07/27 06:22:04 BASE 18.08 350 21.40 350 -1.1 100 -1.1 0 0 966.4 NA 0.0000 9999 1800 2560 0 0
2019/07/27 06:23:04 BASE 16.53 351 21.40 350 -1.1 100 -1.1 0 0 966.4 NA 0.0000 9999 1870 0 0 0
2019/07/27 06:24:04 BASE 17.19 352 21.40 350 -1.1 100 -1.1 0 0 966.4 NA 0.0000 9999 0 0 0 2560
2019/07/27 06:25:04 BASE 19.03 350 22.28 1 -1.1 100 -1.1 0 0 966.3 NA 0.0000 9999 3310 0 0 0
2019/07/27 06:26:04 BASE 20.57 352 23.10 346 -1.1 100 -1.1 0 0 966.3 NA 0.0000 9999 3280 0 0 0
2019/07/27 06:27:04 BASE 20.20 352 23.10 346 -1.1 100 -1.1 0 0 966.4 NA 0.0000 9999 0 0 0 1940
2019/07/27 06:28:03 BASE 19.82 352 23.10 346 -1.1 100 -1.1 0 0 966.3 NA 0.0000 9999 0 0 0 1540
2019/07/27 06:29:04 BASE 19.88 353 23.10 346 -1.1 100 -1.1 0 0 966.4 NA 0.0000 9999 3450 0 0 0
2019/07/27 06:30:04 BASE 18.95 356 23.10 346 -1.1 100 -1.1 0 0 966.4 NA 0.0000 9999 3480 0 0 0
2019/07/27 06:31:04 BASE 18.85 0 23.10 346 -1.1 100 -1.1 0 0 966.4 NA 0.0000 9999 3480 3900 0 0
2019/07/27 06:32:04 BASE 18.68 355 23.10 346 -1.1 100 -1.1 0 0 966.4 NA 0.0000 9999 11320 0 0 0
2019/07/27 06:33:04 BASE 17.80 354 23.10 346 -1.1 100 -1.1 0 0 966.4 NA 0.0000 9999 11220 0 0 0
2019/07/27 06:34:04 BASE 17.80 356 23.10 346 -1.1 100 -1.1 0 0 966.4 NA 0.0000 9999 0 0 0 1840
2019/07/27 06:35:04 BASE 18.67 357 23.10 346 -1.1 100 -1.1 0 0 966.4 NA 0.0000 9999 1800 0 0 0
2019/07/27 06:36:04 BASE 19.37 355 22.43 360 -1.1 100 -1.1 0 0 966.4 NA 0.0000 9999 11680 0 0 0
2019/07/27 06:37:04 BASE 19.14 357 22.43 360 -1.1 100 -1.1 0 0 966.4 NA 0.0000 9999 3580 0 0 0
2019/07/27 06:38:04 BASE 18.00 360 22.28 352 -1.1 100 -1.1 0 0 966.5 NA 0.0000 9999 11650 0 0 0
2019/07/27 06:39:04 BASE 18.25 352 23.41 346 -1.1 100 -1.1 0 0 966.4 NA 0.0000 9999 0 0 0 2200
2019/07/27 06:40:04 BASE 19.16 350 23.41 346 -1.1 100 -1.1 0 0 966.4 NA 0.0000 9999 0 0 0 1410
2019/07/27 06:41:04 BASE 19.84 353 23.41 346 -1.1 100 -1.1 0 0 966.4 NA 0.0000 9999 0 0 0 1180
2019/07/27 06:42:04 BASE 20.37 356 23.56 340 -1.1 100 -1.1 0 0 966.5 NA 0.0000 9999 12700 0 0 0
2019/07/27 06:43:01 BASE 20.02 354 23.56 340 -1.1 100 -1.1 0 0 966.5 NA 0.0000 9999 0 0 0 1350
2019/07/27 06:44:04 BASE 18.67 351 23.56 340 -1.1 100 -1.1 0 0 966.6 NA 0.0000 9999 11940 0 0 0
2019/07/27 06:45:04 BASE 17.60 350 23.56 340 -1.1 100 -1.1 0 0 966.6 NA 0.0000 9999 11910 0 0 0
2019/07/27 06:46:04 BASE 18.08 353 23.56 340 -1.1 100 -1.1 0 0 966.6 NA 0.0000 9999 11910 0 0 0
2019/07/27 06:47:04 BASE 18.82 360 23.56 340 -1.1 100 -1.1 0 0 966.6 NA 0.0000 9999 11940 0 0 0
2019/07/27 06:48:04 BASE 20.74 0 26.65 360 -1.1 100 -1.1 0 0 966.6 NA 0.0000 9999 11910 0 0 0
2019/07/27 06:49:04 BASE 21.08 358 26.65 360 -1.1 100 -1.1 0 0 966.6 NA 0.0000 9999 2200 12010 0 0
2019/07/27 06:50:01 BASE 19.19 357 26.65 360 -1.1 100 -1.1 0 0 966.7 NA 0.0000 9999 12140 0 0 0
2019/07/27 06:51:04 BASE 19.68 359 26.65 360 -1.1 100 -1.1 0 0 966.7 NA 0.0000 9999 12240 0 0 0
2019/07/27 06:52:04 BASE 20.03 355 26.65 360 -1.1 100 -1.1 0 0 966.7 NA 0.0000 9999 12370 0 0 0
2019/07/27 06:53:04 BASE 18.84 358 26.65 360 -1.1 100 -1.1 0 0 966.7 NA 0.0000 9999 0 0 0 2400
2019/07/27 06:54:05 BASE 18.80 4 26.65 360 -1.1 100 -1.1 0 0 966.8 NA 0.0000 9999 1970 0 0 0
2019/07/27 06:55:01 BASE 18.44 357 26.65 360 -1.1 100 -1.1 0 0 966.8 NA 0.0000 9999 2330 0 0 0
2019/07/27 06:56:04 BASE 18.96 353 26.65 360 -1.1 100 -1.1 0 0 966.7 NA 0.0000 9999 2000 0 0 0
2019/07/27 06:57:04 BASE 19.87 354 26.65 360 -1.2 100 -1.2 0 0 966.8 NA 0.0000 9999 2230 0 0 0
2019/07/27 06:58:01 BASE 19.58 356 25.10 353 -1.2 100 -1.2 0 0 966.8 NA 0.0000 9999 1840 2330 0 0
2019/07/27 06:59:04 BASE 19.82 354 25.10 353 -1.2 100 -1.2 0 0 966.8 NA 0.0000 9999 2690 0 0 0
2019/07/27 07:00:04 BASE 18.45 352 25.10 353 -1.2 100 -1.2 0 0 966.9 NA 0.0000 9999 2430 0 0 0
2019/07/27 07:01:04 BASE 17.30 354 25.10 353 -1.1 100 -1.2 0 0 966.9 NA 0.0000 9999 2400 4200 0 0
2019/07/27 07:02:04 BASE 17.51 352 25.10 353 -1.1 99 -1.2 0 0 967.0 NA 0.0000 9999 2330 4130 0 0
2019/07/27 07:03:05 BASE 18.47 349 25.10 353 -1.1 99 -1.2 0 0 966.9 NA 0.0000 9999 2000 2690 0 0
2019/07/27 07:04:05 BASE 19.28 352 25.10 353 -1.1 99 -1.2 0 0 966.9 NA 0.0000 9999 1970 2820 0 0
2019/07/27 07:05:04 BASE 19.00 356 25.10 353 -1.1 99 -1.3 0 0 966.9 NA 0.0000 9999 2760 0 0 0
2019/07/27 07:06:04 BASE 18.90 354 25.10 353 -1.1 99 -1.3 0 0 967.0 NA 0.0000 9999 2400 3510 0 0
2019/07/27 07:07:05 BASE 18.86 354 22.28 339 -1.1 98 -1.3 0 0 967.0 NA 0.0000 9999 3250 0 0 0
2019/07/27 07:08:04 BASE 19.50 353 22.28 339 -1.1 98 -1.3 0 0 967.0 NA 0.0000 9999 2560 3640 0 0
2019/07/27 07:09:04 BASE 19.69 351 22.28 339 -1.1 98 -1.4 0 0 967.1 NA 0.0000 9999 2430 0 0 0
2019/07/27 07:10:04 BASE 20.02 349 23.61 345 -1.1 98 -1.4 0 0 967.0 NA 0.0000 9999 2130 0 0 0
2019/07/27 07:11:04 BASE 20.34 346 23.61 345 -1.1 97 -1.5 0 0 967.0 NA 0.0000 9999 2330 0 0 0
2019/07/27 07:12:04 BASE 20.30 345 23.66 353 -1.1 97 -1.5 0 0 967.0 NA 0.0000 9999 2260 0 0 0
2019/07/27 07:13:01 BASE 20.80 347 23.66 353 -1.1 97 -1.6 0 0 967.1 NA 0.0000 9999 2300 3180 0 0
2019/07/27 07:14:05 BASE 20.59 354 23.66 353 -1.1 96 -1.6 0 0 967.1 NA 0.0000 9999 3020 3640 0 0
2019/07/27 07:15:06 BASE 19.86 354 23.66 353 -1.1 96 -1.6 0 0 967.1 NA 0.0000 9999 2230 2950 0 0
2019/07/27 07:16:01 BASE 19.16 350 23.66 353 -1.0 96 -1.7 0 0 967.2 NA 0.0000 9999 2130 2990 0 0
2019/07/27 07:17:04 BASE 18.75 350 23.66 353 -1.0 95 -1.7 0 0 967.2 NA 0.0000 9999 2400 3410 0 0
2019/07/27 07:18:05 BASE 18.18 350 23.66 353 -1.0 95 -1.7 0 0 967.2 NA 0.0000 9999 4330 0 0 0
2019/07/27 07:19:01 BASE 17.15 350 23.66 353 -1.0 95 -1.7 0 0 967.3 NA 0.0000 9999 2200 3020 0 0
2019/07/27 07:20:04 BASE 15.89 353 23.66 353 -1.1 95 -1.8 0 0 967.3 NA 0.0000 9999 2130 0 0 0
2019/07/27 07:21:04 BASE 16.05 352 23.66 353 -1.1 95 -1.8 0 0 967.3 NA 0.0000 9999 2100 0 0 0
2019/07/27 07:22:04 BASE 17.79 353 23.36 350 -1.1 95 -1.8 0 0 967.2 NA 0.0000 9999 2000 3670 0 0
2019/07/27 07:23:04 BASE 19.42 353 22.33 347 -1.1 95 -1.8 0 0 967.2 NA 0.0000 9999 1970 0 0 0
2019/07/27 07:24:04 BASE 18.72 349 22.33 347 -1.1 95 -1.8 0 0 967.3 NA 0.0000 9999 2000 0 0 0
2019/07/27 07:25:04 BASE 19.14 350 22.94 354 -1.1 95 -1.9 0 0 967.2 NA 0.0000 9999 2030 3670 0 0
2019/07/27 07:26:05 BASE 20.48 351 22.94 354 -1.1 94 -1.9 0 0 967.2 NA 0.0000 9999 1970 0 0 0
2019/07/27 07:27:05 BASE 19.55 349 22.94 354 -1.1 94 -1.9 0 0 967.3 NA 0.0000 9999 3540 4430 0 0
2019/07/27 07:28:04 BASE 18.96 351 22.94 354 -1.1 94 -2.0 0 0 967.3 NA 0.0000 9999 0 0 0 1440
2019/07/27 07:29:04 BASE 17.54 355 22.94 354 -1.1 94 -2.0 0 0 967.4 NA 0.0000 9999 3380 4950 0 0
2019/07/27 07:30:04 BASE 17.20 353 22.94 354 -1.1 93 -2.0 0 0 967.4 NA 0.0000 9999 4270 0 0 0
2019/07/27 07:31:04 BASE 18.11 349 22.94 354 -1.1 93 -2.1 0 0 967.4 NA 0.0000 9999 0 0 0 720
2019/07/27 07:32:04 BASE 18.02 351 22.94 354 -1.1 93 -2.2 0 0 967.4 NA 0.0000 9999 0 0 0 0
2019/07/27 07:33:05 BASE 18.01 351 22.94 354 -1.2 93 -2.2 0 0 967.5 NA 0.0000 9999 0 0 0 820
2019/07/27 07:34:01 BASE 18.78 351 22.94 354 -1.2 92 -2.3 0 0 967.5 NA 0.0000 9999 2130 0 0 0
2019/07/27 07:35:04 BASE 18.41 352 22.28 347 -1.2 92 -2.3 0 0 967.6 NA 0.0000 9999 2230 0 0 0
2019/07/27 07:36:04 BASE 17.64 348 21.56 355 -1.2 92 -2.3 0 0 967.6 NA 0.0000 9999 0 0 0 1150
2019/07/27 07:37:04 BASE 16.59 348 21.56 355 -1.2 92 -2.3 0 0 967.7 NA 0.0000 9999 0 0 0 890
2019/07/27 07:38:05 BASE 15.40 354 21.56 355 -1.2 92 -2.4 0 0 967.8 NA 0.0000 9999 3280 0 0 0
2019/07/27 07:39:04 BASE 14.55 352 21.56 355 -1.2 92 -2.4 0 0 967.7 NA 0.0000 9999 0 0 0 820
2019/07/27 07:40:04 BASE 14.21 352 21.56 355 -1.3 92 -2.4 0 0 967.7 NA 0.0000 9999 3280 0 0 0
2019/07/27 07:41:04 BASE 16.97 355 21.81 345 -1.3 92 -2.4 0 0 967.6 NA 0.0000 9999 3310 0 0 0
2019/07/27 07:42:04 BASE 18.56 355 21.81 345 -1.3 92 -2.5 0 0 967.6 NA 0.0000 9999 3280 0 0 0
2019/07/27 07:43:04 BASE 16.53 354 21.81 345 -1.3 92 -2.4 0 0 967.7 NA 0.0000 9999 3450 0 0 0
2019/07/27 07:44:04 BASE 15.78 350 21.81 345 -1.3 92 -2.5 0 0 967.7 NA 0.0000 9999 3220 0 0 0
2019/07/27 07:45:04 BASE 16.40 348 21.81 345 -1.3 92 -2.5 0 0 967.7 NA 0.0000 9999 3150 0 0 0
2019/07/27 07:46:04 BASE 16.11 350 21.81 345 -1.3 91 -2.5 0 0 967.7 NA 0.0000 9999 3380 0 0 0
2019/07/27 07:47:04 BASE 15.25 351 21.81 345 -1.3 91 -2.6 0 0 967.7 NA 0.0000 9999 3250 0 0 0
2019/07/27 07:48:04 BASE 15.64 353 21.81 345 -1.3 91 -2.6 0 0 967.7 NA 0.0000 9999 3220 0 0 0
2019/07/27 07:49:04 BASE 16.78 359 21.81 345 -1.3 90 -2.7 0 0 967.7 NA 0.0000 9999 3180 0 0 0
2019/07/27 07:50:04 BASE 16.69 353 21.81 345 -1.3 90 -2.7 0 0 967.7 NA 0.0000 9999 3310 0 0 0
2019/07/27 07:51:04 BASE 16.04 348 21.25 349 -1.3 90 -2.8 0 0 967.7 NA 0.0000 9999 3250 0 0 0
2019/07/27 07:52:04 BASE 15.72 349 21.25 349 -1.3 90 -2.8 0 0 967.8 NA 0.0000 9999 3310 0 0 0
2019/07/27 07:53:04 BASE 15.15 349 21.25 349 -1.3 89 -2.8 0 0 967.8 NA 0.0000 9999 3310 0 0 0
2019/07/27 07:54:05 BASE 14.86 354 21.25 349 -1.3 89 -2.9 0 0 967.9 NA 0.0000 9999 3350 0 0 0
2019/07/27 07:55:04 BASE 15.38 354 18.67 335 -1.4 89 -2.9 0 0 967.9 NA 0.0000 9999 3280 0 0 0
2019/07/27 07:56:05 BASE 15.12 352 18.67 335 -1.4 89 -2.9 0 0 967.9 NA 0.0000 9999 3280 0 0 0
2019/07/27 07:57:04 BASE 15.07 352 18.67 335 -1.4 89 -3.0 0 0 967.9 NA 0.0000 9999 3280 0 0 0
2019/07/27 07:58:01 BASE 15.78 354 18.67 335 -1.4 89 -3.0 0 0 967.9 NA 0.0000 9999 3380 0 0 0
2019/07/27 07:59:04 BASE 15.47 360 18.67 335 -1.4 89 -3.0 0 0 967.9 NA 0.0000 9999 3380 0 0 0
2019/07/27 08:00:04 BASE 14.54 358 18.67 335 -1.4 88 -3.1 0 0 967.9 NA 0.0000 9999 3450 0 0 0
2019/07/27 08:01:05 BASE 13.48 357 18.67 335 -1.4 88 -3.1 0 0 968.0 NA 0.0000 9999 3840 0 0 0
2019/07/27 08:02:04 BASE 13.54 359 18.67 335 -1.4 88 -3.1 0 0 967.9 NA 0.0000 9999 3810 0 0 0
2019/07/27 08:03:05 BASE 13.98 358 18.67 335 -1.4 88 -3.1 0 0 967.9 NA 0.0000 9999 3970 0 0 0
2019/07/27 08:04:05 BASE 13.77 358 18.67 335 -1.4 88 -3.1 0 0 967.9 NA 0.0000 9999 3640 0 0 0
2019/07/27 08:05:04 BASE 13.72 358 18.01 350 -1.4 88 -3.2 0 0 967.9 NA 0.0000 9999 3900 0 0 0
2019/07/27 08:06:05 BASE 14.56 356 18.01 350 -1.4 88 -3.2 0 0 967.9 NA 0.0000 9999 3840 0 0 0
2019/07/27 08:07:04 BASE 15.20 355 18.01 350 -1.5 88 -3.2 0 0 968.0 NA 0.0000 9999 3870 0 0 0
2019/07/27 08:08:04 BASE 15.48 355 17.75 352 -1.5 88 -3.2 0 0 967.9 NA 0.0000 9999 0 0 0 0
2019/07/27 08:09:04 BASE 15.66 354 17.75 352 -1.5 88 -3.2 0 0 968.0 NA 0.0000 9999 0 0 0 0
2019/07/27 08:10:04 BASE 15.40 357 17.75 352 -1.5 88 -3.3 0 0 968.0 NA 0.0000 9999 0 0 0 0
2019/07/27 08:11:06 BASE 14.93 356 17.75 352 -1.5 87 -3.3 0 0 968.0 NA 0.0000 9999 0 0 0 0
2019/07/27 08:12:05 BASE 14.62 355 17.75 352 -1.5 87 -3.4 0 0 968.0 NA 0.0000 9999 0 0 0 0
2019/07/27 08:13:04 BASE 14.57 358 17.75 352 -1.5 87 -3.4 0 0 968.1 NA 0.0000 9999 0 0 0 0
2019/07/27 08:14:05 BASE 15.00 1 17.75 352 -1.6 87 -3.4 0 0 968.0 NA 0.0000 9999 0 0 0 0
2019/07/27 08:15:07 BASE 16.60 4 19.14 2 -1.6 87 -3.5 0 0 967.9 NA 0.0000 9999 0 0 0 0
2019/07/27 08:16:05 BASE 17.69 5 19.14 5 -1.7 87 -3.5 0 0 967.9 NA 0.0000 9999 0 0 0 0
2019/07/27 08:17:05 BASE 18.47 7 20.17 9 -1.7 87 -3.6 0 0 967.9 NA 0.0000 9999 0 0 0 0
2019/07/27 08:18:05 BASE 18.98 8 20.68 10 -1.8 88 -3.6 0 0 967.9 NA 0.0000 9999 0 0 0 0
2019/07/27 08:19:04 BASE 19.24 8 20.68 10 -1.9 88 -3.6 0 0 967.9 NA 0.0000 9999 0 0 0 0
2019/07/27 08:20:05 BASE 19.07 8 20.68 10 -1.9 89 -3.5 0 0 967.9 NA 0.0000 9999 0 0 0 0
2019/07/27 08:21:05 BASE 18.75 8 20.68 10 -1.9 89 -3.5 0 0 967.9 NA 0.0000 9999 0 0 0 0
2019/07/27 08:22:05 BASE 18.50 8 20.68 10 -2.0 90 -3.4 0 0 967.9 NA 0.0000 9999 0 0 0 0
2019/07/27 08:23:01 BASE 18.77 9 21.25 7 -2.0 90 -3.4 0 0 967.9 NA 0.0000 9999 0 0 0 0
2019/07/27 08:24:05 BASE 18.99 9 21.25 7 -2.0 90 -3.3 0 0 967.9 NA 0.0000 9999 0 0 0 0
2019/07/27 08:25:04 BASE 18.73 8 21.25 7 -2.0 91 -3.3 0 0 968.0 NA 0.0000 9999 0 0 0 0
2019/07/27 08:26:05 BASE 19.06 9 21.25 7 -2.0 91 -3.3 0 0 968.0 NA 0.0000 9999 0 0 0 0
2019/07/27 08:27:05 BASE 18.77 10 21.25 7 -2.0 91 -3.3 0 0 968.0 NA 0.0000 9999 0 0 0 0
2019/07/27 08:28:01 BASE 18.69 9 21.66 4 -2.1 91 -3.3 0 0 968.0 NA 0.0000 9999 0 0 0 0
2019/07/27 08:29:03 BASE 18.40 8 21.66 4 -2.1 91 -3.4 0 0 968.0 NA 0.0000 9999 0 0 0 0
2019/07/27 08:30:03 BASE 18.96 9 22.02 3 -2.1 91 -3.4 0 0 967.9 NA 0.0000 9999 0 0 0 0
2019/07/27 08:31:04 BASE 19.69 9 22.02 3 -2.2 91 -3.4 0 0 967.9 NA 0.0000 9999 0 0 0 0
2019/07/27 08:32:04 BASE 18.96 11 22.02 3 -2.2 92 -3.4 0 0 967.9 NA 0.0000 9999 0 0 0 0
2019/07/27 08:33:04 BASE 18.89 12 22.02 3 -2.2 92 -3.4 0 0 968.0 NA 0.0000 9999 0 0 0 0
2019/07/27 08:34:04 BASE 18.96 11 22.02 3 -2.2 92 -3.4 0 0 968.0 NA 0.0000 9999 0 0 0 0
2019/07/27 08:35:04 BASE 18.82 12 22.02 3 -2.3 92 -3.3 0 0 968.0 NA 0.0000 9999 0 0 0 0
2019/07/27 08:36:04 BASE 18.89 12 22.02 3 -2.3 92 -3.3 0 0 967.9 NA 0.0000 9999 0 0 0 0
2019/07/27 08:37:04 BASE 18.86 11 22.02 3 -2.3 93 -3.3 0 0 967.9 NA 0.0000 9999 0 0 0 0
2019/07/27 08:38:04 BASE 19.31 12 22.02 3 -2.3 93 -3.3 0 0 967.9 NA 0.0000 9999 0 0 0 0
2019/07/27 08:39:03 BASE 19.52 12 22.02 3 -2.3 93 -3.3 0 0 967.9 NA 0.0000 9999 0 0 0 0
2019/07/27 08:40:04 BASE 18.95 10 20.99 11 -2.3 93 -3.3 0 0 968.0 NA 0.0000 9999 0 0 0 0
2019/07/27 08:41:05 BASE 18.69 11 20.83 10 -2.3 93 -3.2 0 0 968.0 NA 0.0000 9999 0 0 0 0
2019/07/27 08:42:05 BASE 18.75 12 20.83 10 -2.3 93 -3.2 0 0 968.0 NA 0.0000 9999 0 0 0 0
2019/07/27 08:43:01 BASE 19.52 13 21.04 16 -2.3 94 -3.2 0 0 967.9 NA 0.0000 9999 0 0 0 0
2019/07/27 08:44:04 BASE 20.21 12 22.17 13 -2.3 94 -3.2 0 0 968.0 NA 0.0000 9999 0 0 0 0
2019/07/27 08:45:04 BASE 20.22 12 22.17 13 -2.3 94 -3.1 0 0 968.0 NA 0.0000 9999 0 0 0 0
2019/07/27 08:46:04 BASE 20.17 11 22.17 13 -2.3 94 -3.1 0 0 968.0 NA 0.0000 9999 0 0 0 0
2019/07/27 08:47:04 BASE 20.11 9 22.17 13 -2.3 95 -3.1 0 0 968.1 NA 0.0000 9999 0 0 0 0
2019/07/27 08:48:04 BASE 19.97 10 22.17 13 -2.3 95 -3.0 0 0 968.1 NA 0.0000 9999 0 0 0 0
2019/07/27 08:49:05 BASE 19.48 11 22.17 13 -2.3 95 -3.0 0 0 968.2 NA 0.0000 9999 0 0 0 0
2019/07/27 08:50:04 BASE 18.97 11 22.17 13 -2.3 95 -3.0 0 0 968.2 NA 0.0000 9999 0 0 0 0
2019/07/27 08:51:03 BASE 19.18 11 22.17 13 -2.4 95 -3.1 0 0 968.2 NA 0.0000 9999 0 0 0 0
2019/07/27 08:52:04 BASE 19.53 12 22.17 13 -2.4 94 -3.2 0 0 968.2 NA 0.0000 9999 0 0 0 0
2019/07/27 08:53:04 BASE 19.34 12 22.17 13 -2.4 94 -3.2 0 0 968.2 NA 0.0000 9999 0 0 0 0
2019/07/27 08:54:04 BASE 18.79 12 21.56 3 -2.5 94 -3.3 0 0 968.3 NA 0.0000 9999 0 0 0 0
2019/07/27 08:55:03 BASE 18.39 11 21.40 11 -2.5 94 -3.3 0 0 968.3 NA 0.0000 9999 0 0 0 0
2019/07/27 08:56:04 BASE 18.48 11 21.40 11 -2.5 94 -3.3 0 0 968.3 NA 0.0000 9999 0 0 0 0
2019/07/27 08:57:04 BASE 18.49 11 21.40 11 -2.5 94 -3.3 0 0 968.3 NA 0.0000 9999 0 0 0 0
2019/07/27 08:58:04 BASE 18.40 11 21.40 11 -2.5 94 -3.3 0 0 968.3 NA 0.0000 9999 0 0 0 0
2019/07/27 08:59:04 BASE 18.68 12 21.40 11 -2.5 94 -3.4 0 0 968.3 NA 0.0000 9999 0 0 0 0
2019/07/27 09:00:04 BASE 18.99 11 21.40 11 -2.6 94 -3.4 0 0 968.3 NA 0.0000 9999 0 0 0 0
2019/07/27 09:01:03 BASE 19.10 11 21.09 10 -2.6 94 -3.4 0 0 968.3 NA 0.0000 9999 0 0 0 0
2019/07/27 09:02:04 BASE 19.48 11 20.89 12 -2.6 94 -3.4 0 0 968.3 NA 0.0000 9999 0 0 0 0
2019/07/27 09:03:04 BASE 19.55 11 20.89 12 -2.6 94 -3.4 0 0 968.3 NA 0.0000 9999 0 0 0 0
2019/07/27 09:04:05 BASE 19.19 12 21.25 11 -2.6 94 -3.4 0 0 968.4 NA 0.0000 9999 0 0 0 0
2019/07/27 09:05:04 BASE 18.76 12 21.25 11 -2.5 94 -3.4 0 0 968.4 NA 0.0000 9999 0 0 0 0
2019/07/27 09:06:05 BASE 18.91 13 21.50 13 -2.5 94 -3.4 0 0 968.4 NA 0.0000 9999 0 0 0 0
2019/07/27 09:07:04 BASE 19.13 13 21.50 13 -2.5 94 -3.4 0 0 968.5 NA 0.0000 9999 0 0 0 0
2019/07/27 09:08:05 BASE 18.87 14 21.50 13 -2.6 94 -3.5 0 0 968.5 NA 0.0000 9999 0 0 0 0
2019/07/27 09:09:01 BASE 18.64 13 21.50 13 -2.6 93 -3.5 0 0 968.5 NA 0.0000 9999 0 0 0 0
2019/07/27 09:10:04 BASE 18.99 14 21.50 13 -2.7 93 -3.6 0 0 968.5 NA 0.0000 9999 0 0 0 0
2019/07/27 09:11:04 BASE 19.73 16 21.50 13 -2.7 93 -3.6 0 0 968.5 NA 0.0000 9999 0 0 0 0
2019/07/27 09:12:05 BASE 20.02 16 21.50 14 -2.7 94 -3.6 0 0 968.5 NA 0.0000 9999 0 0 0 0
2019/07/27 09:13:01 BASE 20.21 16 21.92 19 -2.7 94 -3.6 0 0 968.5 NA 0.0000 9999 0 0 0 0
2019/07/27 09:14:05 BASE 20.03 14 21.92 19 -2.7 94 -3.5 0 0 968.6 NA 0.0000 9999 0 0 0 0
2019/07/27 09:15:05 BASE 19.99 14 21.92 9 -2.7 94 -3.5 0 0 968.5 NA 0.0000 9999 0 0 0 0
2019/07/27 09:16:01 BASE 19.83 13 21.92 9 -2.7 94 -3.6 0 0 968.6 NA 0.0000 9999 0 0 0 0
2019/07/27 09:17:05 BASE 19.33 11 21.92 9 -2.7 94 -3.6 0 0 968.6 NA 0.0000 9999 0 0 0 0
2019/07/27 09:18:05 BASE 19.34 10 21.92 9 -2.8 94 -3.6 0 0 968.6 NA 0.0000 9999 0 0 0 0
2019/07/27 09:19:01 BASE 19.72 11 21.92 9 -2.8 94 -3.6 0 0 968.6 NA 0.0000 9999 0 0 0 0
2019/07/27 09:20:04 BASE 19.49 10 21.92 9 -2.8 93 -3.7 0 0 968.6 NA 0.0000 9999 0 0 0 0
2019/07/27 09:21:04 BASE 19.22 8 21.92 9 -2.8 93 -3.7 0 0 968.7 NA 0.0000 9999 0 0 0 0
2019/07/27 09:22:05 BASE 19.21 8 21.92 9 -2.8 93 -3.7 0 0 968.7 NA 0.0000 9999 0 0 0 0
2019/07/27 09:23:04 BASE 18.41 9 21.92 9 -2.8 93 -3.7 0 0 968.7 NA 0.0000 9999 0 0 0 0
2019/07/27 09:24:05 BASE 18.38 10 21.92 9 -2.8 93 -3.8 0 0 968.6 NA 0.0000 9999 0 0 0 0
2019/07/27 09:25:04 BASE 18.65 10 21.20 1 -2.8 93 -3.8 0 0 968.7 NA 0.0000 9999 0 0 0 0
2019/07/27 09:26:04 BASE 17.97 11 21.20 1 -2.8 93 -3.8 0 0 968.7 NA 0.0000 9999 0 0 0 0
2019/07/27 09:27:04 BASE 17.59 10 21.20 1 -2.8 93 -3.8 0 0 968.7 NA 0.0000 9999 0 0 0 0
2019/07/27 09:28:04 BASE 18.24 12 21.20 1 -2.8 93 -3.8 0 0 968.6 NA 0.0000 9999 0 0 0 0
2019/07/27 09:29:04 BASE 18.77 14 21.20 1 -2.8 93 -3.8 0 0 968.6 NA 0.0000 9999 0 0 0 0
2019/07/27 09:30:03 BASE 18.83 12 21.14 5 -2.8 93 -3.7 0 0 968.6 NA 0.0000 9999 0 0 0 0
2019/07/27 09:31:04 BASE 19.33 14 21.09 10 -2.8 93 -3.7 0 0 968.6 NA 0.0000 9999 0 0 0 0
2019/07/27 09:32:04 BASE 19.74 15 21.09 10 -2.7 93 -3.7 0 0 968.6 NA 0.0000 9999 0 0 0 0
2019/07/27 09:33:04 BASE 19.95 14 21.40 9 -2.7 93 -3.6 0 0 968.6 NA 0.0000 9999 0 0 0 0
2019/07/27 09:34:04 BASE 20.13 15 21.40 9 -2.7 93 -3.6 0 0 968.6 NA 0.0000 9999 0 0 0 0
2019/07/27 09:35:04 BASE 19.83 15 21.40 9 -2.7 93 -3.6 0 0 968.6 NA 0.0000 9999 0 0 0 0
2019/07/27 09:36:05 BASE 19.25 14 21.40 9 -2.7 93 -3.6 0 0 968.7 NA 0.0000 9999 0 0 0 0
2019/07/27 09:37:04 BASE 19.00 15 21.40 9 -2.7 93 -3.6 0 0 968.7 NA 0.0000 9999 0 0 0 0
2019/07/27 09:38:04 BASE 19.20 14 21.40 9 -2.7 93 -3.7 0 0 968.6 NA 0.0000 9999 0 0 0 0
2019/07/27 09:39:04 BASE 19.01 12 21.40 9 -2.7 93 -3.7 0 0 968.6 NA 0.0000 9999 0 0 0 0
2019/07/27 09:40:04 BASE 18.22 13 21.40 9 -2.7 93 -3.7 0 0 968.7 NA 0.0000 9999 0 0 0 0
2019/07/27 09:41:03 BASE 18.00 12 21.40 9 -2.7 93 -3.7 0 0 968.7 NA 0.0000 9999 0 0 0 0
2019/07/27 09:42:04 BASE 18.36 8 21.40 9 -2.7 93 -3.6 0 0 968.7 NA 0.0000 9999 0 0 0 0
2019/07/27 09:43:04 BASE 18.62 8 21.04 10 -2.7 93 -3.6 0 0 968.7 NA 0.0000 9999 0 0 0 0
2019/07/27 09:44:04 BASE 18.16 10 21.04 10 -2.7 94 -3.6 0 0 968.7 NA 0.0000 9999 0 0 0 0
2019/07/27 09:45:04 BASE 17.58 8 20.63 10 -2.6 94 -3.5 0 0 968.7 NA 0.0000 9999 0 0 0 0
2019/07/27 09:46:05 BASE 16.99 7 20.37 16 -2.6 94 -3.5 0 0 968.7 NA 0.0000 9999 0 0 0 0
2019/07/27 09:47:05 BASE 16.62 8 20.37 16 -2.6 94 -3.5 0 0 968.7 NA 0.0000 9999 0 0 0 0
2019/07/27 09:48:05 BASE 16.82 7 20.37 16 -2.6 93 -3.6 0 0 968.8 NA 0.0000 9999 0 0 0 0
2019/07/27 09:49:05 BASE 17.29 8 20.37 16 -2.7 93 -3.6 0 0 968.8 NA 0.0000 9999 0 0 0 0
2019/07/27 09:50:04 BASE 17.53 8 20.37 16 -2.7 93 -3.6 0 0 968.8 NA 0.0000 9999 0 0 0 0
2019/07/27 09:51:05 BASE 16.86 8 20.37 16 -2.7 94 -3.5 0 0 968.8 NA 0.0000 9999 0 0 0 0
2019/07/27 09:52:01 BASE 16.33 7 20.37 16 -2.6 94 -3.5 0 0 968.8 NA 0.0000 9999 0 0 0 0
2019/07/27 09:53:04 BASE 16.09 6 18.98 8 -2.6 94 -3.5 0 0 968.8 NA 0.0000 9999 0 0 0 0
2019/07/27 09:54:04 BASE 16.01 7 18.98 8 -2.6 94 -3.5 0 0 968.8 NA 0.0000 9999 0 0 0 0
2019/07/27 09:55:04 BASE 16.44 7 18.57 6 -2.6 94 -3.5 0 0 968.8 NA 0.0000 9999 0 0 0 0
2019/07/27 09:56:05 BASE 16.27 9 18.42 12 -2.6 94 -3.5 0 0 968.8 NA 0.0000 9999 0 0 0 0
2019/07/27 09:57:04 BASE 15.65 10 18.42 12 -2.6 94 -3.4 0 0 968.8 NA 0.0000 9999 0 0 0 0
2019/07/27 09:58:04 BASE 15.95 10 18.42 12 -2.5 94 -3.4 0 0 968.8 NA 0.0000 9999 14470 0 0 0
2019/07/27 09:59:04 BASE 16.05 10 18.42 12 -2.5 94 -3.4 0 0 968.7 NA 0.0000 9999 14140 0 0 0
2019/07/27 10:00:04 BASE 15.97 13 17.95 10 -2.5 94 -3.3 0 0 968.7 NA 0.0000 9999 14170 0 0 0
2019/07/27 10:01:03 BASE 16.64 13 17.95 10 -2.5 94 -3.3 0 0 968.7 NA 0.0000 9999 14110 0 0 0
2019/07/27 10:02:05 BASE 16.82 13 17.95 8 -2.5 94 -3.3 0 0 968.7 NA 0.0000 9999 13750 0 0 0
2019/07/27 10:03:01 BASE 17.07 14 18.67 19 -2.4 94 -3.3 0 0 968.6 NA 0.0000 9999 13680 0 0 0
2019/07/27 10:04:04 BASE 17.83 14 19.60 11 -2.4 94 -3.3 0 0 968.6 NA 0.0000 9999 13480 0 0 0
2019/07/27 10:05:04 BASE 18.01 13 19.60 11 -2.4 94 -3.2 0 0 968.6 NA 0.0000 9999 13030 0 0 0
2019/07/27 10:06:04 BASE 17.54 14 19.60 11 -2.4 94 -3.2 0 0 968.6 NA 0.0000 9999 12760 0 0 0
2019/07/27 10:07:04 BASE 17.60 15 19.60 11 -2.4 94 -3.2 0 0 968.6 NA 0.0000 9999 12530 0 0 0
2019/07/27 10:08:04 BASE 17.73 16 19.60 11 -2.4 94 -3.2 0 0 968.6 NA 0.0000 9999 12300 0 0 0
2019/07/27 10:09:04 BASE 17.58 15 19.60 11 -2.4 94 -3.2 0 0 968.6 NA 0.0000 9999 12500 0 0 0
2019/07/27 10:10:04 BASE 17.64 14 19.60 11 -2.4 94 -3.2 0 0 968.7 NA 0.0000 9999 12170 0 0 0
2019/07/27 10:11:04 BASE 17.29 15 19.60 11 -2.3 94 -3.2 0 0 968.7 NA 0.0000 9999 11420 0 0 0
2019/07/27 10:12:04 BASE 16.99 15 19.60 11 -2.3 94 -3.2 0 0 968.7 NA 0.0000 9999 11940 0 0 0
2019/07/27 10:13:04 BASE 16.70 15 19.60 11 -2.3 94 -3.2 0 0 968.7 NA 0.0000 9999 12110 0 0 0
2019/07/27 10:14:04 BASE 16.22 15 19.03 13 -2.3 94 -3.2 0 0 968.7 NA 0.0000 9999 0 0 0 0
2019/07/27 10:15:05 BASE 16.64 15 18.88 11 -2.3 93 -3.2 0 0 968.6 NA 0.0000 9999 0 0 0 0
2019/07/27 10:16:01 BASE 17.15 16 18.88 11 -2.3 93 -3.3 0 0 968.7 NA 0.0000 9999 0 0 0 0
2019/07/27 10:17:04 BASE 16.67 15 18.88 11 -2.3 93 -3.3 0 0 968.7 NA 0.0000 9999 0 0 0 0
2019/07/27 10:18:04 BASE 16.48 17 18.88 11 -2.3 93 -3.3 0 0 968.7 NA 0.0000 9999 0 0 0 0
2019/07/27 10:19:04 BASE 17.03 17 18.88 11 -2.3 93 -3.2 0 0 968.6 NA 0.0000 9999 0 0 0 0
2019/07/27 10:20:03 BASE 17.34 17 18.88 11 -2.3 93 -3.2 0 0 968.7 NA 0.0000 9999 0 0 0 0
2019/07/27 10:21:04 BASE 17.21 18 18.73 17 -2.2 94 -3.1 0 0 968.7 NA 0.0000 9999 3870 0 0 0
2019/07/27 10:22:04 BASE 16.79 17 18.73 17 -2.2 94 -3.1 0 0 968.7 NA 0.0000 9999 0 0 0 0
2019/07/27 10:23:05 BASE 16.42 17 18.73 17 -2.2 94 -3.1 0 0 968.7 NA 0.0000 9999 3580 0 0 0
2019/07/27 10:24:05 BASE 16.04 18 18.73 17 -2.2 94 -3.1 0 0 968.7 NA 0.0000 9999 0 0 0 0
2019/07/27 10:25:01 BASE 16.07 19 18.73 17 -2.2 93 -3.1 0 0 968.7 NA 0.0000 9999 0 0 0 0
2019/07/27 10:26:04 BASE 16.52 18 18.73 17 -2.2 93 -3.2 0 0 968.6 NA 0.0000 9999 0 0 0 0
2019/07/27 10:27:04 BASE 16.40 16 18.73 17 -2.2 93 -3.2 0 0 968.7 NA 0.0000 9999 11220 0 0 0
2019/07/27 10:28:04 BASE 15.87 16 18.73 17 -2.2 93 -3.1 0 0 968.6 NA 0.0000 9999 3510 0 0 0
2019/07/27 10:29:04 BASE 15.60 17 18.73 17 -2.1 93 -3.1 0 0 968.6 NA 0.0000 9999 10560 0 0 0
2019/07/27 10:30:04 BASE 15.61 16 18.31 17 -2.1 93 -3.2 0 0 968.6 NA 0.0000 9999 10400 0 0 0
2019/07/27 10:31:05 BASE 15.66 16 18.31 17 -2.1 92 -3.2 0 0 968.6 NA 0.0000 9999 4040 0 0 0
2019/07/27 10:32:04 BASE 15.47 18 18.11 17 -2.1 92 -3.2 0 0 968.6 NA 0.0000 9999 10040 0 0 0
2019/07/27 10:33:04 BASE 15.16 19 18.11 17 -2.1 92 -3.2 0 0 968.6 NA 0.0000 9999 9710 0 0 0
2019/07/27 10:34:04 BASE 15.28 17 18.11 17 -2.1 92 -3.3 0 0 968.6 NA 0.0000 9999 5050 0 0 0
2019/07/27 10:35:04 BASE 15.44 17 18.11 17 -2.1 92 -3.3 0 0 968.6 NA 0.0000 9999 4230 0 0 0
2019/07/27 10:36:03 BASE 15.39 16 16.87 18 -2.1 91 -3.3 0 0 968.6 NA 0.0000 9999 3840 0 0 0
2019/07/27 10:37:04 BASE 15.72 14 16.87 18 -2.1 91 -3.4 0 0 968.6 NA 0.0000 9999 3640 0 0 0
2019/07/27 10:38:04 BASE 15.61 13 16.67 14 -2.1 91 -3.4 0 0 968.6 NA 0.0000 9999 3670 0 0 0
2019/07/27 10:39:04 BASE 15.63 16 16.98 24 -2.1 90 -3.4 0 0 968.6 NA 0.0000 9999 3740 0 0 0
2019/07/27 10:40:04 BASE 15.20 18 16.98 24 -2.0 90 -3.5 0 0 968.6 NA 0.0000 9999 3180 0 0 0
2019/07/27 10:41:04 BASE 14.74 14 16.98 24 -2.0 90 -3.5 0 0 968.6 NA 0.0000 9999 3580 0 0 0
2019/07/27 10:42:04 BASE 15.05 13 16.98 24 -2.0 89 -3.5 0 0 968.6 NA 0.0000 9999 3580 0 0 0
2019/07/27 10:43:04 BASE 15.18 16 16.98 24 -2.0 89 -3.6 0 0 968.5 NA 0.0000 9999 3450 3940 0 0
2019/07/27 10:44:04 BASE 15.21 16 16.98 24 -2.0 89 -3.6 0 0 968.5 NA 0.0000 9999 3740 0 0 0
2019/07/27 10:45:04 BASE 14.40 15 16.98 24 -2.0 88 -3.7 0 0 968.5 NA 0.0000 9999 3540 4070 0 0
2019/07/27 10:46:05 BASE 14.00 15 16.98 24 -2.0 88 -3.7 0 0 968.5 NA 0.0000 9999 3450 0 0 0
2019/07/27 10:47:04 BASE 14.24 15 16.98 24 -2.0 88 -3.7 0 0 968.5 NA 0.0000 9999 3510 0 0 0
2019/07/27 10:48:04 BASE 14.62 14 16.98 24 -2.0 88 -3.7 0 0 968.5 NA 0.0000 9999 3710 0 0 0
2019/07/27 10:49:04 BASE 14.89 14 16.46 18 -2.0 88 -3.7 0 0 968.5 NA 0.0000 9999 6040 0 0 0
2019/07/27 10:50:03 BASE 14.51 13 16.46 18 -2.0 88 -3.7 0 0 968.5 NA 0.0000 9999 3940 0 0 0
2019/07/27 10:51:03 BASE 14.23 13 16.46 18 -2.0 88 -3.7 0 0 968.5 NA 0.0000 9999 6330 0 0 0
2019/07/27 10:52:05 BASE 14.02 13 16.46 18 -2.0 88 -3.7 0 0 968.5 NA 0.0000 9999 6200 0 0 0
2019/07/27 10:53:04 BASE 13.69 11 16.20 18 -2.0 88 -3.7 0 0 968.5 NA 0.0000 9999 5770 0 0 0
2019/07/27 10:54:04 BASE 14.09 13 16.72 11 -2.0 88 -3.7 0 0 968.4 NA 0.0000 9999 5380 0 0 0
2019/07/27 10:55:03 BASE 14.37 16 16.72 11 -2.0 89 -3.7 0 0 968.4 NA 0.0000 9999 5120 0 0 0
2019/07/27 10:56:03 BASE 13.86 15 16.72 11 -2.1 89 -3.7 0 0 968.4 NA 0.0000 9999 5150 0 0 0
2019/07/27 10:57:03 BASE 13.69 14 16.72 11 -2.1 89 -3.7 0 0 968.4 NA 0.0000 9999 5150 0 0 0
2019/07/27 10:58:03 BASE 14.16 13 16.72 11 -2.1 89 -3.7 0 0 968.3 NA 0.0000 9999 4270 0 0 0
2019/07/27 10:59:03 BASE 15.06 14 17.08 12 -2.1 89 -3.7 0 0 968.3 NA 0.0000 9999 4200 0 0 0
2019/07/27 11:00:04 BASE 15.38 14 17.08 12 -2.1 89 -3.6 0 0 968.3 NA 0.0000 9999 4300 0 0 0
2019/07/27 11:01:04 BASE 15.24 12 17.08 12 -2.1 90 -3.6 0 0 968.3 NA 0.0000 9999 3810 0 0 0
2019/07/27 11:02:04 BASE 15.37 11 17.08 12 -2.1 90 -3.5 0 0 968.3 NA 0.0000 9999 4100 0 0 0
2019/07/27 11:03:04 BASE 15.43 9 17.08 12 -2.0 90 -3.5 0 0 968.3 NA 0.0000 9999 4430 0 0 0
2019/07/27 11:04:04 BASE 15.25 10 17.08 12 -2.0 90 -3.4 0 0 968.3 NA 0.0000 9999 4400 0 0 0
2019/07/27 11:05:04 BASE 15.13 13 17.08 12 -2.0 90 -3.4 0 0 968.3 NA 0.0000 9999 3380 0 0 0
2019/07/27 11:06:04 BASE 14.87 14 17.08 12 -1.9 90 -3.4 0 0 968.3 NA 0.0000 9999 0 0 0 3540
2019/07/27 11:07:04 BASE 14.41 14 17.08 12 -1.9 90 -3.3 0 0 968.3 NA 0.0000 9999 3150 0 0 0
2019/07/27 11:08:04 BASE 14.02 14 17.08 12 -1.9 90 -3.3 0 0 968.3 NA 0.0000 9999 1310 0 0 0
2019/07/27 11:09:04 BASE 14.30 16 16.87 10 -1.9 90 -3.4 0 0 968.3 NA 0.0000 9999 3080 0 0 0
2019/07/27 11:10:04 BASE 14.86 15 16.87 10 -2.0 90 -3.3 0 0 968.2 NA 0.0000 9999 2030 0 0 0
2019/07/27 11:11:04 BASE 14.63 12 16.87 10 -2.0 90 -3.3 0 0 968.3 NA 0.0000 9999 0 0 0 3410
2019/07/27 11:12:04 BASE 13.80 11 16.57 11 -2.0 91 -3.3 0 0 968.3 NA 0.0000 9999 3640 0 0 0
2019/07/27 11:13:04 BASE 13.31 10 16.57 11 -2.0 91 -3.3 0 0 968.3 NA 0.0000 9999 3310 0 0 0
2019/07/27 11:14:04 BASE 13.46 10 16.46 11 -2.0 91 -3.3 0 0 968.3 NA 0.0000 9999 2100 0 0 0
2019/07/27 11:15:04 BASE 13.03 10 16.46 11 -2.0 91 -3.2 0 0 968.3 NA 0.0000 9999 3540 0 0 0
2019/07/27 11:16:01 BASE 12.69 10 16.00 14 -2.0 91 -3.2 0 0 968.3 NA 0.0000 9999 3150 0 0 0
2019/07/27 11:17:03 BASE 13.69 9 16.00 14 -2.0 92 -3.2 0 0 968.2 NA 0.0000 9999 1970 0 0 0
2019/07/27 11:18:05 BASE 13.99 1 16.00 14 -2.0 92 -3.2 0 0 968.3 NA 0.0000 9999 0 0 0 3970
2019/07/27 11:19:04 BASE 13.58 354 16.00 14 -2.0 92 -3.2 0 0 968.3 NA 0.0000 9999 0 0 0 4040
2019/07/27 11:20:04 BASE 13.02 359 15.07 6 -2.1 92 -3.2 0 0 968.3 NA 0.0000 9999 0 0 0 4560
2019/07/27 11:21:04 BASE 11.98 3 15.07 6 -2.1 92 -3.2 0 0 968.4 NA 0.0000 9999 0 0 0 4860
2019/07/27 11:22:04 BASE 11.41 3 15.07 6 -2.1 92 -3.2 0 0 968.4 NA 0.0000 9999 0 0 0 5480
2019/07/27 11:23:04 BASE 11.02 2 15.07 6 -2.1 92 -3.3 0 0 968.4 NA 0.0000 9999 0 0 0 5410
2019/07/27 11:24:05 BASE 10.25 1 15.07 6 -2.1 91 -3.3 0 0 968.4 NA 0.0000 9999 0 0 0 5480
2019/07/27 11:25:04 BASE 10.03 358 15.07 6 -2.1 91 -3.3 0 0 968.3 NA 0.0000 9999 0 0 0 5970
2019/07/27 11:26:04 BASE 10.43 354 15.07 6 -2.1 91 -3.4 0 0 968.3 NA 0.0000 9999 0 0 0 1150
2019/07/27 11:27:04 BASE 11.12 353 14.56 360 -2.0 90 -3.4 0 0 968.3 NA 0.0000 9999 4950 0 0 0
2019/07/27 11:28:04 BASE 11.77 353 14.51 5 -2.0 90 -3.5 0 0 968.3 NA 0.0000 9999 4760 0 0 0
2019/07/27 11:29:04 BASE 12.15 353 14.35 2 -2.0 89 -3.6 0 0 968.3 NA 0.0000 9999 4560 0 0 0
2019/07/27 11:30:03 BASE 13.15 357 14.71 3 -2.0 88 -3.6 0 0 968.3 NA 0.0000 9999 4200 0 0 0
2019/07/27 11:31:04 BASE 13.62 2 14.71 3 -2.0 88 -3.7 0 0 968.3 NA 0.0000 9999 4130 0 0 0
2019/07/27 11:32:05 BASE 12.88 4 14.71 3 -2.0 87 -3.8 0 0 968.3 NA 0.0000 9999 4130 0 0 0
2019/07/27 11:33:04 BASE 12.13 4 14.71 3 -2.0 87 -3.8 0 0 968.4 NA 0.0000 9999 0 0 0 720
2019/07/27 11:34:04 BASE 10.95 4 14.71 3 -2.0 87 -3.8 0 0 968.4 NA 0.0000 9999 3840 0 0 0
2019/07/27 11:35:04 BASE 10.12 359 14.71 3 -2.0 88 -3.8 0 0 968.4 NA 0.0000 9999 3640 0 0 0
2019/07/27 11:36:05 BASE 10.27 353 14.71 3 -2.0 88 -3.8 0 0 968.4 NA 0.0000 9999 3220 0 0 0
2019/07/27 11:37:04 BASE 10.79 355 14.71 3 -2.0 88 -3.8 0 0 968.4 NA 0.0000 9999 0 0 0 3510
2019/07/27 11:38:04 BASE 10.84 360 14.71 3 -2.1 88 -3.8 0 0 968.4 NA 0.0000 9999 0 0 0 3410
2019/07/27 11:39:04 BASE 10.83 360 14.71 3 -2.1 88 -3.8 0 0 968.4 NA 0.0000 9999 0 0 0 3180
2019/07/27 11:40:04 BASE 10.97 2 13.74 3 -2.1 89 -3.7 0 0 968.4 NA 0.0000 9999 0 0 0 2920
2019/07/27 11:41:04 BASE 10.37 5 13.63 1 -2.2 89 -3.7 0 0 968.5 NA 0.0000 9999 0 0 0 2360
2019/07/27 11:42:04 BASE 9.69 359 12.71 4 -2.2 90 -3.7 0 0 968.5 NA 0.0000 9999 360 0 0 0
2019/07/27 11:43:04 BASE 9.93 356 12.30 360 -2.3 90 -3.6 0 0 968.5 NA 0.0000 9999 360 0 0 0
2019/07/27 11:44:04 BASE 10.49 359 12.30 360 -2.3 91 -3.6 0 0 968.5 NA 0.0000 9999 0 0 0 2230
2019/07/27 11:45:04 BASE 10.05 356 12.30 360 -2.4 91 -3.6 0 0 968.6 NA 0.0000 9999 0 0 0 1940
2019/07/27 11:46:04 BASE 9.06 356 12.30 360 -2.5 92 -3.6 0 0 968.6 NA 0.0000 9999 0 0 0 1900
2019/07/27 11:47:05 BASE 8.70 1 12.30 360 -2.6 93 -3.6 0 0 968.7 NA 0.0000 9999 0 0 0 1710
2019/07/27 11:48:04 BASE 8.00 3 12.30 360 -2.7 93 -3.6 0 0 968.7 NA 0.0000 UP 9999 0 0 0 1840
2019/07/27 11:49:04 BASE 7.00 3 11.47 4 -2.8 94 -3.6 0 0 968.7 NA 0.0000 UP 9000 0 0 0 2200
2019/07/27 11:50:04 BASE 6.62 5 11.16 3 -2.8 95 -3.5 0 0 968.7 NA 0.0000 UP 8000 0 0 0 2200
2019/07/27 11:51:04 BASE 6.16 7 11.16 3 -2.9 96 -3.4 0 0 968.7 NA 0.0000 UP 9000 0 0 0 2070
2019/07/27 11:52:04 BASE 5.62 13 11.16 3 -2.9 97 -3.2 0 0 968.7 NA 0.0000 UP BR 6000 0 0 0 1900
2019/07/27 11:53:04 BASE 5.98 15 11.16 3 -2.9 98 -3.1 0 0 968.7 NA 0.0000 UP BR 5000 0 0 0 1940
2019/07/27 11:54:04 BASE 7.18 12 10.75 354 -2.9 99 -3.0 0 0 968.7 NA 0.0000 -SN BR 7000 0 0 0 1740
2019/07/27 11:55:04 BASE 8.49 10 10.91 3 -2.9 100 -2.9 0 0 968.7 NA 0.0000 -SN BR 8000 0 0 0 1380
2019/07/27 11:56:04 BASE 8.62 2 10.91 3 -2.9 100 -2.9 0 0 968.7 NA 0.0000 -SN BR 4100 0 0 0 560
2019/07/27 11:57:04 BASE 7.42 359 10.91 3 -2.9 100 -2.9 0 0 968.8 NA 0.0000 -SN BR 2500 0 0 0 390
2019/07/27 11:58:04 BASE 6.57 356 10.91 3 -2.9 100 -2.9 0 0 968.9 NA 0.0000 -SN BR 2300 0 0 0 560
2019/07/27 11:59:04 BASE 6.23 347 10.91 3 -3.0 100 -3.0 0 0 968.9 NA 0.0000 -SN BR 2700 0 0 0 490
2019/07/27 12:00:04 BASE 5.83 346 10.91 3 -3.0 100 -3.0 0 0 968.9 NA 0.0000 -SN BR 3200 0 0 0 560
2019/07/27 12:01:04 BASE 5.77 341 10.91 3 -3.0 100 -3.0 0 0 968.9 NA 0.0000 -SN BR 3000 0 0 0 620
2019/07/27 12:02:04 BASE 5.81 335 10.91 3 -3.0 100 -3.0 0 0 968.9 NA 0.0000 -SN BR 2900 0 0 0 790
2019/07/27 12:03:04 BASE 5.26 332 10.91 3 -3.0 100 -3.0 0 0 968.9 NA 0.0000 -SN BR 3000 0 0 0 1080
2019/07/27 12:04:04 BASE 4.13 338 10.91 3 -3.0 100 -3.0 0 0 969.0 NA 0.0000 -SN BR 3600 0 0 0 1180
2019/07/27 12:05:04 BASE 3.65 352 9.26 4 -3.0 100 -3.0 0 0 969.0 NA 0.0000 -SN BR 3000 0 0 0 1050
2019/07/27 12:06:04 BASE 3.73 350 7.72 339 -3.0 100 -3.0 0 0 968.9 NA 0.0000 -SN BR 2600 0 0 0 980
2019/07/27 12:07:04 BASE 3.81 341 7.72 339 -3.0 100 -3.0 0 0 968.9 NA 0.0000 -SN BR 2400 0 0 0 1280
2019/07/27 12:08:04 BASE 3.18 351 7.72 339 -3.0 100 -3.0 0 0 969.0 NA 0.0000 -SN BR 2600 0 0 0 1570
2019/07/27 12:09:04 BASE 2.31 9 7.72 339 -3.0 100 -3.0 0 0 969.0 NA 0.0000 -SN BR 2500 0 0 0 1940
2019/07/27 12:10:04 BASE 3.13 25 7.72 339 -3.0 100 -3.0 0 0 969.0 NA 0.0000 -SN BR 2500 0 0 0 1800
2019/07/27 12:11:04 BASE 4.01 36 6.74 328 -3.1 100 -3.1 0 0 969.0 NA 0.0000 -SN BR 3000 0 0 0 1710
2019/07/27 12:12:04 BASE 4.00 40 5.81 320 -3.1 100 -3.1 0 0 968.9 NA 0.0000 -SN BR 3000 0 0 0 1280
2019/07/27 12:13:04 BASE 3.14 41 5.56 35 -3.2 100 -3.2 0 0 968.9 NA 0.0000 -SN BR 2600 0 0 0 1120
2019/07/27 12:14:04 BASE 3.23 45 8.18 68 -3.3 100 -3.3 0 0 968.9 NA 0.0000 -SN BR 2100 0 0 0 950
2019/07/27 12:15:05 BASE 6.50 67 9.62 78 -3.4 100 -3.4 0 0 968.9 NA 0.0000 -SN BR 1500 0 0 0 890
2019/07/27 12:16:01 BASE 8.56 78 9.98 76 -3.5 100 -3.5 0 0 968.9 NA 0.0000 -SN BR 1200 0 0 0 750
2019/07/27 12:17:04 BASE 8.52 79 9.98 76 -3.6 100 -3.6 0 0 968.9 NA 0.0000 -SN BR 1000 0 0 0 620
2019/07/27 12:18:04 BASE 8.99 79 11.42 78 -3.6 100 -3.6 0 0 968.8 NA 0.0000 -SN BR 0800 0 0 0 620
2019/07/27 12:19:04 BASE 10.22 73 14.35 64 -3.7 100 -3.7 0 0 968.8 NA 0.0000 -SN BR 0800 0 0 0 590
2019/07/27 12:20:04 BASE 11.92 62 14.97 53 -3.7 100 -3.7 0 0 968.8 NA 0.0000 -SN BR 0800 0 0 0 660
2019/07/27 12:21:04 BASE 12.65 49 14.97 53 -3.6 100 -3.6 0 0 968.7 NA 0.0000 -SN BR 0800 0 0 0 620
2019/07/27 12:22:04 BASE 12.28 41 14.97 53 -3.6 100 -3.6 0 0 968.7 NA 0.0000 +SN BR 0800 0 0 0 460
2019/07/27 12:23:04 BASE 12.15 38 14.97 53 -3.6 100 -3.6 0 0 968.7 NA 0.0000 +SN BR 0800 0 0 0 390
2019/07/27 12:24:04 BASE 11.57 34 14.97 53 -3.5 100 -3.5 0 0 968.7 NA 0.0000 +SN BR 1000 0 0 0 460
2019/07/27 12:25:04 BASE 10.78 31 14.97 53 -3.5 100 -3.5 0 0 968.7 NA 0.0000 +SN BR 1300 0 0 0 490
2019/07/27 12:26:05 BASE 9.82 30 14.97 53 -3.4 100 -3.4 0 0 968.7 NA 0.0000 +SN BR 1600 0 0 0 520
2019/07/27 12:27:04 BASE 9.93 30 14.97 53 -3.4 100 -3.4 0 0 968.7 NA 0.0000 +SN BR 1700 0 0 0 980
2019/07/27 12:28:05 BASE 10.07 35 14.97 53 -3.4 100 -3.4 0 0 968.9 NA 0.0000 +SN BR 1500 0 0 0 660
2019/07/27 12:29:04 BASE 10.75 37 14.97 53 -3.4 100 -3.4 0 0 968.7 NA 0.0000 +SN BR 1300 0 0 0 660
2019/07/27 12:30:04 BASE 12.07 35 15.07 37 -3.5 100 -3.5 0 0 968.7 NA 0.0000 -SN BR 1400 0 0 0 620
2019/07/27 12:31:04 BASE 11.19 36 15.07 37 -3.5 100 -3.5 0 0 968.7 NA 0.0000 -SN BR 1400 0 0 0 660
2019/07/27 12:32:05 BASE 9.26 37 15.07 37 -3.6 100 -3.6 0 0 968.7 NA 0.0000 -SN BR 1300 0 0 0 820
2019/07/27 12:33:05 BASE 7.59 32 15.07 37 -3.6 100 -3.6 0 0 968.7 NA 0.0000 -SN BR 1500 0 0 0 1150
2019/07/27 12:34:04 BASE 6.52 32 15.07 37 -3.6 100 -3.6 0 0 968.7 NA 0.0000 -SN BR 2500 0 0 0 1900
2019/07/27 12:35:04 BASE 6.55 24 15.07 37 -3.6 100 -3.6 0 0 968.7 NA 0.0000 -SN BR 3300 0 0 0 2260
2019/07/27 12:36:04 BASE 5.86 1 15.07 37 -3.6 100 -3.6 0 0 968.7 NA 0.0000 -SN BR 4800 0 0 0 2000
2019/07/27 12:37:04 BASE 4.72 346 15.07 37 -3.5 100 -3.5 0 0 968.8 NA 0.0000 -SN BR 9000 0 0 0 1800
2019/07/27 12:38:05 BASE 7.05 346 15.07 37 -3.5 100 -3.5 0 0 968.7 NA 0.0000 -SN BR 5000 0 0 0 1710
2019/07/27 12:39:05 BASE 7.54 323 15.07 37 -3.5 100 -3.5 0 0 968.8 NA 0.0000 -SN BR 4400 0 0 0 1280
2019/07/27 12:40:04 BASE 5.36 306 12.04 11 -3.4 100 -3.4 0 0 968.9 NA 0.0000 -SN BR 4700 0 0 0 1120
2019/07/27 12:41:04 BASE 4.52 319 12.04 11 -3.4 100 -3.4 0 0 968.9 NA 0.0000 -SN BR 3600 0 0 0 1050
2019/07/27 12:42:05 BASE 3.90 324 12.04 11 -3.4 100 -3.4 0 0 968.9 NA 0.0000 -SN BR 2800 0 0 0 920
2019/07/27 12:43:04 BASE 5.48 333 12.04 11 -3.4 100 -3.4 0 0 968.9 NA 0.0000 -SN BR 2800 0 0 0 1050
2019/07/27 12:44:04 BASE 6.87 356 12.04 11 -3.4 100 -3.4 0 0 968.9 NA 0.0000 -SN BR 3400 0 0 0 1050
2019/07/27 12:45:03 BASE 7.78 4 12.04 11 -3.4 100 -3.4 0 0 968.8 NA 0.0000 -SN BR 4400 0 0 0 1050
2019/07/27 12:46:04 BASE 9.88 359 13.27 9 -3.4 100 -3.4 0 0 968.8 NA 0.0000 -SN BR 4500 0 0 0 980
2019/07/27 12:47:04 BASE 9.37 352 13.27 9 -3.4 100 -3.4 0 0 968.9 NA 0.0000 -SN BR 4200 0 0 0 980
2019/07/27 12:48:04 BASE 6.78 347 13.27 9 -3.4 100 -3.4 0 0 968.9 NA 0.0000 -SN BR 5000 0 0 0 890
2019/07/27 12:49:04 BASE 5.68 342 13.27 9 -3.3 100 -3.3 0 0 968.9 NA 0.0000 -SN BR 4600 0 0 0 920
2019/07/27 12:50:04 BASE 5.86 329 13.27 9 -3.3 100 -3.3 0 0 969.0 NA 0.0000 -SN BR 4800 0 0 0 890
2019/07/27 12:51:04 BASE 5.40 319 13.27 9 -3.3 100 -3.3 0 0 969.0 NA 0.0000 -SN BR 4300 0 0 0 660
2019/07/27 12:52:04 BASE 4.35 317 13.27 9 -3.3 100 -3.3 0 0 969.0 NA 0.0000 -SN BR 3100 0 0 0 560
2019/07/27 12:53:04 BASE 3.99 319 13.27 9 -3.3 100 -3.3 0 0 969.0 NA 0.0000 -SN BR 2400 0 0 0 660
2019/07/27 12:54:04 BASE 4.06 326 13.27 9 -3.2 100 -3.2 0 0 969.0 NA 0.0000 -SN BR 2100 0 0 0 690
2019/07/27 12:55:04 BASE 4.13 333 13.27 9 -3.2 100 -3.2 0 0 969.0 NA 0.0000 -SN BR 1900 0 0 0 720
2019/07/27 12:56:03 BASE 4.25 343 9.00 343 -3.2 100 -3.2 0 0 969.0 NA 0.0000 -SN BR 2100 0 0 0 750
2019/07/27 12:57:04 BASE 3.99 354 7.05 353 -3.2 100 -3.2 0 0 969.0 NA 0.0000 -SN BR 2100 0 0 0 720
2019/07/27 12:58:04 BASE 3.79 359 6.64 324 -3.2 100 -3.2 0 0 969.0 NA 0.0000 -SN BR 2100 0 0 0 620
2019/07/27 12:59:04 BASE 4.46 355 6.64 324 -3.2 100 -3.2 0 0 969.0 NA 0.0000 -SN BR 2400 0 0 0 590
2019/07/27 13:00:04 BASE 4.99 346 5.71 338 -3.2 100 -3.2 0 0 969.0 NA 0.0000 -SN BR 2300 0 0 0 590
2019/07/27 13:01:04 BASE 5.37 343 6.28 347 -3.2 100 -3.2 0 0 969.1 NA 0.0000 -SN BR 2300 0 0 0 590
2019/07/27 13:02:05 BASE 5.66 349 6.33 346 -3.2 100 -3.2 0 0 969.1 NA 0.0000 -SN BR 2900 0 0 0 690
2019/07/27 13:03:04 BASE 5.49 3 6.33 346 -3.2 100 -3.2 0 0 969.1 NA 0.0000 -SN BR 2700 0 0 0 790
2019/07/27 13:04:04 BASE 5.12 12 6.33 346 -3.2 100 -3.2 0 0 969.1 NA 0.0000 -SN BR 2100 0 0 0 820
2019/07/27 13:05:04 BASE 4.83 7 6.33 346 -3.2 100 -3.2 0 0 969.1 NA 0.0000 -SN BR 2200 0 0 0 890
2019/07/27 13:06:04 BASE 4.71 359 6.38 339 -3.2 100 -3.2 0 0 969.0 NA 0.0000 -SN BR 2400 0 0 0 890
2019/07/27 13:07:04 BASE 4.98 353 6.38 339 -3.2 100 -3.2 0 0 969.0 NA 0.0000 -SN BR 2700 0 0 0 820
2019/07/27 13:08:04 BASE 4.60 356 6.38 339 -3.2 100 -3.2 0 0 969.0 NA 0.0000 -SN BR 2800 0 0 0 850
2019/07/27 13:09:04 BASE 3.67 350 6.38 339 -3.2 100 -3.2 0 0 969.0 NA 0.0000 -SN BR 2600 0 0 0 920
2019/07/27 13:10:03 BASE 4.17 341 6.69 337 -3.2 100 -3.2 0 0 969.0 NA 0.0000 -SN BR 2400 0 0 0 1410
2019/07/27 13:11:04 BASE 5.42 337 7.82 324 -3.2 100 -3.2 1 0 969.0 NA 0.0000 -SN BR 3600 0 0 0 3250
2019/07/27 13:12:04 BASE 6.01 328 7.82 324 -3.2 100 -3.2 1 0 969.0 NA 0.0000 -SN BR 7000 260 0 0 0
2019/07/27 13:13:04 BASE 6.07 326 7.82 324 -3.2 100 -3.2 1 0 969.0 NA 0.0000 -SN BR 9999 230 0 0 0
2019/07/27 13:14:04 BASE 6.68 325 7.82 324 -3.1 100 -3.1 1 0 969.0 NA 0.0000 -SN BR 9999 230 0 0 0
2019/07/27 13:15:04 BASE 7.23 321 7.82 324 -3.1 100 -3.1 1 0 969.1 NA 0.0000 -SN BR 9999 300 0 0 0
2019/07/27 13:16:01 BASE 7.40 321 8.18 327 -3.1 100 -3.1 1 0 969.1 NA 0.0000 -SN BR 9999 330 0 0 0
2019/07/27 13:17:04 BASE 7.27 321 8.18 327 -3.1 100 -3.1 1 0 969.1 NA 0.0000 -SN BR 9999 360 0 0 0
2019/07/27 13:18:05 BASE 6.68 319 8.18 327 -3.1 100 -3.1 1 0 969.1 NA 0.0000 -SN BR 9999 260 0 0 0
2019/07/27 13:19:04 BASE 6.32 318 8.18 327 -3.1 100 -3.1 1 0 969.1 NA 0.0000 -SN BR 9999 230 0 0 0
2019/07/27 13:20:04 BASE 6.04 312 8.18 327 -3.1 100 -3.1 1 0 969.1 NA 0.0000 -SN BR 6000 0 0 0 3350
2019/07/27 13:21:04 BASE 5.67 308 8.18 327 -3.1 100 -3.1 1 0 969.1 NA 0.0000 -SN BR 4000 0 0 0 3310
2019/07/27 13:22:05 BASE 5.37 306 8.18 327 -3.1 100 -3.1 2 0 969.1 NA 0.0000 -SN BR 3300 0 0 0 3250
2019/07/27 13:23:04 BASE 5.70 301 8.18 327 -3.1 100 -3.1 2 0 969.1 NA 0.0000 -SN BR 3900 260 0 0 0
2019/07/27 13:24:04 BASE 5.72 300 8.18 327 -3.1 100 -3.1 2 0 969.1 NA 0.0000 -SN BR 7000 0 0 0 3280
2019/07/27 13:25:04 BASE 5.17 302 8.18 327 -3.2 100 -3.2 2 0 969.1 NA 0.0000 -SN BR 9000 330 0 0 0
2019/07/27 13:26:04 BASE 4.85 305 7.46 314 -3.2 100 -3.2 2 0 969.1 NA 0.0000 -SN BR 7000 260 0 0 0
2019/07/27 13:27:04 BASE 5.02 308 6.64 311 -3.2 100 -3.2 3 0 969.1 NA 0.0000 -SN BR 4700 300 0 0 0
2019/07/27 13:28:04 BASE 5.63 312 6.64 311 -3.2 100 -3.2 3 0 969.1 NA 0.0000 -SN BR 6000 1250 2430 0 0
2019/07/27 13:29:05 BASE 5.75 315 6.64 311 -3.2 100 -3.2 3 0 969.1 NA 0.0000 -SN BR 9999 2660 4040 0 0
2019/07/27 13:30:04 BASE 5.38 314 6.38 300 -3.2 100 -3.2 3 0 969.1 NA 0.0000 -SN BR 9999 720 4400 0 0
2019/07/27 13:31:05 BASE 4.89 311 6.38 300 -3.2 100 -3.2 4 0 969.1 NA 0.0000 -SN BR 9999 390 1120 0 0
2019/07/27 13:32:05 BASE 4.53 313 6.38 300 -3.2 100 -3.2 4 0 969.1 NA 0.0000 -SN BR 9999 390 0 0 0
2019/07/27 13:33:04 BASE 4.24 315 6.17 319 -3.3 100 -3.3 4 0 969.1 NA 0.0000 -SN BR 9999 390 0 0 0
2019/07/27 13:34:04 BASE 4.02 314 6.17 319 -3.3 100 -3.3 5 0 969.1 NA 0.0000 -SN BR 9999 390 0 0 0
2019/07/27 13:35:04 BASE 3.88 314 6.17 319 -3.3 100 -3.3 5 0 969.1 NA 0.0000 -SN 9999 360 1020 0 0
2019/07/27 13:36:04 BASE 4.35 317 6.17 319 -3.3 100 -3.3 5 0 969.1 NA 0.0000 -SN 9999 330 3050 0 0
2019/07/27 13:37:04 BASE 4.98 319 6.17 319 -3.3 100 -3.3 5 0 969.1 NA 0.0000 -SN 9999 360 0 0 0
2019/07/27 13:38:04 BASE 5.10 320 6.02 315 -3.3 100 -3.3 5 0 969.2 NA 0.0000 -SN 9999 850 1670 0 0
2019/07/27 13:39:05 BASE 4.84 320 5.56 322 -3.3 100 -3.3 6 0 969.2 NA 0.0000 -SN 9999 820 0 0 0
2019/07/27 13:40:04 BASE 4.79 320 5.56 322 -3.2 100 -3.2 6 0 969.2 NA 0.0000 -SN 9999 850 1440 0 0
2019/07/27 13:41:04 BASE 4.88 320 5.56 322 -3.2 100 -3.2 6 0 969.2 NA 0.0000 -SN 9999 1310 1870 0 0
2019/07/27 13:42:04 BASE 4.71 319 5.56 322 -3.2 100 -3.2 7 0 969.2 NA 0.0000 -SN 9999 1380 0 0 0
2019/07/27 13:43:04 BASE 4.48 319 5.56 322 -3.2 100 -3.2 7 0 969.2 NA 0.0000 -SN 9999 1350 1940 0 0
2019/07/27 13:44:05 BASE 4.26 324 5.56 322 -3.2 100 -3.2 9 0 969.2 NA 0.0000 -SN 9999 1570 0 0 0
2019/07/27 13:45:04 BASE 4.32 325 5.61 319 -3.2 100 -3.2 10 0 969.2 NA 0.0000 -SN 9999 1440 2820 0 0
2019/07/27 13:46:05 BASE 4.90 320 6.84 332 -3.2 100 -3.2 9 0 969.2 NA 0.0000 9999 820 0 0 0
2019/07/27 13:47:05 BASE 6.96 323 9.41 336 -3.2 100 -3.2 9 0 969.2 NA 0.0000 9999 1280 0 0 0
2019/07/27 13:48:04 BASE 8.40 328 9.41 336 -3.1 100 -3.1 8 0 969.2 NA 0.0000 9999 620 0 0 0
2019/07/27 13:49:05 BASE 7.17 339 9.41 336 -3.1 100 -3.1 8 0 969.2 NA 0.0000 9999 520 0 0 0
2019/07/27 13:50:04 BASE 5.32 351 9.41 336 -3.1 100 -3.1 7 0 969.2 NA 0.0000 9999 330 0 0 0
2019/07/27 13:51:04 BASE 4.65 356 9.41 336 -3.0 100 -3.0 8 0 969.2 NA 0.0000 7000 260 0 0 0
2019/07/27 13:52:05 BASE 4.82 359 9.41 336 -3.0 100 -3.0 8 0 969.2 NA 0.0000 -SN BR 2900 0 0 0 1840
2019/07/27 13:53:04 BASE 5.45 350 9.41 336 -3.0 100 -3.0 8 0 969.2 NA 0.0000 -SN BR 2200 0 0 0 1480
2019/07/27 13:54:04 BASE 6.35 336 9.41 336 -3.0 100 -3.0 9 0 969.2 NA 0.0000 -SN BR 2500 0 0 0 1670
2019/07/27 13:55:04 BASE 7.91 326 10.24 324 -2.9 100 -2.9 9 0 969.2 NA 0.0000 -SN BR 3400 0 0 0 1310
2019/07/27 13:56:05 BASE 9.03 329 10.55 333 -2.9 100 -2.9 10 0 969.2 NA 0.0000 -SN BR 6000 850 0 0 0
2019/07/27 13:57:04 BASE 9.03 333 10.55 333 -2.9 100 -2.9 10 0 969.2 NA 0.0000 -SN BR 9999 360 0 0 0
2019/07/27 13:58:05 BASE 9.84 334 13.02 343 -2.8 100 -2.8 10 0 969.2 NA 0.0000 -SN BR 9999 430 0 0 0
2019/07/27 13:59:04 BASE 11.17 337 13.38 343 -2.8 100 -2.8 10 0 969.2 NA 0.0000 -SN BR 9999 430 1570 0 0
2019/07/27 14:00:04 BASE 12.28 339 14.04 345 -2.9 100 -2.9 10 0 969.2 NA 0.0000 -SN BR 9999 430 1280 0 0
2019/07/27 14:01:04 BASE 11.56 336 14.04 345 -2.8 100 -2.8 9 0 969.2 NA 0.0000 -SN BR 9999 460 0 0 0
2019/07/27 14:02:04 BASE 10.43 333 14.04 345 -2.8 100 -2.8 9 0 969.2 NA 0.0000 -SN BR 9999 920 0 0 0
2019/07/27 14:03:04 BASE 10.67 335 14.04 345 -2.9 100 -2.9 9 0 969.2 NA 0.0000 -SN BR 9999 950 0 0 0
2019/07/27 14:04:04 BASE 11.54 335 14.04 345 -2.9 100 -2.9 9 0 969.2 NA 0.0000 -SN 9999 460 0 0 0
2019/07/27 14:05:04 BASE 12.50 336 14.04 345 -2.9 100 -2.9 9 0 969.2 NA 0.0000 -SN 9999 1020 0 0 0
2019/07/27 14:06:04 BASE 12.03 336 14.04 345 -2.9 100 -2.9 9 0 969.2 NA 0.0000 9999 1380 0 0 0
2019/07/27 14:07:04 BASE 11.23 332 14.04 345 -2.9 100 -2.9 10 0 969.2 NA 0.0000 9999 1410 0 0 0
2019/07/27 14:08:04 BASE 11.55 335 14.04 345 -2.9 100 -2.9 9 0 969.2 NA 0.0000 9999 1120 1840 0 0
2019/07/27 14:09:04 BASE 12.54 337 14.04 345 -2.9 100 -2.9 9 0 969.2 NA 0.0000 9999 1510 0 0 0
2019/07/27 14:10:04 BASE 13.41 339 14.30 337 -2.9 100 -2.9 9 0 969.2 NA 0.0000 9999 1440 0 0 0
2019/07/27 14:11:04 BASE 12.79 339 14.30 337 -3.0 100 -3.0 8 0 969.3 NA 0.0000 9999 1510 0 0 0
2019/07/27 14:12:04 BASE 12.43 336 14.30 337 -3.0 100 -3.0 8 0 969.3 NA 0.0000 9999 1610 0 0 0
2019/07/27 14:13:04 BASE 12.53 335 14.30 337 -3.0 100 -3.0 8 0 969.3 NA 0.0000 9999 1380 0 0 0
2019/07/27 14:14:05 BASE 12.45 336 14.30 337 -3.0 100 -3.0 8 0 969.3 NA 0.0000 9999 1350 0 0 0
2019/07/27 14:15:05 BASE 12.37 331 14.30 337 -3.0 100 -3.0 8 0 969.3 NA 0.0000 9999 1020 0 0 0
2019/07/27 14:16:01 BASE 12.17 329 14.30 337 -3.0 100 -3.0 9 0 969.3 NA 0.0000 9999 1150 0 0 0
2019/07/27 14:17:04 BASE 12.66 328 14.30 337 -3.0 100 -3.0 10 0 969.3 NA 0.0000 9999 1080 2300 0 0
2019/07/27 14:18:04 BASE 12.61 324 14.30 337 -3.0 100 -3.0 10 0 969.3 NA 0.0000 9999 1020 0 0 0
2019/07/27 14:19:04 BASE 11.60 323 14.30 337 -3.0 100 -3.0 11 0 969.4 NA 0.0000 9999 1080 0 0 0
2019/07/27 14:20:04 BASE 11.17 323 13.94 334 -3.0 100 -3.0 10 0 969.3 NA 0.0000 9999 1080 0 0 0
2019/07/27 14:21:04 BASE 11.69 330 13.94 334 -3.0 100 -3.0 9 0 969.3 NA 0.0000 9999 1080 0 0 0
2019/07/27 14:22:04 BASE 12.61 337 13.53 331 -3.0 100 -3.0 9 0 969.3 NA 0.0000 9999 1020 0 0 0
2019/07/27 14:23:04 BASE 12.50 335 13.53 331 -3.0 100 -3.0 8 0 969.3 NA 0.0000 9999 950 0 0 0
2019/07/27 14:24:04 BASE 11.45 333 13.53 331 -3.1 100 -3.1 8 0 969.4 NA 0.0000 9999 1020 0 0 0
2019/07/27 14:25:04 BASE 10.90 330 13.53 331 -3.1 100 -3.1 8 0 969.5 NA 0.0000 9999 660 0 0 0
2019/07/27 14:26:04 BASE 10.37 329 13.53 331 -3.1 100 -3.1 8 0 969.5 NA 0.0000 9999 1080 0 0 0
2019/07/27 14:27:04 BASE 10.12 329 13.53 331 -3.1 100 -3.1 8 0 969.5 NA 0.0000 9999 1440 0 0 0
2019/07/27 14:28:04 BASE 10.33 331 13.53 331 -3.1 100 -3.1 8 0 969.5 NA 0.0000 9999 1480 0 0 0
2019/07/27 14:29:04 BASE 10.38 334 13.53 331 -3.0 100 -3.0 8 0 969.5 NA 0.0000 9999 1250 0 0 0
2019/07/27 14:30:04 BASE 10.21 334 13.53 331 -3.0 100 -3.0 8 0 969.5 NA 0.0000 9999 1210 0 0 0
2019/07/27 14:31:04 BASE 10.61 335 13.53 331 -3.0 100 -3.0 9 0 969.5 NA 0.0000 9999 1280 0 0 0
2019/07/27 14:32:05 BASE 10.65 337 12.76 332 -3.0 100 -3.0 9 0 969.5 NA 0.0000 9999 1210 0 0 0
2019/07/27 14:33:04 BASE 10.36 338 11.99 336 -2.9 100 -2.9 9 0 969.5 NA 0.0000 9999 1210 0 0 0
2019/07/27 14:34:04 BASE 10.98 345 12.60 349 -2.9 100 -2.9 11 0 969.5 NA 0.0000 9999 1180 0 0 0
2019/07/27 14:35:04 BASE 11.54 350 12.60 349 -2.9 100 -2.9 12 0 969.4 NA 0.0000 9999 1310 0 0 0
2019/07/27 14:36:05 BASE 11.04 350 12.60 349 -2.9 100 -2.9 13 0 969.5 NA 0.0000 9999 1310 0 0 0
2019/07/27 14:37:04 BASE 11.01 351 13.58 345 -2.9 100 -2.9 14 0 969.4 NA 0.0000 9999 1280 0 0 0
2019/07/27 14:38:04 BASE 12.14 348 13.58 345 -2.9 100 -2.9 15 0 969.4 NA 0.0000 9999 1250 0 0 0
2019/07/27 14:39:05 BASE 12.68 341 13.74 337 -2.9 100 -2.9 17 0 969.5 NA 0.0000 9999 1210 0 0 0
2019/07/27 14:40:04 BASE 12.07 339 13.74 337 -2.9 100 -2.9 18 0 969.5 NA 0.0000 9999 1670 0 0 0
2019/07/27 14:41:05 BASE 12.01 345 13.74 337 -2.9 100 -2.9 19 0 969.4 NA 0.0000 9999 1570 0 0 0
2019/07/27 14:42:05 BASE 12.12 348 13.74 337 -2.9 100 -2.9 21 0 969.5 NA 0.0000 9999 1380 0 0 0
2019/07/27 14:43:04 BASE 11.43 349 13.74 337 -2.9 100 -2.9 23 0 969.5 NA 0.0000 9999 1350 0 0 0
2019/07/27 14:44:04 BASE 10.51 347 13.74 337 -2.9 100 -2.9 25 0 969.5 NA 0.0000 9999 1310 0 0 0
2019/07/27 14:45:04 BASE 9.69 350 13.74 337 -2.9 100 -2.9 27 0 969.5 NA 0.0000 9999 1350 0 0 0
2019/07/27 14:46:04 BASE 10.25 357 13.74 337 -2.9 100 -2.9 28 0 969.5 NA 0.0000 9999 1510 0 0 0
2019/07/27 14:47:04 BASE 11.31 356 13.74 337 -2.9 100 -2.9 29 0 969.4 NA 0.0000 9999 1480 0 0 0
2019/07/27 14:48:04 BASE 11.91 356 13.74 337 -3.0 100 -3.0 32 0 969.4 NA 0.0000 9999 1540 0 0 0
2019/07/27 14:49:04 BASE 11.68 357 13.68 346 -3.0 100 -3.0 35 0 969.5 NA 0.0000 9999 1410 0 0 0
2019/07/27 14:50:04 BASE 11.68 0 13.68 346 -3.0 100 -3.0 37 0 969.4 NA 0.0000 9999 1570 0 0 0
2019/07/27 14:51:04 BASE 12.00 4 13.27 354 -3.0 100 -3.0 41 0 969.3 NA 0.0000 9999 1510 0 0 0
2019/07/27 14:52:04 BASE 11.67 6 13.27 354 -3.0 100 -3.0 49 0 969.3 NA 0.0000 9999 1570 0 0 0
2019/07/27 14:53:04 BASE 11.51 6 13.27 354 -3.0 100 -3.0 58 0 969.3 NA 0.0000 9999 1480 0 0 0
2019/07/27 14:54:04 BASE 11.87 7 13.32 12 -3.0 100 -3.0 64 0 969.3 NA 0.0000 9999 1570 0 0 0
2019/07/27 14:55:04 BASE 11.46 8 13.32 12 -3.0 100 -3.0 62 0 969.3 NA 0.0000 9999 1410 0 0 0
2019/07/27 14:56:04 BASE 10.56 7 13.32 12 -3.0 100 -3.0 60 0 969.3 NA 0.0000 9999 1570 0 0 0
2019/07/27 14:57:04 BASE 10.11 6 13.32 12 -3.0 100 -3.0 61 0 969.3 NA 0.0000 9999 1510 0 0 0
2019/07/27 14:58:03 BASE 10.57 4 13.32 12 -3.0 100 -3.0 65 0 969.4 NA 0.0000 9999 1480 0 0 0
2019/07/27 14:59:04 BASE 11.08 2 13.32 12 -3.0 100 -3.0 70 0 969.4 NA 0.0000 9999 1510 0 0 0
2019/07/27 15:00:04 BASE 11.46 359 13.32 12 -3.0 100 -3.0 76 0 969.5 NA 0.0000 9999 1480 0 0 0
2019/07/27 15:01:05 BASE 12.50 356 14.25 352 -3.1 100 -3.1 73 0 969.6 NA 0.0000 9999 1800 0 0 0
2019/07/27 15:02:04 BASE 12.55 350 14.25 352 -3.1 100 -3.1 73 0 969.7 NA 0.0000 9999 1540 0 0 0
2019/07/27 15:03:04 BASE 12.01 352 14.25 352 -3.2 100 -3.2 76 0 969.7 NA 0.0000 9999 1770 0 0 0
2019/07/27 15:04:04 BASE 11.98 351 14.25 352 -3.3 100 -3.3 78 0 969.8 NA 0.0000 9999 1770 0 0 0
2019/07/27 15:05:04 BASE 11.29 350 14.25 352 -3.3 100 -3.3 78 0 969.8 NA 0.0000 9999 1570 0 0 0
2019/07/27 15:06:04 BASE 11.25 348 14.25 352 -3.3 100 -3.3 79 0 969.8 NA 0.0000 9999 1770 0 0 0
2019/07/27 15:07:04 BASE 11.72 344 14.25 352 -3.2 100 -3.2 88 0 969.8 NA 0.0000 9999 1740 0 0 0
2019/07/27 15:08:05 BASE 12.84 342 16.15 346 -3.2 100 -3.2 92 0 969.7 NA 0.0000 9999 1800 0 0 0
2019/07/27 15:09:04 BASE 14.99 346 16.98 354 -3.1 100 -3.1 86 0 969.7 NA 0.0000 9999 1870 0 0 0
2019/07/27 15:10:04 BASE 16.45 349 18.31 347 -3.0 100 -3.0 95 0 969.7 NA 0.0000 9999 1840 0 0 0
2019/07/27 15:11:04 BASE 16.91 347 18.31 344 -3.0 100 -3.0 101 0 969.7 NA 0.0000 9999 1840 0 0 0
2019/07/27 15:12:05 BASE 17.26 342 18.57 338 -3.0 100 -3.0 106 0 969.7 NA 0.0000 9999 1610 0 0 0
2019/07/27 15:13:03 BASE 16.82 342 18.57 338 -3.0 100 -3.0 101 0 969.8 NA 0.0000 9999 1540 0 0 0
2019/07/27 15:14:04 BASE 15.39 343 18.57 338 -3.0 100 -3.0 98 0 969.8 NA 0.0000 9999 1540 0 0 0
2019/07/27 15:15:05 BASE 14.18 340 18.57 338 -3.0 100 -3.0 98 0 969.8 NA 0.0000 9999 2000 0 0 0
2019/07/27 15:16:01 BASE 13.96 338 18.57 338 -3.0 100 -3.0 98 0 969.8 NA 0.0000 9999 1710 0 0 0
2019/07/27 15:17:04 BASE 13.74 344 18.57 338 -3.0 100 -3.0 84 0 969.9 NA 0.0000 9999 1610 0 0 0
2019/07/27 15:18:04 BASE 12.70 350 18.57 338 -3.1 100 -3.1 79 0 969.9 NA 0.0000 9999 1940 0 0 0
2019/07/27 15:19:04 BASE 11.77 348 18.57 338 -3.1 100 -3.1 62 0 969.9 NA 0.0000 9999 1610 0 0 0
2019/07/27 15:20:04 BASE 11.50 342 18.57 338 -3.2 100 -3.2 52 0 969.9 NA 0.0000 9999 1710 0 0 0
2019/07/27 15:21:04 BASE 11.99 343 18.57 338 -3.3 100 -3.3 50 0 969.9 NA 0.0000 9999 0 0 0 0
2019/07/27 15:22:04 BASE 11.63 355 16.93 343 -3.4 100 -3.4 50 0 969.9 NA 0.0000 9999 0 0 0 0
2019/07/27 15:23:04 BASE 11.54 359 16.20 339 -3.5 100 -3.5 49 0 969.9 NA 0.0000 9999 1870 0 0 0
2019/07/27 15:24:04 BASE 13.20 355 15.74 355 -3.5 99 -3.6 48 0 969.8 NA 0.0000 9999 0 0 0 0
2019/07/27 15:25:04 BASE 14.21 353 15.74 355 -3.6 99 -3.7 47 0 969.8 NA 0.0000 9999 0 0 0 0
2019/07/27 15:26:04 BASE 14.03 346 15.74 355 -3.7 99 -3.8 47 0 969.8 NA 0.0000 9999 0 0 0 0
2019/07/27 15:27:04 BASE 14.56 350 16.31 53 -3.7 99 -3.9 49 0 969.7 NA 0.0000 9999 0 0 0 0
2019/07/27 15:28:04 BASE 15.77 359 17.39 2 -3.8 99 -3.9 49 0 969.7 NA 0.0000 9999 0 0 0 0
2019/07/27 15:29:04 BASE 17.16 2 18.73 360 -3.8 99 -3.9 49 0 969.7 NA 0.0000 9999 0 0 0 0
2019/07/27 15:30:04 BASE 17.90 5 18.73 360 -3.8 99 -4.0 49 0 969.7 NA 0.0000 9999 0 0 0 0
2019/07/27 15:31:04 BASE 17.44 2 18.73 360 -3.8 99 -3.9 48 0 969.7 NA 0.0000 9999 0 0 0 0
2019/07/27 15:32:05 BASE 17.05 360 18.73 360 -3.8 99 -3.9 47 0 969.7 NA 0.0000 9999 0 0 0 0
2019/07/27 15:33:04 BASE 16.56 353 18.73 360 -3.8 99 -3.9 46 0 969.7 NA 0.0000 9999 0 0 0 0
2019/07/27 15:34:04 BASE 16.22 346 18.73 360 -3.7 99 -3.9 44 0 969.7 NA 0.0000 9999 21620 0 0 0
2019/07/27 15:35:04 BASE 16.46 347 18.73 360 -3.7 98 -3.9 44 0 969.7 NA 0.0000 9999 0 0 0 0
2019/07/27 15:36:04 BASE 17.23 352 19.14 295 -3.7 98 -3.9 43 0 969.7 NA 0.0000 9999 0 0 0 0
2019/07/27 15:37:05 BASE 18.73 357 20.27 1 -3.7 98 -3.9 42 0 969.7 NA 0.0000 9999 0 0 0 0
2019/07/27 15:38:04 BASE 18.59 0 20.27 1 -3.6 98 -3.9 42 0 969.7 NA 0.0000 9999 0 0 0 0
2019/07/27 15:39:04 BASE 18.36 360 21.04 360 -3.5 98 -3.8 42 0 969.7 NA 0.0000 9999 0 0 0 0
2019/07/27 15:40:04 BASE 18.70 358 21.04 360 -3.4 98 -3.7 41 0 969.8 NA 0.0000 9999 0 0 0 0
2019/07/27 15:41:04 BASE 18.91 355 21.04 360 -3.3 97 -3.6 41 0 969.8 NA 0.0000 9999 0 0 0 0
2019/07/27 15:42:04 BASE 19.19 353 21.04 360 -3.3 97 -3.6 40 0 969.8 NA 0.0000 9999 0 0 0 0
2019/07/27 15:43:04 BASE 18.94 353 21.04 360 -3.2 97 -3.7 38 0 969.8 NA 0.0000 9999 15320 0 0 0
2019/07/27 15:44:04 BASE 18.80 348 21.04 360 -3.3 97 -3.7 35 0 969.8 NA 0.0000 9999 0 0 0 0
2019/07/27 15:45:04 BASE 18.86 350 21.04 360 -3.3 97 -3.8 34 0 969.8 NA 0.0000 9999 0 0 0 0
2019/07/27 15:46:04 BASE 18.73 355 21.04 360 -3.4 97 -3.8 32 0 969.9 NA 0.0000 9999 0 0 0 0
2019/07/27 15:47:04 BASE 18.48 356 21.04 360 -3.4 96 -3.8 30 0 969.9 NA 0.0000 9999 10660 0 0 0
2019/07/27 15:48:04 BASE 18.19 356 21.04 360 -3.4 96 -3.9 28 0 969.9 NA 0.0000 9999 11780 0 0 0
2019/07/27 15:49:04 BASE 18.35 356 20.73 354 -3.4 96 -4.0 27 0 969.9 NA 0.0000 9999 11320 0 0 0
2019/07/27 15:50:04 BASE 18.47 358 20.73 354 -3.4 96 -4.0 26 0 969.9 NA 0.0000 9999 10930 0 0 0
2019/07/27 15:51:04 BASE 19.28 1 21.30 3 -3.4 95 -4.0 25 0 969.9 NA 0.0000 9999 10730 0 0 0
2019/07/27 15:52:04 BASE 20.05 3 22.33 2 -3.4 95 -4.0 25 0 969.9 NA 0.0000 9999 7480 0 0 0
2019/07/27 15:53:04 BASE 20.63 5 22.33 2 -3.3 95 -4.0 24 0 969.8 NA 0.0000 9999 7910 0 0 0
2019/07/27 15:54:04 BASE 21.38 6 22.33 2 -3.2 95 -3.9 24 0 969.8 NA 0.0000 9999 8070 0 0 0
2019/07/27 15:55:03 BASE 21.41 3 22.33 2 -3.1 95 -3.8 23 0 969.9 NA 0.0000 9999 7510 0 0 0
2019/07/27 15:56:04 BASE 20.22 1 22.33 2 -3.1 95 -3.8 23 0 970.0 NA 0.0000 -SN 9999 7250 0 0 0
2019/07/27 15:57:05 BASE 18.97 2 22.33 2 -3.1 95 -3.8 23 0 970.0 NA 0.0000 -SN 9999 6860 0 0 0
2019/07/27 15:58:04 BASE 19.45 1 22.33 2 -3.1 95 -3.7 23 0 969.9 NA 0.0000 -SN 9999 6660 0 0 0
2019/07/27 15:59:04 BASE 20.26 1 22.33 2 -3.1 95 -3.7 23 0 969.9 NA 0.0000 -SN 9999 6270 0 0 0
2019/07/27 16:00:04 BASE 20.43 4 22.33 2 -3.0 95 -3.7 24 0 970.0 NA 0.0000 -SN 9999 6660 0 0 0
2019/07/27 16:01:04 BASE 20.00 5 22.33 2 -3.0 95 -3.7 25 0 970.0 NA 0.0000 -SN 9999 7190 0 0 0
2019/07/27 16:02:04 BASE 19.35 6 22.28 1 -3.0 95 -3.7 26 0 970.0 NA 0.0000 -SN 9999 7090 0 0 0
2019/07/27 16:03:04 BASE 18.66 6 22.28 1 -2.9 95 -3.7 27 0 970.0 NA 0.0000 -SN 9999 2330 0 0 0
2019/07/27 16:04:04 BASE 18.50 7 22.28 1 -2.9 94 -3.7 29 0 970.1 NA 0.0000 -SN 9999 2360 0 0 0
2019/07/27 16:05:04 BASE 18.69 9 21.40 3 -2.9 94 -3.7 31 0 970.1 NA 0.0000 9999 4760 0 0 0
2019/07/27 16:06:04 BASE 18.19 11 21.40 3 -2.9 94 -3.8 33 0 970.2 NA 0.0000 9999 4660 0 0 0
2019/07/27 16:07:04 BASE 18.25 11 21.40 3 -2.9 93 -3.8 36 0 970.1 NA 0.0000 9999 2360 0 0 0
2019/07/27 16:08:04 BASE 18.70 11 21.40 3 -2.9 93 -3.9 38 0 970.2 NA 0.0000 9999 4100 0 0 0
2019/07/27 16:09:04 BASE 17.63 13 21.20 4 -2.9 92 -3.9 41 0 970.2 NA 0.0000 9999 4100 0 0 0
2019/07/27 16:10:04 BASE 16.76 13 20.73 3 -2.9 92 -3.9 44 0 970.3 NA 0.0000 9999 4460 0 0 0
2019/07/27 16:11:04 BASE 16.60 12 20.27 7 -2.8 92 -3.9 46 0 970.3 NA 0.0000 9999 3610 0 0 0
2019/07/27 16:12:04 BASE 16.41 12 20.27 7 -2.8 92 -4.0 49 0 970.2 NA 0.0000 9999 6760 0 0 0
2019/07/27 16:13:05 BASE 16.81 12 20.27 7 -2.8 92 -4.0 52 0 970.2 NA 0.0000 9999 5910 0 0 0
2019/07/27 16:14:04 BASE 17.40 11 20.27 7 -2.9 91 -4.1 53 0 970.2 NA 0.0000 9999 2720 0 0 0
2019/07/27 16:15:05 BASE 17.45 11 20.27 7 -2.9 91 -4.1 54 0 970.2 NA 0.0000 9999 2590 0 0 0
2019/07/27 16:16:01 BASE 17.79 11 20.37 11 -2.9 91 -4.2 55 0 970.1 NA 0.0000 9999 0 0 0 0
2019/07/27 16:17:04 BASE 18.75 8 20.37 11 -2.9 91 -4.2 57 0 970.0 NA 0.0000 9999 0 0 0 0
2019/07/27 16:18:04 BASE 19.34 7 20.58 6 -2.9 91 -4.1 58 0 970.0 NA 0.0000 9999 0 0 0 0
2019/07/27 16:19:04 BASE 19.58 7 20.58 6 -2.9 91 -4.1 59 0 970.0 NA 0.0000 9999 0 0 0 0
2019/07/27 16:20:04 BASE 20.00 7 21.20 9 -2.8 91 -4.1 60 0 970.0 NA 0.0000 9999 0 0 0 0
2019/07/27 16:21:04 BASE 20.09 8 21.20 9 -2.8 91 -4.1 60 0 970.0 NA 0.0000 9999 0 0 0 0
2019/07/27 16:22:04 BASE 19.96 9 21.40 10 -2.8 91 -4.0 60 0 970.0 NA 0.0000 9999 0 0 0 0
2019/07/27 16:23:04 BASE 19.31 10 21.40 10 -2.8 91 -4.0 60 0 970.1 NA 0.0000 9999 0 0 0 0
2019/07/27 16:24:04 BASE 18.39 12 21.40 10 -2.7 91 -4.0 59 0 970.0 NA 0.0000 9999 18730 0 0 0
2019/07/27 16:25:04 BASE 18.51 13 21.40 10 -2.7 91 -4.1 58 0 970.0 NA 0.0000 9999 0 0 0 0
2019/07/27 16:26:04 BASE 18.35 13 21.40 10 -2.8 90 -4.1 56 0 970.0 NA 0.0000 9999 0 0 0 0
2019/07/27 16:27:04 BASE 17.89 14 21.40 10 -2.8 90 -4.2 53 0 970.0 NA 0.0000 9999 0 0 0 0
2019/07/27 16:28:04 BASE 18.15 14 21.40 10 -2.8 90 -4.2 51 0 970.0 NA 0.0000 9999 0 0 0 0
2019/07/27 16:29:04 BASE 18.70 15 21.40 10 -2.9 90 -4.3 50 0 969.9 NA 0.0000 9999 0 0 0 0
2019/07/27 16:30:04 BASE 19.24 15 21.40 10 -2.9 90 -4.3 49 0 969.9 NA 0.0000 9999 0 0 0 0
2019/07/27 16:31:04 BASE 19.54 16 21.40 10 -2.9 90 -4.3 49 0 969.9 NA 0.0000 9999 0 0 0 0
2019/07/27 16:32:04 BASE 19.43 17 20.53 16 -2.9 90 -4.3 52 0 969.9 NA 0.0000 9999 0 0 0 0
2019/07/27 16:33:04 BASE 18.89 16 20.53 16 -2.9 90 -4.3 79 0 969.9 NA 0.0000 9999 0 0 0 0
2019/07/27 16:34:05 BASE 19.06 17 20.68 20 -2.9 90 -4.3 95 0 969.9 NA 0.0000 9999 4890 0 0 0
2019/07/27 16:35:05 BASE 20.29 19 21.56 19 -2.9 90 -4.2 97 0 969.9 NA 0.0000 9999 0 0 0 0
2019/07/27 16:36:04 BASE 20.77 19 22.28 18 -2.9 91 -4.2 97 0 969.9 NA 0.0000 9999 0 0 0 0
2019/07/27 16:37:04 BASE 20.48 17 22.28 18 -2.8 91 -4.1 97 0 969.9 NA 0.0000 9999 0 0 0 0
2019/07/27 16:38:05 BASE 19.69 18 22.28 18 -2.8 91 -4.1 93 0 969.9 NA 0.0000 9999 0 0 0 0
2019/07/27 16:39:04 BASE 19.70 21 22.28 18 -2.8 91 -4.0 89 0 969.9 NA 0.0000 9999 0 0 0 0
2019/07/27 16:40:04 BASE 20.64 22 22.38 19 -2.7 91 -4.0 90 0 969.9 NA 0.0000 9999 14240 0 0 0
2019/07/27 16:41:04 BASE 20.41 22 22.38 19 -2.7 91 -4.0 91 0 969.9 NA 0.0000 9999 14170 0 0 0
2019/07/27 16:42:04 BASE 19.89 23 22.38 19 -2.8 91 -4.0 94 0 969.9 NA 0.0000 UP 9999 14110 0 0 0
2019/07/27 16:43:04 BASE 21.06 22 23.87 21 -2.8 91 -4.0 93 0 969.9 NA 0.0000 UP 9999 0 0 0 0
2019/07/27 16:44:04 BASE 21.69 20 23.87 21 -2.8 91 -4.0 95 0 969.8 NA 0.0000 UP 9999 0 0 0 0
2019/07/27 16:45:04 BASE 21.98 21 23.87 21 -2.8 91 -4.0 91 0 969.8 NA 0.0000 UP 9999 0 0 0 0
2019/07/27 16:46:05 BASE 22.50 21 23.87 21 -2.8 91 -4.0 91 0 969.8 NA 0.0000 UP 9999 0 0 0 0
2019/07/27 16:47:05 BASE 22.66 22 24.80 22 -2.8 91 -4.0 89 0 969.8 NA 0.0000 UP 9000 0 0 0 0
2019/07/27 16:48:04 BASE 22.69 22 24.80 22 -2.8 91 -4.0 84 0 969.8 NA 0.0000 UP 9000 0 0 0 0
2019/07/27 16:49:04 BASE 22.71 23 24.80 22 -2.8 91 -4.1 79 0 969.8 NA 0.0000 UP BR 9999 0 0 0 0
2019/07/27 16:50:04 BASE 22.33 24 24.80 22 -2.8 91 -4.1 76 0 969.8 NA 0.0000 UP BR 9999 0 0 0 0
2019/07/27 16:51:04 BASE 22.30 23 24.80 22 -2.8 91 -4.0 80 0 969.7 NA 0.0000 UP BR 9999 0 0 0 0
2019/07/27 16:52:04 BASE 22.42 23 24.80 22 -2.8 91 -4.0 80 0 969.8 NA 0.0000 UP BR 9999 0 0 0 0
2019/07/27 16:53:04 BASE 21.20 23 24.80 22 -2.8 92 -4.0 81 0 969.9 NA 0.0000 UP BR 9999 0 0 0 0
2019/07/27 16:54:04 BASE 20.37 24 24.80 22 -2.8 92 -3.9 88 0 969.8 NA 0.0000 UP 9999 0 0 0 0
2019/07/27 16:55:04 BASE 20.77 25 24.80 22 -2.8 92 -3.9 97 0 969.8 NA 0.0000 UP 9999 14730 0 0 0
2019/07/27 16:56:04 BASE 20.93 24 24.80 22 -2.8 92 -3.9 101 0 969.8 NA 0.0000 UP 9999 15220 0 0 0
2019/07/27 16:57:04 BASE 20.88 24 24.80 22 -2.8 92 -3.9 102 0 969.8 NA 0.0000 UP 9999 0 0 0 0
2019/07/27 16:58:04 BASE 20.89 24 24.49 21 -2.8 92 -4.0 101 0 969.8 NA 0.0000 UP 9999 0 0 0 0
2019/07/27 16:59:04 BASE 20.93 24 24.49 21 -2.8 91 -4.0 99 0 969.8 NA 0.0000 UP 9999 0 0 0 0
2019/07/27 17:00:05 BASE 21.21 24 24.49 21 -2.8 91 -4.0 94 0 969.8 NA 0.0000 UP 9999 0 0 0 0
2019/07/27 17:01:04 BASE 21.60 24 24.44 21 -2.8 91 -4.1 88 0 969.8 NA 0.0000 UP 9999 0 0 0 0
2019/07/27 17:02:05 BASE 20.86 24 24.44 21 -2.8 91 -4.1 81 0 969.9 NA 0.0000 UP 9999 0 0 0 0
2019/07/27 17:03:04 BASE 20.62 24 24.44 21 -2.8 91 -4.1 82 0 969.9 NA 0.0000 UP 9999 0 0 0 0
2019/07/27 17:04:05 BASE 20.96 24 24.44 21 -2.8 90 -4.2 82 0 969.9 NA 0.0000 UP 9999 0 0 0 0
2019/07/27 17:05:04 BASE 20.87 23 24.44 21 -2.8 90 -4.2 78 0 969.9 NA 0.0000 UP 9999 0 0 0 0
2019/07/27 17:06:04 BASE 21.08 22 24.44 21 -2.8 90 -4.3 76 0 969.9 NA 0.0000 UP 9999 0 0 0 0
2019/07/27 17:07:04 BASE 21.73 22 24.44 21 -2.8 90 -4.3 76 0 969.9 NA 0.0000 UP 9999 0 0 0 0
2019/07/27 17:08:04 BASE 23.18 23 25.36 21 -2.9 90 -4.2 74 0 969.9 NA 0.0000 UP 9999 0 0 0 0
2019/07/27 17:09:04 BASE 23.65 23 25.36 21 -2.9 90 -4.2 73 0 969.9 NA 0.0000 UP 9000 0 0 0 0
2019/07/27 17:10:03 BASE 23.53 22 25.57 22 -2.9 91 -4.2 74 0 969.9 NA 0.0000 UP 9999 0 0 0 0
2019/07/27 17:11:04 BASE 23.79 21 25.57 22 -2.8 91 -4.1 78 0 969.9 NA 0.0000 UP 9999 0 0 0 0
2019/07/27 17:12:04 BASE 23.64 21 25.57 22 -2.8 91 -4.1 81 0 969.9 NA 0.0000 UP 9999 0 0 0 0
2019/07/27 17:13:04 BASE 23.83 22 25.57 22 -2.8 91 -4.1 83 0 969.9 NA 0.0000 UP 9999 0 0 0 0
2019/07/27 17:14:04 BASE 23.91 23 25.57 22 -2.9 91 -4.1 81 0 969.9 NA 0.0000 UP 9999 0 0 0 0
2019/07/27 17:15:05 BASE 24.60 22 26.39 22 -2.9 91 -4.2 78 0 969.8 NA 0.0000 UP 9999 0 0 0 0
2019/07/27 17:16:01 BASE 24.92 23 26.39 22 -2.9 91 -4.2 73 0 969.9 NA 0.0000 UP 9999 0 0 0 0
2019/07/27 17:17:04 BASE 24.60 22 26.39 22 -3.0 91 -4.2 66 0 969.9 NA 0.0000 UP 9999 0 0 0 0
2019/07/27 17:18:05 BASE 23.53 22 26.39 22 -3.0 91 -4.2 63 0 969.9 NA 0.0000 UP 9999 0 0 0 0
2019/07/27 17:19:04 BASE 22.16 24 26.39 22 -3.0 91 -4.3 62 0 969.9 NA 0.0000 UP 9999 0 0 0 0
2019/07/27 17:20:04 BASE 21.89 24 26.39 22 -3.0 91 -4.3 56 0 970.0 NA 0.0000 UP 9999 0 0 0 0
2019/07/27 17:21:04 BASE 21.57 24 26.39 22 -3.0 90 -4.3 51 0 970.0 NA 0.0000 UP 9999 0 0 0 0
2019/07/27 17:22:05 BASE 21.90 25 26.39 22 -3.0 90 -4.4 47 0 970.0 NA 0.0000 UP 9999 0 0 0 0
2019/07/27 17:23:03 BASE 22.94 23 26.39 22 -3.0 90 -4.4 44 0 969.9 NA 0.0000 UP 9999 0 0 0 0
2019/07/27 17:24:05 BASE 23.18 23 26.39 22 -3.0 90 -4.5 42 0 969.9 NA 0.0000 UP 9999 0 0 0 0
2019/07/27 17:25:04 BASE 22.82 24 26.03 22 -3.0 89 -4.5 41 0 970.0 NA 0.0000 UP 9999 0 0 0 0
2019/07/27 17:26:04 BASE 22.48 23 25.98 22 -3.0 89 -4.5 40 0 970.0 NA 0.0000 UP 9999 0 0 0 0
2019/07/27 17:27:03 BASE 22.59 22 25.26 23 -3.0 89 -4.6 39 0 970.0 NA 0.0000 UP 9999 0 0 0 0
2019/07/27 17:28:04 BASE 22.16 22 25.26 23 -3.0 89 -4.6 37 0 970.0 NA 0.0000 UP 9999 0 0 0 0
2019/07/27 17:29:04 BASE 22.11 23 25.26 23 -3.0 89 -4.6 36 0 970.0 NA 0.0000 UP 9999 0 0 0 0
2019/07/27 17:30:04 BASE 22.63 22 25.26 23 -3.0 88 -4.6 35 0 970.0 NA 0.0000 UP 9999 0 0 0 0
2019/07/27 17:31:04 BASE 22.66 21 25.26 23 -3.0 88 -4.7 34 0 969.9 NA 0.0000 UP 9999 0 0 0 0
2019/07/27 17:32:04 BASE 22.47 22 25.26 23 -3.0 88 -4.7 34 0 970.0 NA 0.0000 UP 9999 0 0 0 0
2019/07/27 17:33:04 BASE 22.48 22 24.85 21 -3.0 88 -4.7 32 0 970.0 NA 0.0000 UP 9999 0 0 0 0
2019/07/27 17:34:04 BASE 23.37 24 25.26 27 -3.0 88 -4.7 31 0 970.0 NA 0.0000 UP 9999 0 0 0 0
2019/07/27 17:35:04 BASE 23.66 25 25.26 27 -3.0 88 -4.7 31 0 970.0 NA 0.0000 UP 9999 0 0 0 0
2019/07/27 17:36:04 BASE 23.26 24 25.26 27 -3.0 88 -4.8 31 0 969.9 NA 0.0000 UP 9999 0 0 0 0
2019/07/27 17:37:04 BASE 22.37 25 25.26 27 -3.0 88 -4.8 33 0 970.0 NA 0.0000 UP 9999 0 0 0 0
2019/07/27 17:38:04 BASE 21.72 25 25.26 27 -3.0 87 -4.8 33 0 970.0 NA 0.0000 UP 9999 0 0 0 0
2019/07/27 17:39:04 BASE 22.22 25 25.26 27 -3.0 87 -4.8 33 0 970.0 NA 0.0000 UP 9999 0 0 0 0
2019/07/27 17:40:03 BASE 22.44 26 25.26 27 -3.0 87 -4.9 33 0 970.0 NA 0.0000 UP 9999 0 0 0 0
2019/07/27 17:41:04 BASE 21.92 25 25.26 27 -3.0 87 -4.9 32 0 970.0 NA 0.0000 UP 9999 0 0 0 0
2019/07/27 17:42:05 BASE 20.83 25 25.26 27 -3.0 87 -4.9 32 0 970.1 NA 0.0000 UP 9999 0 0 0 0
2019/07/27 17:43:04 BASE 21.28 27 25.26 27 -3.1 87 -4.9 31 0 970.0 NA 0.0000 UP 9999 0 0 0 0
2019/07/27 17:44:04 BASE 22.67 28 24.95 23 -3.1 87 -5.0 30 0 970.0 NA 0.0000 UP 9999 0 0 0 0
2019/07/27 17:45:04 BASE 22.85 28 25.31 31 -3.1 87 -5.0 29 0 969.9 NA 0.0000 UP 9999 0 0 0 0
2019/07/27 17:46:04 BASE 22.53 28 25.31 31 -3.2 87 -5.0 28 0 969.9 NA 0.0000 UP 9999 0 0 0 0
2019/07/27 17:47:04 BASE 22.74 28 25.31 31 -3.2 87 -5.0 27 0 969.9 NA 0.0000 UP 9999 0 0 0 0
2019/07/27 17:48:03 BASE 22.99 28 25.31 31 -3.2 87 -5.1 27 0 969.9 NA 0.0000 UP 9999 0 0 0 0
2019/07/27 17:49:04 BASE 22.80 26 25.31 31 -3.2 87 -5.1 27 0 969.9 NA 0.0000 UP 9999 0 0 0 0
2019/07/27 17:50:04 BASE 22.23 25 25.31 31 -3.2 86 -5.1 27 0 969.9 NA 0.0000 UP 9999 0 0 0 0
2019/07/27 17:51:04 BASE 21.68 26 25.31 31 -3.2 86 -5.2 27 0 970.0 NA 0.0000 UP 9999 0 0 0 0
2019/07/27 17:52:04 BASE 21.75 27 25.31 31 -3.2 86 -5.2 27 0 969.9 NA 0.0000 UP 9999 0 0 0 0
2019/07/27 17:53:04 BASE 21.97 28 25.31 31 -3.2 86 -5.2 26 0 969.9 NA 0.0000 UP 9999 0 0 0 0
2019/07/27 17:54:04 BASE 22.39 30 25.31 31 -3.2 86 -5.2 26 0 969.9 NA 0.0000 UP 9000 0 0 0 0
2019/07/27 17:55:04 BASE 22.56 27 25.16 25 -3.2 86 -5.2 27 0 969.9 NA 0.0000 UP 7000 0 0 0 0
2019/07/27 17:56:04 BASE 22.64 26 25.46 28 -3.2 86 -5.2 27 0 969.9 NA 0.0000 UP 7000 0 0 0 0
2019/07/27 17:57:04 BASE 22.48 26 25.46 28 -3.2 86 -5.2 26 0 969.9 NA 0.0000 UP 7000 0 0 0 0
2019/07/27 17:58:04 BASE 22.60 28 26.13 29 -3.2 86 -5.2 28 0 969.9 NA 0.0000 UP BR 8000 0 0 0 0
2019/07/27 17:59:04 BASE 22.61 28 26.13 29 -3.2 86 -5.2 29 0 969.9 NA 0.0000 UP BR 8000 0 0 0 0
2019/07/27 18:00:04 BASE 22.22 28 26.13 29 -3.1 86 -5.1 30 0 969.9 NA 0.0000 UP BR 8000 0 0 0 0
2019/07/27 18:01:04 BASE 21.71 30 26.13 29 -3.1 86 -5.1 29 0 970.0 NA 0.0000 UP BR 9000 0 0 0 0
2019/07/27 18:02:04 BASE 21.96 30 26.13 29 -3.1 86 -5.1 30 0 969.9 NA 0.0000 UP BR 9000 0 0 0 0
2019/07/27 18:03:04 BASE 22.87 30 26.13 29 -3.1 86 -5.1 30 0 969.9 NA 0.0000 UP BR 9000 0 0 0 0
2019/07/27 18:04:04 BASE 22.85 30 26.13 29 -3.1 85 -5.2 31 0 969.9 NA 0.0000 UP BR 9000 0 0 0 0
2019/07/27 18:05:04 BASE 22.67 29 26.13 29 -3.1 85 -5.3 28 0 969.8 NA 0.0000 UP BR 9000 0 0 0 0
2019/07/27 18:06:04 BASE 22.42 28 26.13 29 -3.1 85 -5.3 31 0 969.9 NA 0.0000 UP BR 9999 0 0 0 0
2019/07/27 18:07:04 BASE 21.91 29 26.13 29 -3.1 85 -5.3 30 0 969.9 NA 0.0000 UP BR 9999 0 0 0 0
2019/07/27 18:08:04 BASE 21.65 30 24.95 30 -3.1 85 -5.3 31 0 969.9 NA 0.0000 UP BR 9999 0 0 0 0
2019/07/27 18:09:05 BASE 21.95 32 24.95 30 -3.1 85 -5.3 32 0 969.9 NA 0.0000 UP 9999 0 0 0 0
2019/07/27 18:10:04 BASE 22.33 31 24.95 30 -3.1 84 -5.3 30 0 969.9 NA 0.0000 UP 9999 0 0 0 0
2019/07/27 18:11:04 BASE 21.77 29 24.95 30 -3.1 84 -5.4 27 0 969.9 NA 0.0000 UP 9999 0 0 0 0
2019/07/27 18:12:04 BASE 22.05 31 24.95 30 -3.1 84 -5.4 23 0 969.9 NA 0.0000 UP 9999 0 0 0 0
2019/07/27 18:13:04 BASE 22.48 32 25.52 34 -3.1 84 -5.4 22 0 969.9 NA 0.0000 UP 9999 0 0 0 0
2019/07/27 18:14:04 BASE 22.40 32 25.52 34 -3.1 84 -5.4 22 0 969.9 NA 0.0000 UP 9999 0 0 0 0
2019/07/27 18:15:05 BASE 22.70 30 25.67 27 -3.1 84 -5.5 21 0 969.9 NA 0.0000 UP 9999 0 0 0 0
2019/07/27 18:16:01 BASE 21.80 29 25.67 27 -3.2 84 -5.5 20 0 969.9 NA 0.0000 UP 9999 0 0 0 0
2019/07/27 18:17:04 BASE 21.57 29 25.67 27 -3.2 84 -5.6 19 0 969.9 NA 0.0000 UP 9999 0 0 0 0
2019/07/27 18:18:04 BASE 21.85 30 25.67 27 -3.2 84 -5.6 19 0 969.9 NA 0.0000 UP 9999 0 0 0 0
2019/07/27 18:19:04 BASE 22.66 31 25.67 27 -3.3 84 -5.6 19 0 969.9 NA 0.0000 UP 9999 0 0 0 0
2019/07/27 18:20:04 BASE 22.94 29 25.67 27 -3.3 84 -5.7 18 0 969.9 NA 0.0000 UP 6000 0 0 0 0
2019/07/27 18:21:04 BASE 22.07 30 25.67 27 -3.3 84 -5.7 18 0 970.0 NA 0.0000 UP 6000 0 0 0 0
2019/07/27 18:22:05 BASE 21.88 31 25.67 27 -3.3 84 -5.6 17 0 970.0 NA 0.0000 UP 6000 0 0 0 0
2019/07/27 18:23:04 BASE 22.09 29 25.67 27 -3.3 84 -5.6 17 0 970.0 NA 0.0000 UP 6000 0 0 0 0
2019/07/27 18:24:04 BASE 21.64 29 25.67 27 -3.3 84 -5.6 17 0 970.0 NA 0.0000 UP 6000 0 0 0 0
2019/07/27 18:25:04 BASE 20.86 29 24.74 33 -3.3 84 -5.6 17 0 970.0 NA 0.0000 UP 7000 0 0 0 0
2019/07/27 18:26:04 BASE 22.20 28 25.36 26 -3.3 84 -5.6 17 0 969.9 NA 0.0000 UP 9000 0 0 0 0
2019/07/27 18:27:04 BASE 23.23 28 25.36 26 -3.3 84 -5.6 16 0 969.9 NA 0.0000 UP 9000 0 0 0 0
2019/07/27 18:28:04 BASE 22.09 30 25.36 26 -3.3 84 -5.6 16 0 970.0 NA 0.0000 UP 9000 0 0 0 0
2019/07/27 18:29:04 BASE 20.94 33 25.36 26 -3.3 84 -5.6 16 0 970.0 NA 0.0000 UP 9000 0 0 0 0
2019/07/27 18:30:04 BASE 20.94 33 25.36 26 -3.3 84 -5.6 17 0 970.0 NA 0.0000 HZ 9000 0 0 0 0
2019/07/27 18:31:04 BASE 20.63 33 25.36 26 -3.3 84 -5.6 16 0 970.0 NA 0.0000 HZ 9000 0 0 0 0
2019/07/27 18:32:04 BASE 20.58 33 25.36 26 -3.3 84 -5.7 16 0 969.9 NA 0.0000 -SN 9000 0 0 0 0
2019/07/27 18:33:04 BASE 21.16 33 25.36 26 -3.4 84 -5.7 16 0 970.0 NA 0.0000 HZ 9000 0 0 0 0
2019/07/27 18:34:04 BASE 21.23 33 25.36 26 -3.4 84 -5.8 16 0 969.9 NA 0.0000 HZ 9000 0 0 0 0
2019/07/27 18:35:04 BASE 21.14 31 25.36 26 -3.4 84 -5.8 16 0 969.9 NA 0.0000 HZ 9999 0 0 0 0
2019/07/27 18:36:04 BASE 20.99 31 24.90 30 -3.4 84 -5.8 16 0 970.0 NA 0.0000 HZ 9999 0 0 0 0
2019/07/27 18:37:04 BASE 21.14 32 23.36 32 -3.4 84 -5.7 16 0 969.9 NA 0.0000 HZ 9999 0 0 0 0
2019/07/27 18:38:04 BASE 20.87 31 23.36 32 -3.4 84 -5.7 16 0 970.0 NA 0.0000 HZ 9000 0 0 0 0
2019/07/27 18:39:04 BASE 20.51 31 23.36 29 -3.4 84 -5.8 16 0 969.9 NA 0.0000 -SN 8000 0 0 0 0
2019/07/27 18:40:04 BASE 21.01 30 23.36 29 -3.4 83 -5.8 16 0 969.9 NA 0.0000 -SN 8000 0 0 0 0
2019/07/27 18:41:04 BASE 20.78 31 23.36 29 -3.4 83 -5.8 15 0 970.0 NA 0.0000 -SN 8000 0 0 0 0
2019/07/27 18:42:04 BASE 20.50 34 23.36 29 -3.4 83 -5.8 15 0 970.0 NA 0.0000 -SN 9999 0 0 0 0
2019/07/27 18:43:04 BASE 19.83 33 23.36 29 -3.4 83 -5.9 15 0 970.0 NA 0.0000 -SN 9999 0 0 0 0
2019/07/27 18:44:04 BASE 19.45 33 23.36 29 -3.4 83 -6.0 14 0 970.0 NA 0.0000 -SN 9999 0 0 0 0
2019/07/27 18:45:04 BASE 20.42 35 23.36 29 -3.5 82 -6.1 14 0 969.9 NA 0.0000 -SN 9999 0 0 0 0
2019/07/27 18:46:04 BASE 20.58 37 23.36 29 -3.5 82 -6.1 14 0 969.9 NA 0.0000 -SN 9000 0 0 0 0
2019/07/27 18:47:04 BASE 20.91 37 23.41 36 -3.5 82 -6.2 13 0 969.8 NA 0.0000 -SN 7000 0 0 0 0
2019/07/27 18:48:04 BASE 20.23 36 23.41 36 -3.5 81 -6.3 13 0 969.9 NA 0.0000 -SN 9000 0 0 0 0
2019/07/27 18:49:04 BASE 19.99 36 23.41 36 -3.5 81 -6.3 13 0 969.8 NA 0.0000 HZ 9999 0 0 0 0
2019/07/27 18:50:04 BASE 20.59 37 23.41 36 -3.5 80 -6.4 13 0 969.8 NA 0.0000 HZ 8000 0 0 0 0
2019/07/27 18:51:05 BASE 20.50 37 23.41 36 -3.5 80 -6.5 12 0 969.8 NA 0.0000 HZ 8000 0 0 0 0
2019/07/27 18:52:05 BASE 21.11 37 23.41 36 -3.6 79 -6.7 12 0 969.8 NA 0.0000 HZ 7000 0 0 0 0
2019/07/27 18:53:05 BASE 21.64 36 23.41 36 -3.6 79 -6.8 12 0 969.8 NA 0.0000 HZ 7000 0 0 0 0
2019/07/27 18:54:04 BASE 20.78 38 23.41 36 -3.7 78 -6.9 12 0 969.8 NA 0.0000 HZ 8000 0 0 0 0
2019/07/27 18:55:04 BASE 19.98 38 23.41 36 -3.7 78 -7.0 11 0 969.8 NA 0.0000 HZ 9999 0 0 0 0
2019/07/27 18:56:04 BASE 20.09 38 23.41 36 -3.7 78 -7.0 11 0 969.8 NA 0.0000 HZ 9000 0 0 0 0
2019/07/27 18:57:04 BASE 19.64 38 23.20 36 -3.7 78 -7.0 11 0 969.9 NA 0.0000 HZ 8000 0 0 0 0
2019/07/27 18:58:04 BASE 19.58 38 23.20 36 -3.7 78 -7.0 11 0 969.9 NA 0.0000 HZ 9000 0 0 0 0
2019/07/27 18:59:03 BASE 19.43 38 23.20 36 -3.7 78 -7.0 10 0 969.9 NA 0.0000 HZ 9999 0 0 0 0
2019/07/27 19:00:04 BASE 18.62 37 23.20 36 -3.8 78 -7.0 10 0 969.9 NA 0.0000 HZ 9999 0 0 0 0
2019/07/27 19:01:04 BASE 17.78 36 23.20 36 -3.8 78 -7.0 10 0 969.9 NA 0.0000 HZ 9999 0 0 0 0
2019/07/27 19:02:05 BASE 18.19 38 23.20 36 -3.9 79 -7.0 9 0 969.9 NA 0.0000 HZ 9999 0 0 0 0
2019/07/27 19:03:07 BASE 18.97 39 22.07 39 -3.9 79 -7.0 9 0 969.9 NA 0.0000 9999 0 0 0 0
2019/07/27 19:04:05 BASE 18.92 40 22.07 39 -3.9 79 -6.9 9 0 969.9 NA 0.0000 9000 0 0 0 0
2019/07/27 19:05:04 BASE 19.48 41 21.61 42 -3.9 80 -6.9 8 0 969.8 NA 0.0000 9999 0 0 0 0
2019/07/27 19:06:04 BASE 19.92 41 21.61 42 -3.9 80 -6.8 8 0 969.8 NA 0.0000 HZ 6000 0 0 0 0
2019/07/27 19:07:04 BASE 20.05 43 21.61 42 -3.8 80 -6.8 8 0 969.8 NA 0.0000 HZ 4400 0 0 0 0
2019/07/27 19:08:04 BASE 19.83 45 21.81 47 -3.8 80 -6.7 8 0 969.8 NA 0.0000 HZ 6000 0 0 0 0
2019/07/27 19:09:04 BASE 19.89 44 21.81 47 -3.8 80 -6.7 7 0 969.8 NA 0.0000 HZ 7000 0 0 0 0
2019/07/27 19:10:04 BASE 19.55 43 21.81 47 -3.7 80 -6.7 7 0 969.9 NA 0.0000 HZ 8000 0 0 0 0
2019/07/27 19:11:04 BASE 19.12 43 21.81 47 -3.7 79 -6.8 7 0 969.9 NA 0.0000 HZ 9999 0 0 0 0
2019/07/27 19:12:05 BASE 19.16 43 21.81 47 -3.7 79 -6.8 6 0 969.9 NA 0.0000 HZ 9999 0 0 0 0
2019/07/27 19:13:04 BASE 18.87 44 21.81 47 -3.6 78 -6.9 6 0 969.9 NA 0.0000 HZ 9999 0 0 0 0
2019/07/27 19:14:04 BASE 17.94 45 21.81 47 -3.6 77 -7.0 6 0 969.9 NA 0.0000 HZ 9999 0 0 0 0
2019/07/27 19:15:04 BASE 17.46 46 21.81 47 -3.6 77 -7.0 6 0 969.9 NA 0.0000 HZ 9999 0 0 0 0
2019/07/27 19:16:01 BASE 17.81 48 21.81 47 -3.5 76 -7.1 5 0 969.9 NA 0.0000 HZ 9999 0 0 0 0
2019/07/27 19:17:04 BASE 18.00 48 21.81 47 -3.5 76 -7.1 5 0 969.9 NA 0.0000 HZ 9999 0 0 0 0
2019/07/27 19:18:04 BASE 18.12 48 20.94 43 -3.5 75 -7.2 5 0 969.9 NA 0.0000 HZ 9999 0 0 0 0
2019/07/27 19:19:04 BASE 18.05 50 20.37 45 -3.4 75 -7.3 5 0 969.9 NA 0.0000 9999 0 0 0 0
2019/07/27 19:20:03 BASE 17.44 50 20.17 46 -3.4 74 -7.4 5 0 970.0 NA 0.0000 9999 0 0 0 0
2019/07/27 19:21:03 BASE 17.41 50 20.17 46 -3.4 73 -7.4 4 0 970.0 NA 0.0000 9999 0 0 0 0
2019/07/27 19:22:05 BASE 17.24 48 20.01 49 -3.4 73 -7.5 4 0 970.0 NA 0.0000 9999 0 0 0 0
2019/07/27 19:23:04 BASE 17.42 48 20.01 49 -3.4 72 -7.7 4 0 970.0 NA 0.0000 9999 0 0 0 0
2019/07/27 19:24:04 BASE 17.17 47 20.01 49 -3.4 72 -7.7 4 0 970.0 NA 0.0000 9999 0 0 0 0
2019/07/27 19:25:04 BASE 15.98 46 20.01 49 -3.4 72 -7.8 4 0 970.1 NA 0.0000 9999 0 0 0 0
2019/07/27 19:26:04 BASE 16.06 45 20.01 49 -3.4 71 -7.9 3 0 970.1 NA 0.0000 9999 0 0 0 0
2019/07/27 19:27:04 BASE 16.18 45 19.24 55 -3.5 71 -8.0 3 0 970.1 NA 0.0000 9999 0 0 0 0
2019/07/27 19:28:04 BASE 16.55 45 19.24 55 -3.5 71 -8.0 3 0 970.1 NA 0.0000 9999 0 0 0 0
2019/07/27 19:29:04 BASE 16.75 46 18.98 45 -3.6 71 -8.1 3 0 970.1 NA 0.0000 9999 16900 0 0 0
2019/07/27 19:30:04 BASE 15.81 46 18.98 45 -3.6 70 -8.2 3 0 970.1 NA 0.0000 9999 16800 0 0 0
2019/07/27 19:31:04 BASE 15.17 47 18.78 50 -3.6 70 -8.3 3 0 970.1 NA 0.0000 9999 0 0 0 0
2019/07/27 19:32:03 BASE 15.07 48 18.78 50 -3.5 69 -8.4 3 0 970.2 NA 0.0000 9999 0 0 0 0
2019/07/27 19:33:04 BASE 15.01 51 17.90 48 -3.5 68 -8.5 3 0 970.2 NA 0.0000 9999 0 0 0 0
2019/07/27 19:34:04 BASE 14.34 51 17.90 48 -3.4 67 -8.6 3 0 970.2 NA 0.0000 9999 0 0 0 0
2019/07/27 19:35:04 BASE 13.11 51 17.80 47 -3.3 66 -8.8 2 0 970.2 NA 0.0000 9999 0 0 0 0
2019/07/27 19:36:04 BASE 12.12 51 17.80 47 -3.3 65 -8.9 2 0 970.2 NA 0.0000 9999 0 0 0 0
2019/07/27 19:37:04 BASE 11.26 52 17.80 47 -3.2 64 -9.1 2 0 970.2 NA 0.0000 9999 15090 0 0 0
2019/07/27 19:38:04 BASE 10.96 53 17.80 47 -3.2 63 -9.3 2 0 970.2 NA 0.0000 9999 15420 0 0 0
2019/07/27 19:39:04 BASE 11.25 52 16.51 48 -3.3 62 -9.4 2 0 970.2 NA 0.0000 9999 0 0 0 0
2019/07/27 19:40:03 BASE 11.56 49 16.51 48 -3.3 62 -9.5 2 0 970.2 NA 0.0000 9999 0 0 0 0
2019/07/27 19:41:04 BASE 11.63 49 16.36 49 -3.3 62 -9.6 2 0 970.2 NA 0.0000 9999 15220 0 0 0
2019/07/27 19:42:05 BASE 10.63 48 15.74 53 -3.3 61 -9.7 2 0 970.2 NA 0.0000 9999 15190 0 0 0
2019/07/27 19:43:05 BASE 9.95 46 15.02 54 -3.3 61 -9.8 2 0 970.2 NA 0.0000 9999 0 0 0 0
2019/07/27 19:44:04 BASE 10.43 45 13.84 52 -3.3 60 -9.9 1 0 970.2 NA 0.0000 9999 0 0 0 0
2019/07/27 19:45:03 BASE 11.09 43 12.81 53 -3.3 59 -10.1 1 0 970.2 NA 0.0000 9999 0 0 0 0
2019/07/27 19:46:04 BASE 11.48 42 12.81 53 -3.4 58 -10.4 1 0 970.2 NA 0.0000 9999 0 0 0 0
2019/07/27 19:47:05 BASE 11.88 42 12.86 41 -3.4 58 -10.5 1 0 970.1 NA 0.0000 9999 0 0 0 0
2019/07/27 19:48:01 BASE 12.09 42 12.86 41 -3.4 57 -10.7 1 0 970.2 NA 0.0000 9999 0 0 0 0
2019/07/27 19:49:03 BASE 11.51 41 12.86 41 -3.4 56 -10.9 1 0 970.1 NA 0.0000 9999 0 0 0 0
2019/07/27 19:50:03 BASE 11.42 40 12.86 41 -3.3 55 -11.1 1 0 970.1 NA 0.0000 9999 15090 0 0 0
2019/07/27 19:51:04 BASE 12.01 40 13.02 36 -3.3 54 -11.2 1 0 970.1 NA 0.0000 9999 15160 0 0 0
2019/07/27 19:52:04 BASE 12.36 41 13.74 40 -3.2 53 -11.4 1 0 970.0 NA 0.0000 9999 15130 0 0 0
2019/07/27 19:53:04 BASE 12.99 43 14.66 45 -3.3 53 -11.5 1 0 970.0 NA 0.0000 9999 15060 0 0 0
2019/07/27 19:54:05 BASE 13.51 44 14.66 45 -3.3 52 -11.7 1 0 970.0 NA 0.0000 9999 14600 0 0 0
2019/07/27 19:55:04 BASE 13.98 45 14.92 44 -3.3 52 -11.8 1 0 969.9 NA 0.0000 9999 14440 0 0 0
2019/07/27 19:56:04 BASE 14.51 45 15.54 45 -3.4 52 -11.9 1 0 969.9 NA 0.0000 9999 14370 0 0 0
2019/07/27 19:57:04 BASE 14.61 45 15.64 47 -3.4 51 -12.1 1 0 969.9 NA 0.0000 9999 14730 0 0 0
2019/07/27 19:58:04 BASE 14.37 45 15.64 47 -3.4 51 -12.1 0 0 969.9 NA 0.0000 9999 15490 0 0 0
2019/07/27 19:59:04 BASE 13.83 45 15.64 47 -3.4 51 -12.1 0 0 969.9 NA 0.0000 9999 14080 0 0 0
2019/07/27 20:00:04 BASE 13.77 46 15.64 47 -3.4 51 -12.1 0 0 969.9 NA 0.0000 9999 13940 0 0 0
2019/07/27 20:01:04 BASE 14.80 46 16.51 45 -3.4 51 -12.1 0 0 969.9 NA 0.0000 9999 13850 0 0 0
2019/07/27 20:02:04 BASE 15.56 45 16.51 51 -3.3 51 -12.0 0 0 969.8 NA 0.0000 9999 14310 0 0 0
2019/07/27 20:03:03 BASE 15.53 46 16.51 51 -3.3 51 -12.0 0 0 969.8 NA 0.0000 9999 14830 0 0 0
2019/07/27 20:04:04 BASE 15.14 48 16.51 51 -3.3 51 -12.1 0 0 969.8 NA 0.0000 9999 14270 0 0 0
2019/07/27 20:05:03 BASE 14.66 49 16.51 51 -3.3 51 -12.0 0 0 969.8 NA 0.0000 9999 14370 0 0 0
2019/07/27 20:06:04 BASE 14.17 49 16.51 51 -3.3 51 -12.0 0 0 969.8 NA 0.0000 9999 14270 0 0 0
2019/07/27 20:07:05 BASE 14.41 49 16.51 51 -3.3 51 -11.9 0 0 969.8 NA 0.0000 9999 14340 0 0 0
2019/07/27 20:08:04 BASE 15.05 48 16.93 53 -3.3 52 -11.9 0 0 969.8 NA 0.0000 9999 14140 0 0 0
2019/07/27 20:09:04 BASE 15.29 48 16.93 53 -3.4 52 -11.8 0 0 969.8 NA 0.0000 9999 13980 0 0 0
2019/07/27 20:10:03 BASE 15.83 47 16.98 48 -3.4 53 -11.7 0 0 969.8 NA 0.0000 9999 13810 0 0 0
2019/07/27 20:11:03 BASE 16.43 47 17.44 48 -3.5 53 -11.7 0 0 969.7 NA 0.0000 9999 13910 0 0 0
2019/07/27 20:12:05 BASE 16.88 47 18.57 50 -3.5 53 -11.8 0 0 969.7 NA 0.0000 9999 13910 0 0 0
2019/07/27 20:13:05 BASE 17.20 48 18.57 50 -3.5 53 -11.8 0 0 969.7 NA 0.0000 9999 13910 0 0 0
2019/07/27 20:14:06 BASE 16.81 47 18.57 50 -3.5 53 -11.8 0 0 969.7 NA 0.0000 9999 13810 0 0 0
2019/07/27 20:15:05 BASE 16.29 46 18.57 50 -3.5 53 -11.7 0 0 969.6 NA 0.0000 9999 13680 0 0 0
2019/07/27 20:16:04 BASE 16.65 45 18.57 50 -3.4 53 -11.7 0 0 969.6 NA 0.0000 9999 13680 0 0 0
2019/07/27 20:17:04 BASE 17.03 47 18.57 50 -3.4 52 -11.8 0 0 969.6 NA 0.0000 9999 13550 0 0 0
2019/07/27 20:18:04 BASE 16.86 48 18.57 50 -3.5 52 -11.9 0 0 969.6 NA 0.0000 9999 13650 0 0 0
2019/07/27 20:19:05 BASE 16.60 47 18.57 50 -3.5 52 -11.9 0 0 969.6 NA 0.0000 9999 13650 0 0 0
2019/07/27 20:20:04 BASE 16.81 48 18.57 50 -3.6 52 -12.0 0 0 969.6 NA 0.0000 9999 13650 0 0 0
2019/07/27 20:21:04 BASE 17.31 48 18.57 50 -3.6 52 -12.0 0 0 969.5 NA 0.0000 9999 13680 0 0 0
2019/07/27 20:22:05 BASE 17.45 47 19.19 50 -3.7 53 -11.9 0 0 969.5 NA 0.0000 9999 13580 0 0 0
2019/07/27 20:23:04 BASE 16.58 47 19.19 50 -3.6 53 -11.9 0 0 969.5 NA 0.0000 9999 13650 0 0 0
2019/07/27 20:24:04 BASE 15.87 48 19.19 50 -3.6 53 -11.8 0 0 969.5 NA 0.0000 9999 13580 0 0 0
2019/07/27 20:25:04 BASE 16.00 49 19.19 50 -3.5 53 -11.8 0 0 969.5 NA 0.0000 9999 13520 0 0 0
2019/07/27 20:26:04 BASE 16.05 49 19.19 50 -3.4 52 -11.8 0 0 969.5 NA 0.0000 9999 13680 14210 0 0
2019/07/27 20:27:04 BASE 16.15 48 19.19 50 -3.4 52 -11.8 0 0 969.5 NA 0.0000 9999 14140 0 0 0
2019/07/27 20:28:05 BASE 16.69 48 19.86 50 -3.4 52 -11.9 0 0 969.4 NA 0.0000 9999 13710 0 0 0
2019/07/27 20:29:04 BASE 17.63 50 19.86 50 -3.5 51 -12.2 0 0 969.4 NA 0.0000 9999 13910 0 0 0
2019/07/27 20:30:04 BASE 17.89 49 19.86 50 -3.6 51 -12.4 0 0 969.4 NA 0.0000 9999 14080 14530 0 0
2019/07/27 20:31:05 BASE 18.37 51 20.32 54 -3.6 51 -12.4 0 0 969.3 NA 0.0000 9999 14010 14470 0 0
2019/07/27 20:32:05 BASE 18.41 51 20.32 54 -3.7 50 -12.5 0 0 969.3 NA 0.0000 9999 14010 0 0 0
2019/07/27 20:33:04 BASE 17.74 51 20.32 54 -3.6 50 -12.5 0 0 969.3 NA 0.0000 9999 14040 0 0 0
2019/07/27 20:34:05 BASE 17.63 49 20.32 54 -3.6 50 -12.5 0 0 969.3 NA 0.0000 9999 14140 0 0 0
2019/07/27 20:35:05 BASE 17.57 49 20.32 54 -3.5 50 -12.4 0 0 969.3 NA 0.0000 9999 14210 0 0 0
2019/07/27 20:36:04 BASE 17.98 48 20.32 54 -3.4 50 -12.3 0 0 969.2 NA 0.0000 9999 14240 0 0 0
2019/07/27 20:37:05 BASE 18.08 48 20.32 54 -3.3 50 -12.3 0 0 969.2 NA 0.0000 9999 14110 0 0 0
2019/07/27 20:38:04 BASE 17.42 50 20.32 54 -3.2 50 -12.3 0 0 969.2 NA 0.0000 9999 14600 0 0 0
2019/07/27 20:39:05 BASE 17.17 51 20.32 54 -3.2 49 -12.3 0 0 969.2 NA 0.0000 9999 14670 0 0 0
2019/07/27 20:40:04 BASE 17.25 52 20.32 54 -3.1 49 -12.3 0 0 969.2 NA 0.0000 9999 14630 0 0 0
2019/07/27 20:41:04 BASE 17.01 51 19.29 48 -3.1 49 -12.4 0 0 969.2 NA 0.0000 9999 14760 0 0 0
2019/07/27 20:42:05 BASE 17.85 51 19.96 49 -3.1 48 -12.5 0 0 969.2 NA 0.0000 9999 14730 0 0 0
2019/07/27 20:43:04 BASE 18.21 50 19.96 49 -3.1 48 -12.5 0 0 969.2 NA 0.0000 9999 14760 0 0 0
2019/07/27 20:44:05 BASE 17.08 51 19.96 49 -3.1 48 -12.6 0 0 969.2 NA 0.0000 9999 14760 0 0 0
2019/07/27 20:45:04 BASE 16.44 54 19.96 49 -3.1 48 -12.6 0 0 969.2 NA 0.0000 9999 14830 0 0 0
2019/07/27 20:46:05 BASE 16.40 54 19.96 49 -3.1 48 -12.6 0 0 969.2 NA 0.0000 9999 14930 0 0 0
2019/07/27 20:47:04 BASE 16.67 51 19.96 49 -3.1 48 -12.6 0 0 969.2 NA 0.0000 9999 14960 0 0 0
2019/07/27 20:48:04 BASE 17.14 54 19.96 49 -3.2 48 -12.6 0 0 969.2 NA 0.0000 9999 14900 0 0 0
2019/07/27 20:49:04 BASE 16.98 55 19.96 49 -3.1 48 -12.6 0 0 969.2 NA 0.0000 9999 14930 0 0 0
2019/07/27 20:50:04 BASE 16.59 54 19.96 49 -3.1 48 -12.6 0 0 969.2 NA 0.0000 9999 15090 0 0 0
2019/07/27 20:51:05 BASE 17.52 54 19.96 49 -3.1 48 -12.7 0 0 969.2 NA 0.0000 9999 15090 0 0 0
2019/07/27 20:52:06 BASE 17.41 54 19.50 55 -3.1 47 -12.9 0 0 969.2 NA 0.0000 9999 14990 0 0 0
2019/07/27 20:53:04 BASE 16.80 54 19.50 55 -3.0 46 -13.0 0 0 969.2 NA 0.0000 9999 14990 0 0 0
2019/07/27 20:54:05 BASE 16.59 54 19.50 55 -3.0 46 -13.0 0 0 969.2 NA 0.0000 9999 15060 0 0 0
2019/07/27 20:55:04 BASE 16.59 53 19.50 55 -3.0 46 -13.1 0 0 969.2 NA 0.0000 9999 15060 0 0 0
2019/07/27 20:56:05 BASE 16.69 52 19.50 55 -3.0 46 -13.1 0 0 969.2 NA 0.0000 9999 15160 0 0 0
2019/07/27 20:57:04 BASE 16.85 52 19.50 55 -3.0 46 -13.0 0 0 969.2 NA 0.0000 9999 15130 0 0 0
2019/07/27 20:58:05 BASE 17.10 51 19.14 58 -3.1 46 -13.1 0 0 969.2 NA 0.0000 9999 15190 0 0 0
2019/07/27 20:59:02 BASE 17.22 49 19.14 58 -3.2 46 -13.1 0 0 969.2 NA 0.0000 9999 15260 0 0 0
2019/07/27 21:00:04 BASE 17.20 49 19.14 58 -3.2 47 -13.0 0 0 969.2 NA 0.0000 9999 15290 0 0 0
2019/07/27 21:01:04 BASE 16.37 47 18.73 48 -3.3 47 -13.0 0 0 969.2 NA 0.0000 9999 15390 0 0 0
2019/07/27 21:02:05 BASE 16.06 45 18.73 48 -3.3 47 -13.0 0 0 969.2 NA 0.0000 9999 15320 0 0 0
2019/07/27 21:03:02 BASE 16.41 46 18.73 48 -3.3 47 -13.0 0 0 969.2 NA 0.0000 9999 15390 0 0 0
2019/07/27 21:04:05 BASE 16.53 45 18.73 48 -3.3 47 -13.0 0 0 969.2 NA 0.0000 9999 15360 0 0 0
2019/07/27 21:05:04 BASE 17.07 46 19.29 43 -3.2 47 -13.1 0 0 969.1 NA 0.0000 9999 15420 0 0 0
2019/07/27 21:06:04 BASE 16.83 47 19.29 43 -3.2 46 -13.2 0 0 969.2 NA 0.0000 9999 15390 0 0 0
2019/07/27 21:07:06 BASE 16.35 46 19.29 43 -3.2 46 -13.2 0 0 969.2 NA 0.0000 9999 15360 0 0 0
2019/07/27 21:08:05 BASE 17.03 45 19.29 43 -3.2 46 -13.3 0 0 969.2 NA 0.0000 9999 15320 0 0 0
2019/07/27 21:09:04 BASE 17.54 45 19.29 43 -3.3 46 -13.3 0 0 969.2 NA 0.0000 9999 15320 0 0 0
2019/07/27 21:10:04 BASE 17.30 45 19.29 43 -3.4 46 -13.3 0 0 969.2 NA 0.0000 9999 15360 0 0 0
2019/07/27 21:11:04 BASE 17.26 44 19.29 43 -3.4 47 -13.2 0 0 969.2 NA 0.0000 9999 15390 0 0 0
2019/07/27 21:12:05 BASE 17.72 44 19.91 45 -3.5 47 -13.1 0 0 969.3 NA 0.0000 9999 15490 0 0 0
2019/07/27 21:13:04 BASE 18.08 43 20.11 43 -3.5 48 -13.0 0 0 969.3 NA 0.0000 9999 15650 0 0 0
2019/07/27 21:14:04 BASE 18.48 43 20.42 43 -3.5 48 -13.0 0 0 969.3 NA 0.0000 9999 15680 0 0 0
2019/07/27 21:15:06 BASE 18.50 44 20.42 43 -3.5 48 -13.0 0 0 969.3 NA 0.0000 9999 15720 0 0 0
2019/07/27 21:16:04 BASE 18.50 43 20.42 43 -3.6 48 -13.0 0 0 969.3 NA 0.0000 9999 15650 0 0 0
2019/07/27 21:17:01 BASE 18.55 41 20.42 43 -3.6 48 -13.0 0 0 969.4 NA 0.0000 9999 15650 0 0 0
2019/07/27 21:18:04 BASE 18.26 40 20.47 41 -3.6 48 -12.9 0 0 969.4 NA 0.0000 9999 15980 0 0 0
2019/07/27 21:19:03 BASE 18.55 40 20.47 41 -3.6 48 -12.9 0 0 969.4 NA 0.0000 9999 15880 0 0 0
2019/07/27 21:20:04 BASE 18.91 39 20.53 37 -3.6 49 -12.9 0 0 969.4 NA 0.0000 9999 15750 0 0 0
2019/07/27 21:21:04 BASE 19.06 40 20.53 37 -3.6 49 -12.9 0 0 969.4 NA 0.0000 9999 15680 0 0 0
2019/07/27 21:22:04 BASE 19.18 40 20.53 44 -3.6 49 -12.9 0 0 969.4 NA 0.0000 9999 15910 0 0 0
2019/07/27 21:23:04 BASE 19.58 42 21.20 42 -3.6 49 -12.9 0 0 969.4 NA 0.0000 9999 16010 0 0 0
2019/07/27 21:24:03 BASE 19.99 42 21.20 42 -3.6 49 -12.9 0 0 969.4 NA 0.0000 9999 15980 0 0 0
2019/07/27 21:25:03 BASE 19.65 41 21.20 42 -3.6 49 -12.8 0 0 969.4 NA 0.0000 9999 15130 0 0 0
2019/07/27 21:26:04 BASE 19.93 41 21.50 45 -3.7 49 -12.8 0 0 969.4 NA 0.0000 9999 15090 0 0 0
2019/07/27 21:27:04 BASE 19.97 41 21.50 45 -3.7 50 -12.6 0 0 969.5 NA 0.0000 9999 15390 0 0 0
2019/07/27 21:28:04 BASE 18.83 41 21.50 45 -3.7 51 -12.5 0 0 969.5 NA 0.0000 9999 15450 0 0 0
2019/07/27 21:29:04 BASE 18.53 42 21.50 45 -3.7 51 -12.4 0 0 969.5 NA 0.0000 9999 15580 0 0 0
2019/07/27 21:30:03 BASE 18.95 41 21.50 45 -3.7 51 -12.4 0 0 969.5 NA 0.0000 9999 15090 0 0 0
2019/07/27 21:31:04 BASE 18.08 42 21.50 45 -3.6 51 -12.4 0 0 969.6 NA 0.0000 9999 14960 0 0 0
2019/07/27 21:32:05 BASE 17.64 43 21.50 45 -3.6 51 -12.4 0 0 969.5 NA 0.0000 9999 15130 0 0 0
2019/07/27 21:33:04 BASE 18.59 43 21.50 45 -3.6 51 -12.3 0 0 969.5 NA 0.0000 9999 14400 15030 0 0
2019/07/27 21:34:05 BASE 18.87 43 21.50 45 -3.6 51 -12.3 0 0 969.5 NA 0.0000 9999 14340 0 0 0
2019/07/27 21:35:04 BASE 17.75 43 21.50 45 -3.6 51 -12.2 0 0 969.6 NA 0.0000 9999 14860 0 0 0
2019/07/27 21:36:05 BASE 17.70 45 20.58 44 -3.6 52 -12.1 0 0 969.6 NA 0.0000 9999 14700 0 0 0
2019/07/27 21:37:04 BASE 18.32 47 20.58 44 -3.5 52 -12.1 0 0 969.5 NA 0.0000 9999 14270 14760 0 0
2019/07/27 21:38:05 BASE 18.18 46 20.58 44 -3.5 51 -12.1 0 0 969.5 NA 0.0000 9999 14140 14960 0 0
2019/07/27 21:39:04 BASE 17.93 46 20.58 44 -3.5 51 -12.1 0 0 969.5 NA 0.0000 9999 13520 14700 0 0
2019/07/27 21:40:04 BASE 18.00 44 20.58 44 -3.4 51 -12.1 0 0 969.5 NA 0.0000 9999 14040 0 0 0
2019/07/27 21:41:05 BASE 18.08 43 20.58 44 -3.5 51 -12.1 0 0 969.5 NA 0.0000 9999 13350 14340 0 0
2019/07/27 21:42:04 BASE 17.83 45 20.58 44 -3.5 52 -12.0 0 0 969.5 NA 0.0000 9999 13320 14370 0 0
2019/07/27 21:43:04 BASE 17.47 46 20.58 44 -3.5 52 -12.0 0 0 969.5 NA 0.0000 9999 13290 13980 0 0
2019/07/27 21:44:04 BASE 17.18 46 19.81 43 -3.5 52 -12.0 0 0 969.5 NA 0.0000 9999 13450 13940 0 0
2019/07/27 21:45:04 BASE 17.36 48 19.81 43 -3.6 52 -12.0 0 0 969.5 NA 0.0000 9999 13390 14080 0 0
2019/07/27 21:46:04 BASE 17.65 48 19.81 43 -3.6 52 -12.0 0 0 969.5 NA 0.0000 9999 13350 13940 0 0
2019/07/27 21:47:04 BASE 17.13 49 19.81 43 -3.6 53 -11.9 0 0 969.5 NA 0.0000 9999 13260 13910 0 0
2019/07/27 21:48:05 BASE 16.79 49 19.81 43 -3.6 53 -11.8 0 0 969.5 NA 0.0000 9999 13060 13710 0 0
2019/07/27 21:49:04 BASE 17.18 50 19.81 43 -3.5 53 -11.7 0 0 969.5 NA 0.0000 9999 13390 0 0 0
2019/07/27 21:50:03 BASE 17.11 51 19.34 51 -3.5 53 -11.6 0 0 969.5 NA 0.0000 9999 13190 13650 14240 0
2019/07/27 21:51:03 BASE 17.34 51 19.34 53 -3.5 53 -11.6 0 0 969.5 NA 0.0000 9999 13090 0 0 0
2019/07/27 21:52:04 BASE 17.49 51 19.34 53 -3.4 53 -11.6 0 0 969.4 NA 0.0000 9999 13220 0 0 0
2019/07/27 21:53:04 BASE 17.72 50 20.47 45 -3.4 53 -11.7 0 0 969.4 NA 0.0000 9999 13120 0 0 0
2019/07/27 21:54:05 BASE 17.50 49 20.47 45 -3.3 52 -11.7 0 0 969.3 NA 0.0000 9999 13160 14600 0 0
2019/07/27 21:55:04 BASE 16.95 49 20.47 45 -3.3 52 -11.8 0 0 969.3 NA 0.0000 9999 13120 0 0 0
2019/07/27 21:56:04 BASE 16.80 49 20.47 45 -3.3 52 -11.8 0 0 969.3 NA 0.0000 9999 13060 0 0 0
2019/07/27 21:57:04 BASE 16.76 51 20.47 45 -3.3 52 -11.8 0 0 969.3 NA 0.0000 9999 13120 0 0 0
2019/07/27 21:58:04 BASE 17.16 52 20.47 45 -3.4 52 -11.9 0 0 969.2 NA 0.0000 9999 11290 13060 0 0
2019/07/27 21:59:04 BASE 17.79 52 20.47 45 -3.4 52 -11.9 0 0 969.2 NA 0.0000 9999 11290 13030 0 0
2019/07/27 22:00:04 BASE 18.10 54 20.47 45 -3.4 52 -11.9 0 0 969.2 NA 0.0000 9999 12930 0 0 0
2019/07/27 22:01:01 BASE 18.32 55 20.47 45 -3.4 52 -11.8 0 0 969.2 NA 0.0000 9999 11450 12930 0 0
2019/07/27 22:02:06 BASE 19.01 55 20.47 45 -3.4 52 -11.8 0 0 969.2 NA 0.0000 9999 11250 12890 0 0
2019/07/27 22:03:04 BASE 18.56 55 20.22 51 -3.4 52 -11.8 0 0 969.2 NA 0.0000 9999 11350 12630 0 0
2019/07/27 22:04:05 BASE 17.47 56 20.22 51 -3.4 52 -11.8 0 0 969.1 NA 0.0000 9999 11390 12340 0 0
2019/07/27 22:05:04 BASE 17.42 55 20.22 51 -3.4 53 -11.7 0 0 969.1 NA 0.0000 9999 12500 0 0 0
2019/07/27 22:06:05 BASE 17.49 54 20.22 51 -3.5 53 -11.6 0 0 969.1 NA 0.0000 9999 12500 0 0 0
2019/07/27 22:07:05 BASE 17.06 55 20.22 51 -3.5 54 -11.5 0 0 969.1 NA 0.0000 9999 12570 0 0 0
2019/07/27 22:08:05 BASE 16.64 56 20.22 51 -3.5 54 -11.4 0 0 969.1 NA 0.0000 9999 11420 12990 14930 0
2019/07/27 22:09:05 BASE 16.00 56 20.22 51 -3.4 55 -11.3 0 0 969.1 NA 0.0000 9999 12990 15060 0 0
2019/07/27 22:10:04 BASE 16.11 54 20.22 51 -3.4 55 -11.2 0 0 969.1 NA 0.0000 9999 11480 12890 15130 0
2019/07/27 22:11:05 BASE 16.36 54 20.22 51 -3.3 54 -11.3 0 0 969.1 NA 0.0000 9999 11420 12860 0 0
2019/07/27 22:12:05 BASE 15.94 56 19.65 54 -3.3 54 -11.3 0 0 969.1 NA 0.0000 9999 11390 12730 0 0
2019/07/27 22:13:05 BASE 15.99 57 19.65 54 -3.3 54 -11.3 0 0 969.1 NA 0.0000 9999 11350 12700 0 0
2019/07/27 22:14:05 BASE 15.60 58 19.65 54 -3.4 54 -11.3 0 0 969.1 NA 0.0000 9999 11350 12630 0 0
2019/07/27 22:15:12 BASE 15.20 58 19.65 54 -3.5 55 -11.2 0 0 969.1 NA 0.0000 9999 11350 12570 0 0
2019/07/27 22:16:05 BASE 15.94 57 18.57 56 -3.5 56 -11.1 0 0 969.0 NA 0.0000 9999 11450 12530 13420 0
2019/07/27 22:17:04 BASE 17.09 56 19.55 62 -3.5 56 -11.0 0 0 969.0 NA 0.0000 9999 12570 13420 0 0
2019/07/27 22:18:05 BASE 16.69 56 19.55 62 -3.5 56 -11.0 0 0 969.1 NA 0.0000 9999 12600 13520 0 0
2019/07/27 22:19:04 BASE 15.37 55 19.55 62 -3.5 57 -10.9 0 0 969.0 NA 0.0000 9999 12730 13620 0 0
2019/07/27 22:20:04 BASE 16.26 56 19.55 62 -3.5 57 -10.8 0 0 969.0 NA 0.0000 9999 12890 0 0 0
2019/07/27 22:21:05 BASE 17.53 55 19.55 62 -3.4 57 -10.8 0 0 968.9 NA 0.0000 9999 13060 0 0 0
2019/07/27 22:22:05 BASE 17.89 55 19.81 62 -3.4 57 -10.7 0 0 968.9 NA 0.0000 9999 13090 0 0 0
2019/07/27 22:23:04 BASE 18.14 55 20.47 55 -3.3 57 -10.6 0 0 968.9 NA 0.0000 9999 13160 0 0 0
2019/07/27 22:24:04 BASE 17.98 55 20.63 58 -3.3 57 -10.5 0 0 968.9 NA 0.0000 9999 13160 0 0 0
2019/07/27 22:25:04 BASE 18.10 55 20.63 58 -3.2 57 -10.6 0 0 968.8 NA 0.0000 9999 13120 0 0 0
2019/07/27 22:26:05 BASE 18.91 55 21.76 59 -3.2 57 -10.6 0 0 968.8 NA 0.0000 9999 12430 12990 0 0
2019/07/27 22:27:05 BASE 19.16 55 21.76 59 -3.1 56 -10.6 0 0 968.8 NA 0.0000 9999 12340 13030 0 0
2019/07/27 22:28:05 BASE 18.46 55 21.76 59 -3.1 56 -10.7 0 0 968.8 NA 0.0000 9999 12400 13090 0 0
2019/07/27 22:29:04 BASE 19.14 55 21.76 59 -3.1 56 -10.8 0 0 968.7 NA 0.0000 9999 12430 0 0 0
2019/07/27 22:30:04 BASE 19.85 55 22.38 54 -3.1 55 -10.8 0 0 968.7 NA 0.0000 9999 11840 0 0 0
2019/07/27 22:31:05 BASE 19.08 54 22.38 54 -3.2 55 -10.8 0 0 968.7 NA 0.0000 9999 11780 0 0 0
2019/07/27 22:32:05 BASE 19.15 53 22.38 54 -3.2 56 -10.8 0 0 968.7 NA 0.0000 9999 11880 0 0 0
2019/07/27 22:33:04 BASE 20.60 53 23.77 55 -3.2 56 -10.7 0 0 968.6 NA 0.0000 8000 10990 12040 0 0
2019/07/27 22:34:05 BASE 21.43 55 23.77 55 -3.2 56 -10.7 0 0 968.7 NA 0.0000 7000 10930 11880 0 0
2019/07/27 22:35:04 BASE 21.61 57 23.77 55 -3.2 56 -10.6 0 0 968.6 NA 0.0000 8000 10830 11840 0 0
2019/07/27 22:36:05 BASE 21.92 57 23.77 55 -3.2 56 -10.6 0 0 968.6 NA 0.0000 HZ 8000 10730 11780 0 0
2019/07/27 22:37:05 BASE 22.03 58 23.77 55 -3.2 56 -10.7 0 0 968.6 NA 0.0000 HZ 8000 10760 11840 0 0
2019/07/27 22:38:02 BASE 22.09 58 24.64 61 -3.2 56 -10.7 0 0 968.6 NA 0.0000 HZ 9000 10830 11980 0 0
2019/07/27 22:39:04 BASE 21.93 59 24.64 61 -3.1 56 -10.8 0 0 968.6 NA 0.0000 HZ 9000 10830 0 0 0
2019/07/27 22:40:04 BASE 21.84 60 24.64 61 -3.1 55 -10.8 0 0 968.6 NA 0.0000 HZ 9000 9090 10790 0 0
2019/07/27 22:41:04 BASE 21.14 61 24.64 61 -3.1 55 -10.8 0 0 968.7 NA 0.0000 HZ 9000 8730 10730 0 0
2019/07/27 22:42:05 BASE 19.92 63 24.64 61 -3.0 55 -10.8 0 0 968.7 NA 0.0000 HZ 9999 8500 10790 0 0
2019/07/27 22:43:04 BASE 19.15 64 24.64 61 -3.0 55 -10.8 0 0 968.7 NA 0.0000 HZ 9999 8460 10600 0 0
2019/07/27 22:44:05 BASE 19.21 64 24.64 61 -3.0 55 -10.8 0 0 968.8 NA 0.0000 HZ 9999 8370 10560 0 0
2019/07/27 22:45:04 BASE 19.27 65 24.64 61 -3.0 54 -10.9 0 0 968.8 NA 0.0000 HZ 9999 8330 0 0 0
2019/07/27 22:46:01 BASE 19.07 67 24.64 61 -2.9 53 -11.1 0 0 968.8 NA 0.0000 9999 8400 0 0 0
2019/07/27 22:47:04 BASE 18.43 68 24.64 61 -2.9 52 -11.3 0 0 968.8 NA 0.0000 9999 8400 0 0 0
2019/07/27 22:48:05 BASE 18.10 66 23.20 62 -2.8 51 -11.6 0 0 968.9 NA 0.0000 9999 8370 0 0 0
2019/07/27 22:49:04 BASE 18.74 65 22.94 59 -2.8 50 -11.8 0 0 968.9 NA 0.0000 9999 8330 0 0 0
2019/07/27 22:50:04 BASE 18.97 66 21.97 60 -2.7 49 -11.9 0 0 968.9 NA 0.0000 9999 8270 0 0 0
2019/07/27 22:51:04 BASE 18.90 64 21.25 60 -2.7 49 -12.0 0 0 968.9 NA 0.0000 9999 8300 0 0 0
2019/07/27 22:52:05 BASE 18.85 65 21.04 63 -2.7 49 -12.0 0 0 968.9 NA 0.0000 9999 8430 0 0 0
2019/07/27 22:53:04 BASE 18.99 66 20.78 65 -2.8 49 -12.0 0 0 968.8 NA 0.0000 9999 8460 0 0 0
2019/07/27 22:54:05 BASE 19.16 69 20.58 75 -2.8 49 -12.1 0 0 968.8 NA 0.0000 9999 8530 0 0 0
2019/07/27 22:55:05 BASE 18.82 71 20.58 75 -2.9 49 -12.1 0 0 968.9 NA 0.0000 9999 8600 0 0 0
2019/07/27 22:56:05 BASE 19.15 71 20.99 74 -3.0 50 -12.1 0 0 968.8 NA 0.0000 9999 7610 8600 0 0
2019/07/27 22:57:04 BASE 19.55 72 20.99 74 -3.1 50 -12.1 0 0 968.7 NA 0.0000 9999 7420 0 0 0
2019/07/27 22:58:04 BASE 19.04 74 20.99 74 -3.1 50 -12.2 0 0 968.7 NA 0.0000 9999 7120 0 0 0
2019/07/27 22:59:04 BASE 18.96 74 20.99 74 -3.2 50 -12.2 0 0 968.7 NA 0.0000 9999 7120 0 0 0
2019/07/27 23:00:04 BASE 18.97 74 20.99 74 -3.2 49 -12.3 0 0 968.6 NA 0.0000 9999 6860 0 0 0
2019/07/27 23:01:04 BASE 18.86 78 21.25 78 -3.2 49 -12.3 0 0 968.6 NA 0.0000 9999 6500 0 0 0
2019/07/27 23:02:04 BASE 18.76 80 21.25 78 -3.2 49 -12.4 0 0 968.6 NA 0.0000 9999 6690 0 0 0
2019/07/27 23:03:04 BASE 18.87 78 21.61 77 -3.3 49 -12.4 0 0 968.6 NA 0.0000 9999 7510 0 0 0
2019/07/27 23:04:05 BASE 19.27 75 21.61 77 -3.3 50 -12.4 0 0 968.5 NA 0.0000 9999 8070 0 0 0
2019/07/27 23:05:02 BASE 19.71 74 22.64 74 -3.4 50 -12.4 0 0 968.5 NA 0.0000 9999 8600 10300 0 0
2019/07/27 23:06:05 BASE 20.02 74 22.64 74 -3.3 50 -12.3 0 0 968.5 NA 0.0000 9999 10430 0 0 0
2019/07/27 23:07:05 BASE 19.55 74 22.64 74 -3.2 49 -12.3 0 0 968.5 NA 0.0000 9999 6330 10430 0 0
2019/07/27 23:08:05 BASE 18.86 76 22.64 74 -3.0 49 -12.3 0 0 968.5 NA 0.0000 9999 6330 0 0 0
2019/07/27 23:09:01 BASE 18.68 77 22.64 74 -2.9 48 -12.3 0 0 968.5 NA 0.0000 9999 6230 0 0 0
2019/07/27 23:10:04 BASE 17.83 77 22.64 74 -2.7 48 -12.3 0 0 968.5 NA 0.0000 9999 6460 0 0 0
2019/07/27 23:11:06 BASE 16.84 76 22.64 74 -2.7 47 -12.4 0 0 968.5 NA 0.0000 9999 6560 0 0 0
2019/07/27 23:12:05 BASE 16.59 78 22.64 74 -2.6 47 -12.4 0 0 968.5 NA 0.0000 9999 6500 0 0 0
2019/07/27 23:13:01 BASE 16.22 82 22.64 74 -2.7 47 -12.3 0 0 968.5 NA 0.0000 9999 6730 0 0 0
2019/07/27 23:14:05 BASE 15.20 84 22.64 74 -2.7 48 -12.3 0 0 968.5 NA 0.0000 9999 6430 0 0 0
2019/07/27 23:15:05 BASE 15.47 84 21.50 69 -2.8 48 -12.3 0 0 968.5 NA 0.0000 9999 6460 0 0 0
2019/07/27 23:16:02 BASE 16.47 80 20.68 79 -3.0 49 -12.3 0 0 968.4 NA 0.0000 9999 7090 9580 0 0
2019/07/27 23:17:04 BASE 17.46 74 21.04 69 -3.1 49 -12.3 0 0 968.4 NA 0.0000 9999 8830 9810 0 0
2019/07/27 23:18:01 BASE 19.01 70 21.04 69 -3.3 50 -12.1 0 0 968.3 NA 0.0000 9999 8730 10070 0 0
2019/07/27 23:19:04 BASE 19.87 69 21.76 70 -3.3 51 -12.0 0 0 968.3 NA 0.0000 9999 8660 0 0 0
2019/07/27 23:20:04 BASE 20.40 70 22.48 71 -3.4 52 -11.9 0 0 968.3 NA 0.0000 9999 8010 8600 0 0
2019/07/27 23:21:04 BASE 21.28 70 23.77 67 -3.3 52 -11.8 0 0 968.2 NA 0.0000 9999 8370 0 0 0
2019/07/27 23:22:05 BASE 22.09 71 24.44 68 -3.2 52 -11.7 0 0 968.1 NA 0.0000 9999 8300 0 0 0
2019/07/27 23:23:01 BASE 22.23 73 24.44 68 -3.1 52 -11.7 0 0 968.2 NA 0.0000 9000 8300 0 0 0
2019/07/27 23:24:05 BASE 21.02 76 24.44 68 -3.0 51 -11.7 0 0 968.2 NA 0.0000 9999 8500 0 0 0
2019/07/27 23:25:05 BASE 19.33 77 24.44 68 -3.0 51 -11.7 0 0 968.2 NA 0.0000 9999 8600 0 0 0
2019/07/27 23:26:05 BASE 17.45 81 24.44 68 -2.9 50 -11.8 0 0 968.2 NA 0.0000 9999 8400 0 0 0
2019/07/27 23:27:04 BASE 16.55 85 24.44 68 -2.8 50 -11.8 0 0 968.2 NA 0.0000 9999 8460 0 0 0
2019/07/27 23:28:01 BASE 16.14 85 24.44 68 -2.8 50 -11.9 0 0 968.2 NA 0.0000 9999 8270 8830 0 0
2019/07/27 23:29:04 BASE 14.87 84 24.44 68 -2.9 50 -11.8 0 0 968.2 NA 0.0000 9999 8330 9150 0 0
2019/07/27 23:30:04 BASE 14.64 83 24.44 68 -3.1 51 -11.7 0 0 968.2 NA 0.0000 9999 8430 0 0 0
2019/07/27 23:31:05 BASE 14.15 84 24.44 68 -3.2 52 -11.6 0 0 968.3 NA 0.0000 9999 8460 0 0 0
2019/07/27 23:32:05 BASE 12.89 89 23.77 74 -3.3 53 -11.5 0 0 968.3 NA 0.0000 9999 8300 0 0 0
2019/07/27 23:33:05 BASE 11.91 91 21.25 83 -3.2 52 -11.6 0 0 968.3 NA 0.0000 9999 8170 0 0 0
2019/07/27 23:34:05 BASE 11.60 91 20.17 76 -3.1 51 -11.8 0 0 968.3 NA 0.0000 9999 8040 0 0 0
2019/07/27 23:35:04 BASE 12.32 95 17.85 84 -3.1 51 -11.8 0 0 968.3 NA 0.0000 9999 7970 0 0 0
2019/07/27 23:36:05 BASE 12.88 96 17.85 84 -3.1 51 -11.9 0 0 968.3 NA 0.0000 9999 7510 0 0 0
2019/07/27 23:37:05 BASE 12.53 93 16.77 90 -3.2 52 -11.8 0 0 968.3 NA 0.0000 9999 7350 0 0 0
2019/07/27 23:38:05 BASE 13.11 91 16.20 88 -3.5 53 -11.6 0 0 968.3 NA 0.0000 9999 7120 0 0 0
2019/07/27 23:39:04 BASE 13.64 94 16.20 88 -3.7 55 -11.4 0 0 968.3 NA 0.0000 9999 6990 0 0 0
2019/07/27 23:40:04 BASE 12.95 96 15.23 92 -3.8 56 -11.3 0 0 968.3 NA 0.0000 9999 7090 0 0 0
2019/07/27 23:41:04 BASE 11.90 97 15.23 92 -3.9 56 -11.3 0 0 968.4 NA 0.0000 9999 7090 0 0 0
2019/07/27 23:42:05 BASE 12.94 99 15.79 100 -3.9 57 -11.2 0 0 968.3 NA 0.0000 9999 7150 0 0 0
2019/07/27 23:43:04 BASE 14.24 100 15.79 100 -3.8 57 -11.1 0 0 968.3 NA 0.0000 9999 7020 0 0 0
2019/07/27 23:44:05 BASE 13.70 98 15.79 100 -3.8 57 -11.0 0 0 968.3 NA 0.0000 9999 7090 0 0 0
2019/07/27 23:45:04 BASE 13.83 93 16.62 83 -3.7 58 -10.8 0 0 968.4 NA 0.0000 9999 7050 0 0 0
2019/07/27 23:46:05 BASE 13.35 85 16.62 83 -3.6 59 -10.6 0 0 968.4 NA 0.0000 9999 6500 7120 0 0
2019/07/27 23:47:04 BASE 12.03 81 16.62 83 -3.6 59 -10.5 0 0 968.4 NA 0.0000 9999 6370 7120 0 0
2019/07/27 23:48:04 BASE 12.75 83 16.62 83 -3.6 59 -10.4 0 0 968.4 NA 0.0000 9999 7090 0 0 0
2019/07/27 23:49:04 BASE 13.82 88 16.62 83 -3.7 60 -10.3 0 0 968.4 NA 0.0000 9999 6920 0 0 0
2019/07/27 23:50:04 BASE 13.79 89 16.62 83 -3.7 61 -10.2 0 0 968.4 NA 0.0000 9999 6990 0 0 0
2019/07/27 23:51:05 BASE 13.32 85 16.62 83 -3.7 61 -10.1 0 0 968.4 NA 0.0000 9999 7120 0 0 0
2019/07/27 23:52:06 BASE 14.87 74 18.57 62 -3.7 61 -10.0 0 0 968.3 NA 0.0000 9999 6920 0 0 0
2019/07/27 23:53:05 BASE 17.19 70 18.57 62 -3.6 62 -9.9 0 0 968.3 NA 0.0000 9999 6660 0 0 0
2019/07/27 23:54:04 BASE 16.93 73 18.57 62 -3.6 62 -9.8 0 0 968.3 NA 0.0000 9999 6730 0 0 0
2019/07/27 23:55:04 BASE 14.95 81 18.57 62 -3.5 62 -9.7 0 0 968.4 NA 0.0000 9999 5710 6760 0 0
2019/07/27 23:56:04 BASE 14.32 89 18.57 62 -3.4 62 -9.7 0 0 968.3 NA 0.0000 9999 5480 0 0 0
2019/07/27 23:57:05 BASE 15.12 92 18.57 62 -3.3 61 -9.8 0 0 968.3 NA 0.0000 9999 4890 6000 0 0
2019/07/27 23:58:05 BASE 15.10 89 18.57 62 -3.2 60 -9.9 0 0 968.3 NA 0.0000 9999 4630 6070 0 0
2019/07/27 23:59:04 BASE 15.59 87 18.57 62 -3.2 60 -9.9 0 0 968.3 NA 0.0000 9999 4230 5910 0 0